[[{"header":{"parameterUnit":"m.s-1","parameterCategory":1,"la1":31.0,"la2":29.5877,"lo1":-88.7671,"lo2":-86.6584,"dy":0.0162,"dx":0.0185,"nx":115,"ny":88,"refTime":"2023-05-21T12:00:00:Z","depth":0,"parameterNumber":2,"parameterNumberName":"U-component_of_WINDS"},"data":[0.0,0.0,0.0,0.0,0.0,0.0,0.0,0.0,0.0,0.0,0.0,0.0,0.0,0.0,0.0,0.0,0.0,0.0,0.0,0.0,0.0,0.0,0.0,0.0,0.0,0.0,0.0,0.0,0.0,0.0,0.0,0.0,0.0,0.0,0.0,0.0,0.0,0.0,0.0,0.0,0.0,0.0,0.0,0.0,0.0,0.0,0.0,0.0,0.0,0.0,0.0,0.0,0.0,0.0,0.0,0.0,0.0,0.0,0.0,0.0,0.0,0.0,0.0,0.0,0.0,0.0,0.0,0.0,0.0,0.0,0.0,0.0,0.0,0.0,0.0,0.0,0.0,0.0,0.0,0.0,0.0,0.0,0.0,0.0,0.0,0.0,0.0,0.0,0.0,0.0,0.0,0.0,0.0,0.0,0.0,0.0,0.0,0.0,0.0,0.0,0.0,0.0,0.0,0.0,0.0,0.0,0.0,0.0,0.0,0.0,0.0,0.0,0.0,0.0,0.0,0.0,0.0,0.0,0.0,0.0,0.0,0.0,0.0,0.0,0.0,0.0,0.0,0.0,0.0,0.0,0.0,0.0,0.0,0.0,0.0,0.0,0.0,0.0,0.0,0.0,0.0,0.0,0.0,0.0,0.0,0.0,0.0,0.0,0.0,0.0,0.0,0.0,0.0,0.0,0.0,0.0,0.0,0.0,0.0,0.0,0.0,0.0,0.0,0.0,0.0,0.0,0.0,0.0,0.0,0.0,0.0,0.0,0.0,0.0,0.0,0.0,0.0,0.0,0.0,0.0,0.0,0.0,0.0,0.0,0.0,0.0,0.0,0.0,0.0,0.0,0.0,0.0,0.0,0.0,0.0,0.0,0.0,0.0,0.0,0.0,0.0,0.0,0.0,0.0,0.0,0.0,0.0,0.0,0.0,0.0,0.0,0.0,0.0,0.0,0.0,0.0,0.0,0.0,0.0,0.0,0.0,0.0,0.0,0.0,0.0,0.0,0.0,0.0,0.0,0.0,0.0,0.0,0.0,0.0,0.0,0.0,0.0,0.0,0.0,0.0,0.0,0.0,0.0,0.0,0.0,0.0,0.0,0.0,0.0,0.0,0.0,0.0,0.0,0.0,0.0,0.0,0.0,0.0,0.0,0.0,0.0,0.0,0.0,0.0,0.0,0.0,0.0,0.0,0.0,0.0,0.0,0.0,0.0,0.0,0.0,0.0,0.0,0.0,0.0,0.0,0.0,0.0,0.0,0.0,0.0,0.0,0.0,0.0,0.0,0.0,0.0,0.0,0.0,0.0,0.0,0.0,0.0,0.0,0.0,0.0,0.0,0.0,0.0,0.0,0.0,0.0,0.0,0.0,0.0,0.0,0.0,0.0,0.0,0.0,0.0,0.0,0.0,0.0,0.0,0.0,0.0,0.0,0.0,0.0,0.0,0.0,0.0,0.0,0.0,0.0,0.0,0.0,0.0,0.0,0.0,0.0,0.0,0.0,0.0,0.0,0.0,0.0,0.0,0.0,0.0,0.0,0.0,0.0,0.0,0.0,0.0,0.0,0.0,0.0,0.0,0.0,0.0,0.0,0.0,0.0,0.0,0.0,0.0,0.0,0.0,0.0,0.0,0.0,0.0,0.0,0.0,0.0,0.0,0.0,0.0,0.0,0.0,0.0,0.0,0.0,0.0,0.0,0.0,0.0,0.0,0.0,0.0,0.0,0.0,0.0,0.0,0.0,0.0,0.0,0.0,0.0,0.0,0.0,0.0,0.0,0.0,0.0,0.0,0.0,0.0,0.0,0.0,0.0,0.0,0.0,0.0,0.0,0.0,0.0,0.0,0.0,0.0,0.0,0.0,0.0,0.0,0.0,0.0,0.0,0.0,0.0,0.0,0.0,0.0,0.0,0.0,0.0,0.0,0.0,0.0,0.0,0.0,0.0,0.0,0.0,0.0,0.0,0.0,0.0,0.0,0.0,0.0,0.0,0.0,0.0,0.0,0.0,0.0,0.0,0.0,0.0,0.0,0.0,0.0,0.0,0.0,0.0,0.0,0.0,0.0,0.0,0.0,0.0,0.0,0.0,0.0,0.0,0.0,0.0,0.0,0.0,0.0,0.0,0.0,0.0,0.0,0.0,0.0,0.0,0.0,0.0,0.0,0.0,0.0,0.0,0.0,0.0,0.0,0.0,0.0,0.0,0.0,0.0,0.0,0.0,0.0,0.0,0.0,0.0,0.0,0.0,0.0,0.0,0.0,0.0,0.0,0.0,0.0,0.0,0.0,0.0,0.0,0.0,0.0,0.0,0.0,0.0,0.0,0.0,0.0,0.0,0.0,0.0,0.0,0.0,0.0,0.0,0.0,0.0,0.0,0.0,0.0,0.0,0.0,0.0,0.0,0.0,0.0,0.0,0.0,0.0,0.0,0.0,0.0,0.0,0.0,0.0,0.0,0.0,0.0,0.0,0.0,0.0,0.0,0.0,0.0,0.0,0.0,0.0,0.0,0.0,0.0,0.0,0.0,0.0,0.0,0.0,0.0,0.0,0.0,0.0,0.0,0.0,0.0,0.0,0.0,0.0,0.0,0.0,0.0,0.0,0.0,0.0,0.0,0.0,0.0,0.0,0.0,0.0,0.0,0.0,0.0,0.0,0.0,0.0,0.0,0.0,0.0,0.0,0.0,0.0,0.0,0.0,0.0,0.0,0.0,0.0,0.0,0.0,0.0,0.0,0.0,0.0,0.0,0.0,0.0,0.0,0.0,0.0,0.0,0.0,0.0,0.0,0.0,0.0,0.0,0.0,0.0,0.0,0.0,0.0,0.0,0.0,0.0,0.0,0.0,0.0,0.0,0.0,0.0,0.0,0.0,0.0,0.0,0.0,0.0,0.0,0.0,0.0,0.0,0.0,0.0,0.0,0.0,0.0,0.0,0.0,0.0,0.0,0.0,0.0,0.0,0.0,0.0,0.0,0.0,0.0,0.0,0.0,0.0,0.0,0.0,0.0,0.0,0.0,0.0,0.0,0.0,0.0,0.0,0.0,0.0,0.0,0.0,0.0,0.0,0.0,0.0,0.0,0.0,0.0,0.0,0.0,0.0,0.0,0.0,0.0,0.0,0.0,0.0,0.0,0.0,0.0,0.0,0.0,0.0,0.0,0.0,0.0,0.0,0.0,0.0,0.0,0.0,0.0,0.0,0.0,0.0,0.0,0.0,0.0,0.0,0.0,0.0,0.0,0.0,0.0,0.0,0.0,0.0,0.0,0.0,0.0,0.0,0.0,0.0,0.0,0.0,0.0,0.0,0.0,0.0,0.0,0.0,0.0,0.0,0.0,0.0,0.0,0.0,0.0,0.0,0.0,0.0,0.0,0.0,0.0,0.0,0.0,0.0,0.0,0.0,0.0,0.0,0.0,0.0,0.0,0.0,0.0,0.0,0.0,0.0,0.0,0.0,0.0,0.0,0.0,0.0,0.0,0.0,0.0,0.0,0.0,0.0,0.0,0.0,0.0,0.0,0.0,0.0,0.0,0.0,0.0,0.0,0.0,0.0,0.0,0.0,0.0,0.0,0.0,0.0,0.0,0.0,0.0,0.0,0.0,0.0,0.0,0.0,0.0,0.0,0.0,0.0,0.0,0.0,0.0,0.0,0.0,0.0,0.0,0.0,0.0,0.0,0.0,0.0,0.0,0.0,0.0,0.0,0.0,0.0,0.0,0.0,0.0,0.0,0.0,0.0,0.0,0.0,0.0,0.0,0.0,0.0,0.0,0.0,0.0,0.0,0.0,0.0,0.0,0.0,0.0,0.0,0.0,0.0,0.0,0.0,0.0,0.0,0.0,0.0,0.0,0.0,0.0,0.0,0.0,0.0,0.0,0.0,0.0,0.0,0.0,0.0,0.0,0.0,0.0,0.0,0.0,0.0,0.0,0.0,0.0,0.0,0.0,0.0,0.0,0.0,0.0,0.0,0.0,0.0,0.0,0.0,0.0,0.0,0.0,0.0,0.0,0.0,0.0,0.0,0.0,0.0,0.0,0.0,0.0,0.0,0.0,0.0,0.0,0.0,0.0,0.0,0.0,0.0,0.0,0.0,0.0,0.0,0.0,0.0,0.0,0.0,0.0,0.0,0.0,0.0,0.0,0.0,0.0,0.0,0.0,0.0,0.0,0.0,0.0,0.0,0.0,0.0,0.0,0.0,0.0,0.0,0.0,0.0,0.0,0.0,0.0,0.0,0.0,0.0,0.0,0.0,0.0,0.0,0.0,0.0,0.0,0.0,0.0,2.4108,0.0,0.0,0.0,0.0,0.0,0.0,0.0,0.0,0.0,0.0,0.0,0.0,0.0,0.0,0.0,0.0,0.0,0.0,0.0,0.0,0.0,0.0,0.0,0.0,0.0,0.0,0.0,0.0,0.0,0.0,0.0,0.0,0.0,0.0,0.0,0.0,0.0,0.0,0.0,0.0,0.0,0.0,0.0,0.0,0.0,0.0,0.0,0.0,0.0,0.0,0.0,0.0,0.0,0.0,0.0,0.0,0.0,0.0,0.0,0.0,0.0,0.0,0.0,0.0,0.0,0.0,0.0,0.0,0.0,0.0,0.0,0.0,0.0,0.0,0.0,0.0,0.0,0.0,0.0,0.0,0.0,0.0,0.0,0.0,0.0,0.0,0.0,0.0,0.0,0.0,0.0,0.0,0.0,0.0,0.0,0.0,0.0,0.0,0.0,0.0,0.0,0.0,0.0,0.0,0.0,0.0,0.0,0.0,0.0,0.0,2.4197,2.4197,2.4197,2.4168,2.4114,0.0,0.0,0.0,0.0,0.0,0.0,0.0,0.0,0.0,0.0,0.0,0.0,0.0,0.0,0.0,0.0,0.0,0.0,0.0,0.0,0.0,0.0,0.0,0.0,0.0,0.0,0.0,0.0,0.0,0.0,0.0,0.0,0.0,0.0,0.0,0.0,0.0,0.0,0.0,0.0,0.0,0.0,0.0,0.0,0.0,0.0,0.0,0.0,0.0,0.0,0.0,0.0,0.0,0.0,0.0,0.0,0.0,0.0,0.0,0.0,0.0,0.0,0.0,0.0,0.0,0.0,0.0,0.0,0.0,0.0,0.0,0.0,0.0,0.0,0.0,0.0,0.0,0.0,0.0,0.0,0.0,0.0,0.0,0.0,0.0,0.0,0.0,0.0,0.0,0.0,0.0,0.0,0.0,0.0,0.0,0.0,0.0,0.0,0.0,0.0,0.0,0.0,0.0,0.0,0.0,0.0,0.0,0.0,0.0,0.0,0.0,0.0,2.4728,2.4655,2.4541,0.0,0.0,0.0,0.0,0.0,0.0,0.0,0.0,0.0,0.0,0.0,0.0,0.0,0.0,0.0,0.0,0.0,0.0,0.0,0.0,0.0,0.0,0.0,0.0,0.0,0.0,0.0,0.0,0.0,0.0,0.0,0.0,0.0,0.0,0.0,0.0,0.0,0.0,0.0,0.0,0.0,0.0,0.0,0.0,0.0,0.0,0.0,0.0,0.0,0.0,0.0,0.0,0.0,0.0,0.0,0.0,0.0,0.0,0.0,0.0,0.0,0.0,0.0,0.0,0.0,0.0,0.0,0.0,0.0,0.0,0.0,0.0,0.0,0.0,0.0,0.0,0.0,0.0,0.0,0.0,0.0,0.0,0.0,0.0,0.0,0.0,0.0,0.0,0.0,0.0,0.0,0.0,0.0,0.0,0.0,0.0,0.0,0.0,0.0,0.0,0.0,0.0,0.0,0.0,0.0,0.0,0.0,0.0,0.0,0.0,2.6389,2.6384,2.6303,0.0,2.5853,0.0,0.0,0.0,0.0,0.0,0.0,0.0,0.0,0.0,0.0,0.0,0.0,0.0,0.0,0.0,0.0,0.0,0.0,0.0,0.0,0.0,0.0,0.0,0.0,0.0,0.0,0.0,0.0,0.0,0.0,0.0,0.0,0.0,0.0,0.0,0.0,0.0,0.0,0.0,0.0,0.0,0.0,0.0,0.0,0.0,0.0,0.0,0.0,0.0,0.0,0.0,0.0,0.0,0.0,0.0,0.0,0.0,0.0,0.0,0.0,0.0,0.0,0.0,0.0,0.0,0.0,0.0,0.0,0.0,0.0,0.0,0.0,0.0,0.0,0.0,0.0,0.0,0.0,0.0,0.0,0.0,0.0,0.0,0.0,0.0,0.0,0.0,0.0,0.0,0.0,0.0,0.0,0.0,0.0,0.0,0.0,0.0,0.0,0.0,0.0,0.0,0.0,0.0,0.0,0.0,0.0,0.0,0.0,0.0,0.0,2.6591,2.6546,2.6397,2.6233,0.0,0.0,0.0,0.0,0.0,0.0,0.0,0.0,0.0,0.0,0.0,0.0,0.0,0.0,0.0,0.0,0.0,0.0,0.0,0.0,0.0,0.0,0.0,0.0,0.0,0.0,0.0,0.0,0.0,0.0,0.0,0.0,0.0,0.0,0.0,0.0,0.0,0.0,0.0,0.0,0.0,0.0,0.0,0.0,0.0,0.0,0.0,0.0,0.0,0.0,0.0,0.0,0.0,0.0,0.0,0.0,0.0,0.0,0.0,0.0,0.0,0.0,0.0,0.0,0.0,0.0,0.0,0.0,0.0,0.0,0.0,0.0,0.0,0.0,0.0,0.0,0.0,0.0,0.0,0.0,0.0,0.0,0.0,0.0,0.0,0.0,0.0,0.0,0.0,0.0,0.0,0.0,0.0,0.0,0.0,0.0,0.0,0.0,0.0,0.0,0.0,0.0,0.0,0.0,0.0,0.0,0.0,0.0,0.0,0.0,2.7265,2.7197,2.7086,2.6886,2.6681,2.6496,0.0,0.0,0.0,0.0,0.0,0.0,0.0,0.0,0.0,0.0,0.0,0.0,0.0,0.0,0.0,0.0,0.0,0.0,0.0,0.0,0.0,0.0,0.0,0.0,0.0,0.0,0.0,0.0,0.0,0.0,0.0,0.0,0.0,0.0,0.0,0.0,0.0,0.0,0.0,0.0,0.0,0.0,0.0,0.0,0.0,0.0,0.0,0.0,0.0,0.0,0.0,0.0,0.0,0.0,0.0,0.0,0.0,0.0,0.0,0.0,0.0,0.0,0.0,0.0,0.0,0.0,0.0,0.0,0.0,0.0,0.0,0.0,0.0,0.0,0.0,0.0,0.0,0.0,0.0,0.0,0.0,0.0,0.0,0.0,0.0,0.0,0.0,0.0,0.0,0.0,0.0,0.0,0.0,0.0,0.0,0.0,0.0,0.0,0.0,0.0,0.0,0.0,0.0,0.0,0.0,0.0,0.0,0.0,2.8855,2.8871,2.876,2.8477,2.8297,2.8049,0.0,0.0,0.0,0.0,0.0,0.0,0.0,0.0,0.0,0.0,0.0,0.0,0.0,0.0,0.0,0.0,0.0,0.0,0.0,0.0,0.0,0.0,0.0,0.0,0.0,0.0,0.0,0.0,0.0,0.0,0.0,0.0,0.0,0.0,0.0,0.0,0.0,0.0,0.0,0.0,0.0,0.0,0.0,0.0,0.0,0.0,0.0,0.0,0.0,0.0,0.0,0.0,0.0,0.0,0.0,0.0,0.0,0.0,0.0,0.0,0.0,0.0,0.0,0.0,0.0,0.0,0.0,0.0,0.0,0.0,0.0,0.0,0.0,0.0,0.0,0.0,0.0,0.0,0.0,0.0,0.0,0.0,0.0,0.0,0.0,0.0,0.0,0.0,0.0,0.0,0.0,0.0,0.0,0.0,0.0,0.0,0.0,0.0,0.0,0.0,0.0,0.0,0.0,0.0,0.0,0.0,0.0,0.0,0.0,2.8999,2.8873,2.8712,2.8546,2.83,2.8025,0.0,0.0,0.0,0.0,0.0,0.0,0.0,0.0,0.0,0.0,0.0,0.0,0.0,0.0,0.0,0.0,0.0,0.0,0.0,0.0,0.0,0.0,0.0,0.0,0.0,0.0,0.0,0.0,0.0,0.0,0.0,0.0,0.0,0.0,0.0,0.0,0.0,0.0,0.0,0.0,0.0,0.0,0.0,0.0,0.0,0.0,0.0,0.0,0.0,0.0,0.0,0.0,0.0,0.0,0.0,0.0,0.0,0.0,0.0,0.0,0.0,0.0,0.0,0.0,0.0,0.0,0.0,0.0,0.0,0.0,0.0,0.0,0.0,0.0,0.0,0.0,0.0,0.0,0.0,0.0,0.0,0.0,0.0,0.0,0.0,0.0,0.0,0.0,0.0,0.0,0.0,0.0,0.0,0.0,0.0,0.0,0.0,0.0,0.0,0.0,0.0,0.0,0.0,0.0,0.0,0.0,0.0,0.0,0.0,2.892,0.0,2.8532,2.8337,2.8091,2.7824,0.0,0.0,0.0,0.0,0.0,0.0,0.0,0.0,0.0,0.0,0.0,0.0,0.0,0.0,0.0,0.0,0.0,0.0,0.0,0.0,0.0,0.0,0.0,0.0,0.0,0.0,0.0,0.0,0.0,0.0,0.0,0.0,0.0,0.0,0.0,0.0,0.0,0.0,0.0,0.0,0.0,0.0,0.0,0.0,0.0,0.0,0.0,0.0,0.0,0.0,0.0,0.0,0.0,0.0,0.0,0.0,0.0,0.0,0.0,0.0,0.0,0.0,0.0,0.0,0.0,0.0,0.0,0.0,0.0,0.0,0.0,0.0,0.0,0.0,0.0,0.0,0.0,0.0,0.0,0.0,0.0,0.0,0.0,0.0,0.0,0.0,0.0,0.0,0.0,0.0,0.0,0.0,0.0,0.0,0.0,0.0,0.0,0.0,0.0,0.0,0.0,0.0,0.0,0.0,0.0,0.0,0.0,0.0,2.8975,2.8825,2.8621,2.8406,2.8031,2.784,2.7523,0.0,0.0,0.0,0.0,0.0,0.0,0.0,0.0,0.0,0.0,0.0,0.0,0.0,0.0,0.0,0.0,0.0,0.0,0.0,0.0,0.0,0.0,0.0,0.0,0.0,0.0,0.0,0.0,0.0,0.0,0.0,0.0,0.0,0.0,0.0,0.0,0.0,0.0,0.0,0.0,0.0,0.0,0.0,0.0,0.0,0.0,0.0,0.0,0.0,0.0,0.0,0.0,0.0,0.0,0.0,0.0,0.0,0.0,0.0,0.0,0.0,0.0,0.0,0.0,0.0,0.0,0.0,0.0,0.0,0.0,0.0,0.0,0.0,0.0,0.0,0.0,0.0,0.0,0.0,0.0,0.0,0.0,0.0,0.0,0.0,0.0,0.0,0.0,0.0,0.0,0.0,0.0,0.0,0.0,0.0,0.0,0.0,0.0,0.0,0.0,0.0,0.0,0.0,0.0,0.0,0.0,0.0,0.0,0.0,2.9442,2.917,2.9166,2.9378,2.9113,2.8857,0.0,0.0,0.0,0.0,0.0,0.0,0.0,0.0,0.0,0.0,0.0,0.0,0.0,0.0,0.0,0.0,0.0,0.0,0.0,0.0,0.0,0.0,0.0,0.0,0.0,0.0,0.0,0.0,0.0,0.0,0.0,0.0,0.0,0.0,0.0,0.0,0.0,0.0,0.0,0.0,0.0,0.0,0.0,0.0,0.0,0.0,0.0,0.0,0.0,0.0,0.0,0.0,0.0,0.0,0.0,0.0,0.0,0.0,0.0,0.0,0.0,0.0,0.0,0.0,0.0,0.0,0.0,0.0,0.0,0.0,0.0,0.0,0.0,0.0,0.0,0.0,0.0,0.0,0.0,0.0,0.0,0.0,0.0,0.0,0.0,0.0,0.0,0.0,0.0,0.0,0.0,0.0,0.0,0.0,0.0,0.0,0.0,0.0,0.0,0.0,0.0,0.0,0.0,0.0,0.0,0.0,0.0,0.0,0.0,3.0218,2.979,2.9645,2.9835,2.9587,2.9351,2.9179,0.0,0.0,0.0,0.0,0.0,0.0,0.0,0.0,0.0,0.0,0.0,0.0,0.0,0.0,0.0,0.0,0.0,0.0,0.0,0.0,0.0,0.0,0.0,0.0,0.0,0.0,0.0,0.0,0.0,0.0,0.0,0.0,0.0,0.0,0.0,0.0,0.0,0.0,0.0,0.0,0.0,0.0,0.0,0.0,0.0,0.0,0.0,0.0,0.0,0.0,0.0,0.0,0.0,0.0,0.0,0.0,0.0,0.0,0.0,0.0,0.0,0.0,0.0,0.0,0.0,0.0,0.0,0.0,0.0,0.0,0.0,0.0,0.0,0.0,0.0,0.0,0.0,0.0,0.0,0.0,0.0,0.0,0.0,0.0,0.0,0.0,0.0,0.0,0.0,0.0,0.0,0.0,0.0,0.0,0.0,0.0,0.0,0.0,0.0,0.0,0.0,0.0,0.0,0.0,0.0,0.0,0.0,0.0,3.1211,3.0524,3.002,2.9734,2.9488,2.929,0.0,0.0,0.0,0.0,0.0,0.0,0.0,0.0,0.0,0.0,0.0,0.0,0.0,0.0,0.0,0.0,0.0,0.0,0.0,0.0,0.0,0.0,0.0,0.0,0.0,0.0,0.0,0.0,0.0,0.0,0.0,0.0,0.0,0.0,0.0,0.0,0.0,0.0,0.0,0.0,0.0,0.0,0.0,0.0,0.0,0.0,0.0,0.0,0.0,0.0,0.0,0.0,0.0,0.0,0.0,0.0,0.0,0.0,0.0,0.0,0.0,0.0,0.0,0.0,0.0,0.0,0.0,0.0,0.0,0.0,0.0,0.0,0.0,0.0,0.0,0.0,0.0,0.0,0.0,0.0,0.0,0.0,0.0,0.0,0.0,0.0,0.0,0.0,0.0,0.0,0.0,0.0,0.0,0.0,0.0,0.0,0.0,0.0,0.0,0.0,0.0,0.0,0.0,0.0,0.0,0.0,0.0,0.0,0.0,3.247,3.2115,3.1626,3.1025,3.0848,3.0725,0.0,0.0,0.0,0.0,0.0,0.0,0.0,0.0,0.0,0.0,0.0,0.0,0.0,0.0,0.0,0.0,0.0,0.0,0.0,0.0,0.0,0.0,0.0,0.0,0.0,0.0,0.0,0.0,0.0,0.0,0.0,0.0,0.0,0.0,0.0,0.0,0.0,0.0,0.0,0.0,0.0,0.0,0.0,0.0,0.0,0.0,0.0,0.0,0.0,0.0,0.0,0.0,0.0,0.0,0.0,0.0,0.0,0.0,0.0,0.0,0.0,0.0,0.0,0.0,0.0,0.0,0.0,0.0,0.0,0.0,0.0,0.0,0.0,0.0,0.0,0.0,0.0,0.0,0.0,0.0,0.0,0.0,0.0,0.0,0.0,0.0,0.0,0.0,0.0,0.0,0.0,0.0,0.0,0.0,0.0,0.0,0.0,0.0,0.0,0.0,0.0,0.0,0.0,0.0,0.0,0.0,0.0,0.0,3.281,3.2882,3.2977,3.2784,3.2308,3.1919,3.1552,0.0,0.0,0.0,0.0,0.0,0.0,0.0,0.0,0.0,0.0,0.0,0.0,0.0,0.0,0.0,0.0,0.0,0.0,0.0,0.0,0.0,0.0,0.0,0.0,0.0,0.0,0.0,0.0,0.0,0.0,0.0,0.0,0.0,0.0,0.0,0.0,0.0,0.0,0.0,0.0,0.0,0.0,0.0,0.0,0.0,0.0,0.0,0.0,0.0,0.0,0.0,0.0,0.0,0.0,0.0,0.0,0.0,0.0,0.0,0.0,0.0,0.0,0.0,0.0,0.0,0.0,0.0,0.0,0.0,0.0,0.0,0.0,0.0,0.0,0.0,0.0,0.0,0.0,0.0,0.0,0.0,0.0,0.0,0.0,0.0,0.0,0.0,0.0,0.0,0.0,0.0,0.0,0.0,0.0,0.0,0.0,0.0,0.0,0.0,0.0,0.0,0.0,0.0,0.0,0.0,0.0,0.0,0.0,3.308,3.2902,3.3422,3.3624,3.3508,3.2723,3.1984,0.0,0.0,0.0,0.0,0.0,0.0,0.0,0.0,0.0,0.0,0.0,0.0,0.0,0.0,0.0,0.0,0.0,0.0,0.0,0.0,0.0,0.0,0.0,0.0,0.0,0.0,0.0,0.0,0.0,0.0,0.0,0.0,0.0,0.0,0.0,0.0,0.0,0.0,0.0,0.0,0.0,0.0,0.0,0.0,0.0,0.0,0.0,0.0,0.0,0.0,0.0,0.0,0.0,0.0,0.0,0.0,0.0,0.0,0.0,0.0,0.0,0.0,0.0,0.0,0.0,0.0,0.0,0.0,0.0,0.0,0.0,0.0,0.0,0.0,0.0,0.0,0.0,0.0,0.0,0.0,0.0,0.0,0.0,0.0,0.0,0.0,0.0,0.0,0.0,0.0,0.0,0.0,0.0,0.0,0.0,0.0,0.0,0.0,0.0,0.0,0.0,0.0,0.0,0.0,0.0,0.0,0.0,0.0,3.3395,3.4244,3.4303,3.4301,3.4263,3.2977,3.2226,0.0,0.0,0.0,0.0,0.0,0.0,0.0,0.0,0.0,0.0,0.0,0.0,0.0,0.0,0.0,0.0,0.0,0.0,0.0,0.0,0.0,0.0,0.0,0.0,0.0,0.0,0.0,0.0,0.0,0.0,0.0,0.0,0.0,0.0,0.0,0.0,0.0,0.0,0.0,0.0,0.0,0.0,0.0,0.0,0.0,0.0,0.0,0.0,3.2073,0.0,0.0,0.0,0.0,0.0,0.0,0.0,0.0,0.0,0.0,0.0,0.0,0.0,0.0,0.0,0.0,0.0,0.0,0.0,0.0,0.0,0.0,0.0,0.0,0.0,0.0,0.0,0.0,0.0,0.0,0.0,0.0,0.0,0.0,0.0,0.0,0.0,0.0,0.0,0.0,0.0,0.0,0.0,0.0,0.0,0.0,0.0,0.0,0.0,0.0,0.0,0.0,0.0,0.0,0.0,0.0,0.0,0.0,0.0,3.4081,3.4668,3.4905,3.503,3.4968,3.3936,3.2999,0.0,0.0,0.0,0.0,0.0,0.0,0.0,0.0,0.0,0.0,0.0,0.0,0.0,0.0,0.0,0.0,0.0,0.0,0.0,0.0,0.0,0.0,0.0,0.0,0.0,0.0,0.0,0.0,0.0,0.0,0.0,0.0,0.0,0.0,0.0,0.0,0.0,0.0,0.0,0.0,0.0,0.0,0.0,0.0,0.0,0.0,0.0,0.0,0.0,0.0,0.0,0.0,0.0,0.0,0.0,0.0,0.0,0.0,0.0,0.0,0.0,0.0,0.0,0.0,0.0,0.0,0.0,0.0,0.0,0.0,0.0,0.0,0.0,0.0,0.0,0.0,0.0,0.0,0.0,0.0,0.0,0.0,0.0,0.0,0.0,0.0,0.0,0.0,0.0,0.0,0.0,0.0,0.0,0.0,0.0,0.0,0.0,0.0,0.0,0.0,0.0,0.0,0.0,0.0,0.0,0.0,0.0,3.4355,3.4965,3.5037,3.5633,3.5893,3.578,3.5165,3.4167,3.2699,0.0,0.0,0.0,0.0,0.0,0.0,0.0,0.0,0.0,0.0,0.0,0.0,0.0,0.0,0.0,0.0,0.0,0.0,0.0,0.0,0.0,0.0,0.0,0.0,0.0,0.0,0.0,0.0,0.0,0.0,0.0,0.0,0.0,0.0,0.0,0.0,0.0,0.0,3.1534,3.2058,0.0,0.0,0.0,0.0,0.0,0.0,0.0,0.0,3.3666,0.0,0.0,0.0,0.0,0.0,0.0,0.0,0.0,0.0,0.0,0.0,0.0,0.0,0.0,0.0,0.0,0.0,0.0,0.0,0.0,0.0,0.0,0.0,0.0,0.0,0.0,0.0,0.0,0.0,0.0,0.0,0.0,0.0,0.0,0.0,0.0,0.0,0.0,0.0,0.0,0.0,0.0,0.0,0.0,0.0,0.0,0.0,0.0,0.0,0.0,0.0,0.0,0.0,0.0,0.0,0.0,3.4386,3.5204,3.5892,3.644,3.715,3.7246,3.662,3.6491,3.5701,3.4195,0.0,0.0,0.0,0.0,0.0,0.0,0.0,0.0,0.0,0.0,0.0,0.0,0.0,0.0,0.0,0.0,0.0,0.0,0.0,0.0,0.0,0.0,0.0,0.0,0.0,0.0,0.0,0.0,0.0,0.0,0.0,0.0,0.0,0.0,0.0,0.0,0.0,0.0,0.0,3.3136,3.326,0.0,0.0,0.0,0.0,0.0,0.0,0.0,0.0,3.4991,0.0,0.0,0.0,0.0,0.0,0.0,0.0,0.0,0.0,0.0,0.0,0.0,0.0,0.0,0.0,0.0,0.0,0.0,0.0,0.0,0.0,0.0,0.0,0.0,0.0,0.0,0.0,0.0,0.0,0.0,0.0,0.0,0.0,0.0,0.0,0.0,0.0,0.0,0.0,0.0,0.0,0.0,0.0,0.0,0.0,0.0,0.0,0.0,0.0,0.0,0.0,0.0,0.0,0.0,0.0,3.5257,3.5949,3.6666,3.7359,3.7719,3.755,3.6829,3.6806,3.6265,0.0,0.0,0.0,0.0,0.0,0.0,0.0,0.0,0.0,0.0,0.0,0.0,0.0,0.0,0.0,0.0,0.0,0.0,0.0,0.0,0.0,0.0,0.0,0.0,0.0,0.0,0.0,0.0,0.0,0.0,0.0,0.0,0.0,0.0,0.0,0.0,0.0,0.0,0.0,0.0,3.397,3.41,3.4495,0.0,0.0,0.0,0.0,0.0,0.0,3.5217,3.5352,0.0,0.0,0.0,0.0,0.0,0.0,0.0,0.0,0.0,0.0,0.0,0.0,0.0,0.0,0.0,0.0,0.0,0.0,0.0,0.0,0.0,0.0,0.0,0.0,0.0,0.0,0.0,0.0,0.0,0.0,0.0,0.0,0.0,0.0,0.0,0.0,0.0,0.0,0.0,0.0,0.0,0.0,0.0,0.0,0.0,0.0,0.0,0.0,0.0,0.0,0.0,0.0,0.0,0.0,0.0,3.5988,3.6677,3.7352,3.8043,3.8229,3.7936,3.7198,3.7029,3.6562,0.0,0.0,0.0,0.0,0.0,0.0,0.0,0.0,0.0,0.0,0.0,0.0,0.0,0.0,0.0,0.0,0.0,0.0,0.0,0.0,0.0,0.0,0.0,0.0,0.0,0.0,0.0,0.0,0.0,0.0,0.0,0.0,0.0,0.0,0.0,0.0,0.0,0.0,0.0,0.0,0.0,3.494,3.5498,3.5583,0.0,0.0,0.0,0.0,3.548,3.545,0.0,0.0,0.0,0.0,0.0,0.0,0.0,0.0,0.0,0.0,0.0,0.0,0.0,0.0,0.0,0.0,0.0,0.0,0.0,0.0,0.0,0.0,0.0,0.0,0.0,0.0,0.0,0.0,0.0,0.0,0.0,0.0,0.0,0.0,0.0,0.0,0.0,0.0,0.0,0.0,0.0,0.0,0.0,0.0,0.0,0.0,0.0,0.0,0.0,0.0,0.0,0.0,0.0,0.0,0.0,0.0,3.6643,3.7387,3.8082,3.8695,3.9324,3.9263,3.8422,3.7751,3.7064,0.0,0.0,0.0,0.0,0.0,0.0,0.0,0.0,0.0,0.0,0.0,0.0,0.0,0.0,0.0,0.0,0.0,0.0,0.0,0.0,0.0,0.0,0.0,0.0,0.0,0.0,0.0,0.0,0.0,0.0,0.0,0.0,0.0,0.0,0.0,0.0,0.0,0.0,0.0,0.0,0.0,3.5498,3.5583,3.556,3.5509,0.0,0.0,3.6021,3.6015,3.5901,0.0,0.0,0.0,0.0,0.0,0.0,0.0,0.0,0.0,0.0,0.0,0.0,0.0,0.0,0.0,0.0,0.0,0.0,0.0,0.0,0.0,0.0,0.0,0.0,0.0,0.0,0.0,0.0,0.0,0.0,0.0,0.0,0.0,0.0,0.0,0.0,0.0,0.0,0.0,0.0,0.0,0.0,0.0,0.0,0.0,0.0,0.0,0.0,0.0,0.0,0.0,0.0,0.0,0.0,0.0,3.6401,3.7404,3.8075,3.8702,3.9288,3.9435,3.9095,3.8224,3.7421,3.6673,0.0,0.0,0.0,0.0,0.0,0.0,0.0,0.0,0.0,0.0,0.0,0.0,0.0,0.0,0.0,0.0,0.0,0.0,0.0,0.0,0.0,0.0,0.0,0.0,0.0,0.0,0.0,0.0,0.0,0.0,0.0,0.0,0.0,0.0,0.0,0.0,0.0,0.0,0.0,0.0,0.0,0.0,3.5857,3.5865,0.0,0.0,0.0,3.6279,3.6039,0.0,0.0,0.0,0.0,0.0,0.0,0.0,0.0,0.0,0.0,0.0,0.0,0.0,0.0,0.0,0.0,0.0,0.0,0.0,0.0,0.0,0.0,0.0,0.0,0.0,0.0,0.0,0.0,0.0,0.0,0.0,0.0,0.0,0.0,0.0,0.0,0.0,0.0,0.0,0.0,0.0,0.0,0.0,0.0,0.0,0.0,0.0,0.0,0.0,0.0,0.0,0.0,0.0,0.0,0.0,0.0,0.0,3.7829,3.8389,3.8954,3.9494,3.9215,3.8703,3.7966,3.7106,0.0,0.0,0.0,0.0,0.0,0.0,0.0,0.0,0.0,0.0,0.0,0.0,0.0,0.0,0.0,0.0,0.0,0.0,0.0,0.0,0.0,0.0,0.0,0.0,0.0,0.0,0.0,3.3959,0.0,0.0,0.0,0.0,0.0,0.0,0.0,0.0,0.0,0.0,0.0,0.0,0.0,0.0,3.5696,3.5974,3.6061,3.6184,0.0,0.0,3.647,3.6046,3.5548,3.5172,0.0,0.0,0.0,0.0,0.0,0.0,0.0,0.0,0.0,0.0,0.0,0.0,0.0,0.0,0.0,0.0,0.0,0.0,0.0,0.0,0.0,0.0,0.0,0.0,0.0,0.0,0.0,0.0,0.0,0.0,0.0,0.0,0.0,0.0,0.0,0.0,0.0,0.0,0.0,0.0,0.0,0.0,0.0,0.0,0.0,0.0,0.0,0.0,0.0,0.0,0.0,0.0,0.0,0.0,0.0,3.7685,3.8131,3.8578,3.9017,3.8775,3.8444,3.8076,3.7252,3.6453,0.0,0.0,0.0,0.0,0.0,0.0,0.0,0.0,0.0,0.0,0.0,0.0,0.0,0.0,0.0,0.0,0.0,0.0,0.0,0.0,0.0,0.0,0.0,0.0,0.0,0.0,0.0,0.0,0.0,0.0,0.0,0.0,0.0,0.0,0.0,0.0,0.0,0.0,0.0,0.0,0.0,3.5833,3.5731,3.5948,3.6118,0.0,0.0,3.652,3.6309,3.577,3.5362,3.5303,0.0,0.0,0.0,0.0,0.0,0.0,0.0,0.0,0.0,0.0,0.0,0.0,0.0,0.0,0.0,0.0,0.0,0.0,0.0,0.0,0.0,0.0,0.0,0.0,0.0,0.0,0.0,0.0,0.0,0.0,0.0,0.0,0.0,0.0,0.0,0.0,0.0,0.0,0.0,0.0,0.0,0.0,0.0,0.0,0.0,0.0,0.0,0.0,0.0,0.0,0.0,0.0,0.0,3.7077,3.7282,3.8143,3.8564,3.8439,3.8057,3.7695,3.7362,3.6428,3.5862,0.0,0.0,0.0,0.0,0.0,0.0,0.0,0.0,0.0,0.0,0.0,0.0,0.0,0.0,0.0,0.0,0.0,0.0,0.0,0.0,0.0,0.0,0.0,0.0,0.0,0.0,0.0,0.0,3.5622,3.5622,3.5622,0.0,0.0,0.0,0.0,0.0,0.0,0.0,0.0,0.0,0.0,3.5588,3.5736,3.6018,0.0,0.0,3.6627,3.6562,3.6282,3.542,3.477,3.4756,3.393,0.0,0.0,0.0,0.0,0.0,0.0,0.0,0.0,0.0,0.0,0.0,0.0,0.0,0.0,0.0,0.0,0.0,0.0,0.0,0.0,0.0,0.0,0.0,0.0,0.0,0.0,0.0,0.0,0.0,0.0,0.0,0.0,0.0,0.0,0.0,0.0,0.0,0.0,0.0,0.0,0.0,0.0,0.0,0.0,0.0,0.0,0.0,0.0,0.0,0.0,0.0,0.0,3.7037,3.6836,3.7943,3.8308,3.7857,3.7417,3.7035,3.67,3.5961,3.5539,0.0,0.0,0.0,0.0,0.0,0.0,0.0,0.0,0.0,0.0,0.0,0.0,0.0,0.0,0.0,0.0,0.0,0.0,0.0,0.0,0.0,0.0,0.0,0.0,0.0,0.0,0.0,0.0,3.5583,3.5583,3.5583,0.0,0.0,0.0,0.0,0.0,0.0,0.0,0.0,0.0,0.0,3.5301,3.5515,3.5955,3.6375,3.6638,3.6577,3.6383,3.6108,3.5233,3.4543,3.4499,0.0,0.0,0.0,0.0,0.0,0.0,0.0,0.0,0.0,0.0,0.0,0.0,0.0,0.0,0.0,0.0,0.0,0.0,0.0,0.0,0.0,0.0,0.0,0.0,0.0,0.0,0.0,0.0,0.0,0.0,3.2703,0.0,0.0,0.0,0.0,0.0,0.0,0.0,0.0,0.0,0.0,0.0,0.0,0.0,0.0,0.0,0.0,0.0,0.0,0.0,0.0,0.0,0.0,3.6672,3.6427,3.7391,3.7697,3.7216,3.6884,3.6554,3.6219,3.6054,3.5671,3.5025,0.0,0.0,0.0,0.0,0.0,0.0,0.0,0.0,0.0,0.0,0.0,0.0,0.0,0.0,0.0,0.0,0.0,0.0,0.0,0.0,0.0,0.0,0.0,0.0,0.0,0.0,3.548,3.5554,3.5554,0.0,0.0,0.0,0.0,0.0,0.0,0.0,0.0,0.0,0.0,3.4612,3.5048,3.4968,3.5644,3.6204,3.6211,3.6101,3.5942,3.5744,3.528,3.491,0.0,0.0,0.0,0.0,0.0,0.0,0.0,0.0,0.0,0.0,0.0,0.0,0.0,0.0,0.0,0.0,0.0,0.0,0.0,0.0,0.0,0.0,0.0,0.0,0.0,0.0,0.0,3.3214,3.3207,0.0,0.0,0.0,0.0,0.0,0.0,0.0,0.0,0.0,0.0,0.0,3.4601,3.4678,0.0,0.0,0.0,0.0,0.0,0.0,0.0,0.0,0.0,0.0,0.0,0.0,3.6034,3.5858,3.674,3.7072,3.6739,3.6391,3.6116,3.5863,3.5741,3.5399,3.4816,0.0,0.0,0.0,0.0,0.0,0.0,0.0,0.0,0.0,0.0,0.0,0.0,0.0,0.0,0.0,0.0,0.0,0.0,0.0,0.0,0.0,0.0,0.0,0.0,0.0,3.5082,0.0,0.0,0.0,0.0,0.0,0.0,0.0,0.0,0.0,0.0,0.0,3.4264,3.4001,3.4742,3.5272,3.5107,3.5545,3.5863,0.0,0.0,0.0,0.0,0.0,0.0,0.0,0.0,0.0,0.0,0.0,0.0,0.0,0.0,3.4739,3.4646,3.4677,3.4742,3.488,0.0,0.0,0.0,0.0,0.0,0.0,0.0,0.0,0.0,0.0,0.0,0.0,0.0,0.0,3.425,0.0,3.3723,0.0,0.0,0.0,0.0,0.0,0.0,0.0,0.0,3.5146,3.5272,3.5369,3.5191,3.5066,0.0,3.5073,3.4963,0.0,0.0,0.0,0.0,0.0,0.0,0.0,0.0,3.5549,3.5568,3.6502,3.687,3.6577,3.6598,3.6403,3.5991,3.5666,3.5335,3.498,3.4764,3.4292,0.0,0.0,0.0,0.0,0.0,0.0,0.0,0.0,0.0,0.0,0.0,0.0,0.0,0.0,0.0,0.0,0.0,0.0,0.0,0.0,0.0,0.0,0.0,3.5084,0.0,0.0,0.0,0.0,0.0,0.0,0.0,0.0,0.0,3.434,3.4376,3.4359,3.4094,3.4693,3.5125,3.5025,0.0,0.0,0.0,0.0,0.0,0.0,0.0,3.523,3.5311,3.5139,3.5022,3.5093,3.5132,3.5117,3.5117,0.0,0.0,3.5184,3.5301,3.5529,3.5659,3.5679,3.5687,3.5678,3.5516,3.5454,0.0,0.0,0.0,0.0,0.0,0.0,0.0,0.0,3.6602,3.6487,0.0,3.5134,0.0,0.0,0.0,0.0,0.0,3.5381,0.0,0.0,3.5282,3.4945,3.4856,3.461,3.4478,3.4448,3.4493,3.4536,3.4626,3.4679,0.0,0.0,0.0,0.0,0.0,0.0,3.5266,3.564,3.6635,3.7033,3.6766,3.7344,3.7298,3.6553,3.5908,3.5571,3.5511,3.4937,3.4548,3.4488,3.3991,0.0,0.0,0.0,0.0,0.0,0.0,0.0,0.0,0.0,0.0,0.0,0.0,0.0,0.0,0.0,0.0,0.0,0.0,0.0,0.0,3.5314,0.0,0.0,0.0,0.0,0.0,0.0,0.0,0.0,0.0,0.0,3.4365,3.4469,3.4505,3.4255,0.0,0.0,0.0,0.0,3.5534,3.5526,3.5541,3.5594,3.5594,3.6103,3.6515,3.6532,0.0,0.0,3.7366,3.7357,3.7315,3.7357,3.7347,3.6994,3.5619,3.5975,3.643,3.6435,3.6454,3.6453,3.6425,3.6321,3.6354,3.6031,0.0,0.0,0.0,0.0,3.5701,3.5925,3.6118,3.6339,3.6313,3.6095,3.5903,0.0,0.0,0.0,0.0,0.0,0.0,3.5543,3.5992,3.5524,3.5482,3.5784,3.563,3.5529,3.5544,3.5537,3.5308,3.4889,3.4908,3.4755,3.4492,0.0,0.0,0.0,0.0,3.5446,3.6021,3.6567,3.7036,3.7412,3.7466,3.7372,3.7142,3.6962,3.6665,3.6231,3.6029,3.5484,3.4555,3.4347,0.0,0.0,0.0,0.0,0.0,0.0,0.0,0.0,0.0,0.0,0.0,0.0,0.0,0.0,0.0,0.0,0.0,0.0,0.0,3.5309,3.5375,3.5465,0.0,0.0,0.0,0.0,0.0,0.0,0.0,0.0,0.0,3.5401,3.5049,3.4752,0.0,0.0,3.5261,3.5268,3.5805,3.6216,3.6207,0.0,0.0,0.0,3.703,3.715,3.7142,3.7291,3.7387,3.7387,3.7387,3.7387,3.7402,3.7785,3.7965,3.7614,3.7375,3.7372,3.743,3.7472,3.7477,3.7476,3.7332,3.7313,3.6987,3.6755,3.5885,3.5614,3.5758,3.613,3.627,3.6309,3.6559,3.6533,3.6293,3.6277,3.611,3.584,3.5762,0.0,0.0,0.0,3.5583,3.6125,3.5707,3.5825,3.6378,3.6262,3.6325,3.6544,3.6552,3.6347,3.5955,3.5955,3.5911,3.5776,0.0,0.0,3.4755,3.5202,3.5723,3.6398,3.7045,3.7573,3.7972,3.7869,3.7808,3.7785,3.7539,3.7216,3.6874,3.6851,3.638,3.5349,3.5289,3.487,0.0,0.0,0.0,0.0,0.0,0.0,0.0,0.0,0.0,0.0,0.0,3.3213,0.0,0.0,0.0,0.0,3.508,3.5531,3.5749,3.5594,0.0,0.0,0.0,0.0,0.0,0.0,0.0,3.5704,3.6075,3.6394,3.6588,3.6203,3.5866,3.5784,3.6039,3.6267,3.6244,0.0,3.6851,3.6851,3.7165,3.7501,3.7764,3.8009,3.8359,3.8901,3.8984,3.8999,3.8984,3.899,3.899,3.9035,3.9323,3.9598,3.9592,3.9358,3.8982,3.8596,3.8484,3.8485,3.8489,3.8625,3.8772,3.8022,3.7964,3.6049,3.5257,3.5353,3.6209,3.6572,3.6597,3.7218,3.71,3.6486,3.6478,3.6078,3.5388,3.5186,0.0,3.5719,3.5576,3.5799,3.6308,3.5998,3.6169,3.6738,3.6627,3.6851,3.7372,3.7387,3.7387,3.7366,3.7381,3.7387,3.7321,3.5244,3.4523,3.5175,3.5622,3.6166,3.6837,3.7865,3.8416,3.8467,3.8476,3.8484,3.8484,3.7883,3.7545,3.7486,3.7471,3.7186,3.6613,3.6515,3.594,3.475,0.0,0.0,0.0,0.0,0.0,0.0,0.0,0.0,0.0,0.0,0.0,0.0,0.0,0.0,0.0,3.5116,0.0,3.6537,3.5999,0.0,0.0,0.0,3.4969,3.5713,3.609,3.6543,3.7098,0.0,0.0,3.7824,3.7723,3.765,3.771,3.7584,3.7471,3.7486,3.7599,3.7644,3.771,3.7734,3.7964,3.8694,3.9191,3.9918,4.0939,4.1413,4.1254,4.1239,4.1254,4.1353,4.1239,4.1398,4.1353,4.1398,4.1248,4.102,3.9777,3.9574,3.9568,3.9597,4.0005,4.0365,3.8015,3.757,3.7198,3.7266,3.7611,3.7821,3.7922,3.7938,3.8109,3.7776,3.718,3.7157,3.6809,3.6205,3.6007,3.6252,3.6811,3.6522,3.6723,3.731,3.7101,3.709,3.7231,3.7212,3.7246,3.7396,3.7387,3.7387,3.7387,3.7387,3.7387,3.7366,3.6843,3.6668,3.6819,3.6933,3.7329,3.7982,3.8277,3.8655,3.9146,3.9161,3.9152,3.9161,3.9011,3.8682,3.8191,3.8153,3.7853,3.721,3.6763,3.6359,3.6044,3.505,0.0,0.0,0.0,0.0,0.0,0.0,0.0,0.0,0.0,3.3129,3.3725,0.0,3.4851,0.0,3.5924,3.6875,3.7513,3.7413,0.0,0.0,3.7178,3.714,3.734,3.735,3.7392,3.7543,3.7953,3.8432,3.8924,3.9397,3.9873,4.0346,3.9119,3.8161,3.8167,3.9065,3.9694,3.9709,4.0047,4.0496,4.0595,4.0804,4.105,4.1353,4.1428,4.1413,4.1428,4.1413,4.1413,4.1413,4.1413,4.1413,4.1433,4.1413,4.1328,4.0988,4.0915,4.0934,4.0948,4.1043,4.1178,3.9532,3.9194,3.9292,3.9325,3.9239,3.8511,3.8173,3.8181,3.8173,3.7959,3.7608,3.7631,3.74,3.7038,3.6911,3.7026,3.7269,3.7084,3.7211,3.7556,3.7447,3.7554,3.7838,3.7838,3.7994,3.8293,3.8285,3.8285,3.8308,3.8302,3.827,3.8308,3.8285,3.8285,3.827,3.7994,3.8042,3.8386,3.8691,3.9035,3.9391,3.9397,3.9397,3.9397,3.9397,3.9221,3.8847,3.8856,3.8542,3.7883,3.7533,3.7203,3.6904,3.6201,3.5774,0.0,0.0,0.0,0.0,0.0,0.0,0.0,0.0,0.0,0.0,0.0,3.5788,3.6051,3.6736,3.7324,3.7638,3.7692,3.7677,3.7692,3.7948,3.825,3.8527,3.8756,3.9013,3.9316,3.9571,3.9882,4.0262,4.0591,4.0975,4.1349,4.0709,4.0071,3.9831,4.0415,4.084,4.0861,4.1179,4.1523,4.1787,4.2067,4.2242,4.2242,4.2252,4.2252,4.2242,4.2252,4.2252,4.2237,4.2242,4.2227,4.2252,4.2242,4.2242,4.2246,4.2258,4.2037,4.1518,4.1633,4.1853,4.1413,4.1413,4.1413,4.1064,4.0425,3.8969,3.8268,3.8093,3.811,3.8032,3.795,3.7874,3.7761,3.7665,3.7656,3.7616,3.753,3.7516,3.7575,3.7665,3.774,3.8108,3.8655,3.8754,3.9095,3.9655,3.9655,3.9645,3.9655,3.9655,3.967,3.9655,3.966,3.9655,3.964,3.908,3.8754,3.8655,3.9236,3.9556,3.967,3.967,3.966,3.9655,3.9571,3.9517,3.9526,3.9451,3.9122,3.8565,3.8437,3.8146,3.7575,3.7441,3.7387,0.0,3.6887,0.0,0.0,0.0,0.0,0.0,0.0,0.0,0.0,3.6267,3.6866,3.7471,3.7614,3.768,3.7778,3.7845,3.7919,3.7934,3.8431,3.902,3.9586,4.0187,4.0741,4.1353,4.1488,4.1523,4.1508,4.1573,4.1658,4.1888,4.2271,4.2376,4.2017,4.1792,4.1693,4.1658,4.1723,4.2217,4.2775,4.3254,4.3554,4.3564,4.3564,4.3539,4.3564,4.3554,4.3554,4.3564,4.3554,4.3554,4.3554,4.3564,4.3564,4.3553,4.3553,4.317,4.2125,4.2139,4.252,4.1413,4.1413,4.1413,4.1313,4.1188,4.087,4.0123,3.9116,3.9124,3.8801,3.8257,3.773,3.7464,3.7462,3.7462,3.7721,3.8206,3.8206,3.8512,3.9032,3.958,3.9903,4.0053,4.058,4.0885,4.1005,4.1029,4.1029,4.1029,4.1029,4.102,4.102,4.102,4.102,4.102,0.0,0.0,0.0,4.0152,4.0481,4.1005,4.1029,4.1029,4.1005,4.0496,0.0,4.0202,3.969,3.9346,3.9197,3.8691,0.0,0.0,0.0,0.0,0.0,0.0,0.0,0.0,0.0,0.0,0.0,3.7,3.6919,3.7028,3.718,3.7494,3.8146,3.8706,3.9242,3.9798,4.0322,4.0645,4.0655,4.0735,4.0885,4.1029,4.1139,4.1268,4.1388,4.1877,4.2221,4.2291,4.2626,4.313,4.3589,4.3853,4.4107,4.4462,4.3559,4.2965,4.2956,4.3334,4.3958,4.4641,4.4796,4.4796,4.493,4.493,4.4885,4.484,4.487,4.49,4.486,4.4915,4.4885,4.4875,4.493,4.4833,4.491,4.4889,4.4523,4.324,4.3021,4.328,4.2347,0.0,4.2342,4.2172,0.0,4.1882,4.1313,4.0382,4.0382,4.0197,3.9852,3.9514,3.9379,3.9379,3.9388,3.9553,3.9867,3.9891,4.0053,4.0388,4.0638,4.075,4.0765,4.0945,4.107,4.1055,4.1055,4.1055,4.1046,4.1046,4.1046,4.1046,4.0969,4.0959,4.1055,4.1055,4.1002,4.0885,4.0885,4.1074,4.1388,4.1413,4.1413,4.1388,0.0,0.0,0.0,0.0,0.0,0.0,0.0,0.0,0.0,0.0,0.0,3.8886,3.9185,3.9373,3.9373,3.9364,3.9373,3.9364,3.9373,3.9104,3.8434,3.899,3.9508,3.9837,4.0197,4.0531,4.0855,4.1218,4.1413,4.1428,4.1697,4.1892,4.1922,4.2157,4.2476,4.2791,4.3115,4.3429,4.3793,4.4087,4.4396,4.4725,4.4785,4.4915,4.517,4.4725,4.4296,4.4296,4.4531,4.4885,4.521,4.5289,4.5304,4.5289,4.5289,4.5289,4.5289,4.5289,4.5289,4.5289,4.5289,4.5289,4.5289,4.5289,4.5292,4.5293,4.5288,4.5141,4.4413,4.4282,4.4371,4.3305,4.3305,4.3305,4.3005,4.2551,4.2527,4.2145,4.157,0.0,0.0,0.0,4.1299,4.128,4.1289,4.128,4.1265,4.1265,4.127,4.1255,4.1232,4.1175,4.1123,4.1075,4.0984,4.0896,4.0881,4.0881,4.0871,4.0871,4.0857,4.0886,4.0852,4.0709,4.068,4.0808,4.0837,4.1086,4.1478,4.1504,4.158,4.1738,4.1738,4.1738,4.1747,4.1628,4.1568,4.1568,4.1448,4.1149,4.0606,4.0576,4.0322,3.9804,4.0277,4.0567,4.0616,4.1094,4.1413,4.1413,4.1413,4.1413,4.1413,4.1517,4.1064,3.9849,4.0765,4.1413,4.1413,4.1493,4.1577,4.1583,4.1678,4.1792,4.1888,4.2416,4.279,4.2925,4.3329,4.3863,4.4366,4.4426,4.4676,4.5125,4.52,4.5364,4.5439,4.5484,4.5559,4.5599,4.5424,4.5219,4.5394,4.5443,4.5529,4.5648,4.5723,4.5648,4.5753,4.5708,4.5648,4.5663,4.5617,4.5586,4.5669,4.5554,4.5557,4.5538,4.5591,4.5539,4.5536,4.5532,4.5534,4.5528,4.5518,4.5503,4.3305,4.3305,4.3305,4.3255,4.314,4.2981,4.2657,4.2208,4.1468,4.1157,4.1133,4.0907,4.0805,4.0805,4.0796,4.0811,4.0796,4.0786,4.0709,4.0578,4.1101,4.124,4.1046,4.1559,4.1733,4.1573,4.1563,4.1563,4.1553,4.1548,4.1563,4.1553,4.1532,4.1414,4.1247,4.1435,4.1672,4.1913,4.1903,4.2281,4.3015,4.303,4.303,4.301,4.2516,4.2261,4.2261,4.1718,4.1349,4.1268,4.1268,4.1209,4.1134,4.1194,4.1268,4.1278,4.1358,4.1413,4.1428,4.1413,4.1413,4.1433,4.1937,4.1937,4.1224,4.1289,4.1413,4.1433,4.1952,4.2261,4.2291,4.2731,4.325,4.3753,4.3963,4.4242,4.4701,4.487,4.499,4.514,4.5155,4.5185,4.5389,4.5379,4.5618,4.6027,4.6176,4.6341,4.6606,4.6022,4.5623,4.6012,4.6176,4.6416,4.673,4.6999,4.6905,4.701,4.6909,4.6843,4.6802,4.6615,4.6496,4.6626,4.6359,4.6306,4.631,4.6413,4.6297,4.6256,4.6236,4.6287,4.6252,4.6266,4.6285,4.4013,4.4003,4.4003,4.4003,4.3983,4.3637,4.3292,4.2947,4.2309,4.1863,4.16,4.146,4.141,4.1406,4.1396,4.141,4.1396,4.129,4.1179,4.1117,4.1167,4.1121,4.1007,4.1045,4.1029,4.0947,4.0834,4.0914,4.1188,4.1216,4.1374,4.1676,4.1679,4.1555,4.134,4.1712,4.2017,4.2213,4.2222,4.2509,4.3125,4.3135,4.32,4.3305,4.302,4.2895,4.288,4.2596,4.2292,4.1942,4.1952,4.1772,4.1433,4.1733,4.1952,4.1952,4.2247,4.2432,4.2427,4.2422,4.2447,4.2437,4.2701,4.2925,4.297,4.2631,4.2437,4.2452,4.3045,4.3419,4.3444,4.4018,4.4516,4.4821,4.484,4.4965,4.5225,4.5289,4.5439,4.5758,4.5847,4.5982,4.6352,4.6381,4.6471,4.6805,4.685,4.698,4.7264,4.68,4.6456,4.6775,4.6839,4.6965,4.7238,4.7298,4.7298,4.7298,4.7175,4.711,4.7066,4.6774,4.6558,4.6499,4.6321,4.6188,4.6143,4.6165,4.6174,4.6178,4.6153,4.616,4.6154,4.616,4.623,4.4424,4.4449,4.4449,4.4339,4.4168,4.3737,4.3352,4.2978,4.2598,4.2197,4.1835,4.1992,4.2112,4.2122,4.2112,4.2056,4.1996,4.1848,4.1714,4.1572,4.1225,4.101,4.0879,4.053,4.0311,4.0189,4.004,4.0172,4.0543,4.0572,4.0807,4.122,4.1229,4.11,4.0924,4.1411,4.1802,4.1989,4.2159,4.2559,4.3172,4.3254,4.3411,4.3668,4.3678,4.3723,4.3738,4.3748,4.3454,4.287,4.2825,4.2536,4.1893,4.2307,4.2601,4.2646,4.3035,4.3374,4.3509,4.3683,4.3758,4.3733,4.3758,4.3967,4.4411,4.4057,4.3738,4.3818,4.4207,4.4516,4.4556,4.4945,4.5349,4.5484,4.5529,4.5633,4.5723,4.5764,4.5933,4.6446,4.6525,4.6745,4.7149,4.7298,4.7264,4.7249,4.7298,4.7298,4.7298,4.7298,4.7298,4.7298,4.7298,4.7236,4.7229,4.7182,4.7175,4.7164,4.6909,4.6752,4.6642,4.631,4.5938,4.5811,4.5551,4.5324,4.5313,4.5278,4.5253,4.5218,4.5243,4.5345,4.5333,4.5273,4.5588,4.3986,4.3957,4.3993,4.3552,4.3005,4.2685,4.2202,4.1597,4.1466,4.1324,4.1226,4.2043,4.2409,4.246,4.2392,4.2256,4.2055,4.2066,4.1751,4.1324,4.1288,4.1047,4.0636,4.0572,4.0318,3.9891,3.9794,3.9807,3.9938,3.9941,3.9944,3.9947,3.9797,3.9778,3.9765,4.0242,4.0581,4.0786,4.143,4.2435,4.3736,4.3989,4.4333,4.4839,4.4824,4.4918,4.5004,4.511,4.4785,4.4202,4.4097,4.3803,4.3225,4.3195,4.3225,4.324,4.33,4.3564,4.4172,4.4781,4.5065,4.511,4.505,4.508,4.52,4.514,4.511,4.514,4.517,4.52,4.5214,4.533,4.5648,4.6151,4.6211,4.6435,4.6894,4.7115,4.7149,4.7194,4.7134,4.7234,4.7268,4.7298,4.7298,4.7298,4.7298,4.7287,4.7251,4.7266,4.7244,4.7266,4.7287,4.7164,4.7008,4.6953,4.6844,4.6679,4.6436,4.6243,4.6028,4.56,4.5121,4.4756,4.4466,4.4155,4.3932,4.3814,4.3847,4.4058,4.4151,4.4246,4.4169,4.4165,4.4551,4.4197,4.4172,4.4018,4.3513,4.2815,4.2508,4.2075,4.1538,4.1381,4.1247,4.1212,4.1609,4.1732,4.1599,4.1446,4.1319,4.1192,4.0889,4.0631,4.0407,4.028,4.0117,3.9952,3.9784,3.9593,3.9401,3.927,3.9366,3.9703,4.004,4.0221,4.0221,4.011,4.0085,4.0136,4.0469,4.0702,4.0786,4.1539,4.229,4.2963,4.3511,4.3975,4.4336,4.4623,4.4788,4.4883,4.4883,4.4764,4.4497,4.4632,4.4585,4.4322,4.4415,4.4486,4.4496,4.4476,4.4606,4.4875,4.5155,4.5289,4.5289,4.5289,4.5454,4.5847,4.5892,4.6027,4.6367,4.6117,4.5882,4.5922,4.6236,4.6595,4.685,4.6894,4.701,4.7264,4.7298,4.7298,4.7298,4.7298,4.7298,4.7298,4.7298,4.7298,4.7298,4.7298,4.7244,4.711,4.7062,4.6997,4.6891,4.6771,4.6756,4.6785,4.6646,4.6414,4.6132,4.5806,4.5498,4.5115,4.4634,4.4097,4.3693,4.3406,4.3082,4.2721,4.2689,4.2728,4.3055,4.3735,4.411,4.4311,4.428,4.4537,4.3952,4.383,4.3507,4.3,4.238,4.2099,4.1756,4.1385,4.116,4.1084,4.1059,4.1084,4.0999,4.088,4.0797,4.0761,4.0642,4.0281,4.0064,3.9992,3.9848,3.9726,3.9653,3.9469,3.9321,3.9248,3.9139,3.9268,3.9651,4.0033,4.0275,4.0275,4.0275,4.0287,4.03,4.0542,4.0694,4.0731,4.1422,4.1867,4.2162,4.283,4.3487,4.4067,4.452,4.4806,4.492,4.4935,4.4847,4.4696,4.491,4.4959,4.4803,4.5002,4.5113,4.5132,4.5281,4.5406,4.5484,4.5659,4.5733,4.5733,4.5733,4.5926,4.6275,4.6431,4.6667,4.7036,4.6822,4.657,4.6629,4.7014,4.7294,4.7298,4.7298,4.7298,4.7298,4.7298,4.7298,4.7298,4.7298,4.7298,4.7287,4.7229,4.716,4.7175,4.7135,4.7131,4.6989,4.696,4.6915,4.6797,4.6596,4.6444,4.6516,4.6272,4.5919,4.5548,4.517,4.484,4.4367,4.3941,4.3445,4.3273,4.2761,4.2448,4.2331,4.2189,4.2199,4.27,4.3251,4.3713,4.373,4.3911,4.3877,4.2825,4.2544,4.2017,4.1658,4.1358,4.1084,4.082,4.058,4.0542,4.0542,4.0542,4.0542,4.0516,4.0553,4.0914,4.1092,4.088,4.0765,4.0589,4.0387,4.0375,4.03,4.0084,4.0058,3.9905,3.965,3.9599,3.9624,3.9712,3.9736,3.9723,3.9762,3.9787,3.9762,3.9813,4.0045,4.0147,4.0224,4.0694,4.1097,4.141,4.2057,4.3094,4.4304,4.4889,4.5186,4.5591,4.5709,4.5437,4.4897,4.504,4.4908,4.4381,4.4532,4.4729,4.4748,4.5253,4.57,4.5982,4.6405,4.6727,4.6746,4.6642,4.6703,4.652,4.6656,4.6784,4.6894,4.7035,4.7135,4.7135,4.7191,4.7298,4.7298,4.7298,4.7298,4.7298,4.7298,4.7298,4.7298,4.7354,4.7452,4.7377,4.7088,4.7076,4.7025,4.6834,4.6782,4.6974,4.706,4.7064,4.7008,4.6823,4.6552,4.5798,4.5701,4.5447,4.5005,4.471,4.4442,4.421,4.3895,4.3369,4.2904,4.2567,4.2307,4.216,4.2146,4.2239,4.2472,4.2549,4.2816,4.3419,4.2642,4.2717,4.1707,4.1459,4.1272,4.0946,4.0542,4.0427,4.0236,3.9993,3.9993,3.998,3.998,3.998,3.998,3.998,4.0185,4.0326,4.0364,4.0211,4.0096,3.998,3.998,3.9929,3.9839,3.9852,3.9788,3.9723,3.971,3.971,3.971,3.971,3.971,3.971,3.971,3.971,3.9723,3.98,3.9839,3.9878,4.0211,4.044,4.058,4.1134,4.1805,4.2539,4.375,4.4471,4.4631,4.4799,4.4808,4.4595,4.4758,4.4848,4.4827,4.5166,4.5361,4.539,4.5595,4.5851,4.609,4.6326,4.6521,4.6668,4.6546,4.6399,4.638,4.6414,4.6454,4.6499,4.669,4.6837,4.6913,4.7099,4.7298,4.7298,4.7298,4.7307,4.7298,4.7298,4.7298,4.7369,4.7649,4.8028,4.8168,4.8242,4.8047,4.7735,4.761,4.7351,4.7,4.6842,4.6669,4.6282,4.59,4.5395,4.4728,4.5157,4.5253,4.4626,4.416,4.3719,4.3412,4.3245,4.2787,4.2536,4.2257,4.2175,4.2026,4.2201,4.2306,4.2494,4.2544,4.2803,4.3367,4.2919,4.2993,4.082,4.0643,4.0542,4.03,3.9993,3.9955,3.9865,3.971,3.971,3.971,3.971,3.971,3.971,3.971,3.971,3.98,3.9942,3.9787,3.971,3.971,3.971,3.971,3.971,3.971,3.971,3.971,3.971,3.971,3.971,3.971,3.971,3.971,3.971,3.971,3.971,3.971,3.971,3.9736,3.989,4.0006,4.0134,4.0466,4.0782,4.1172,4.2321,4.318,4.3507,4.377,4.3917,4.3938,4.4113,4.4378,4.4741,4.5038,4.5256,4.5341,4.5338,4.5464,4.5668,4.5727,4.5795,4.5956,4.5814,4.569,4.5637,4.5656,4.5702,4.5784,4.6046,4.628,4.6544,4.6826,4.7056,4.7192,4.7236,4.7336,4.7529,4.7562,4.7611,4.7759,4.8075,4.8431,4.8583,4.8527,4.8187,4.7785,4.7656,4.7322,4.684,4.6553,4.6259,4.5773,4.5465,4.5007,4.4512,4.4721,4.4687,4.4106,4.3887,4.3335,4.2992,4.2752,4.2524,4.2213,4.2049,4.1993,4.2077,4.2249,4.2463,4.2697,4.2834,4.3012,4.3319,4.3469,4.3349,4.0134,4.0083,3.9813,3.9762,3.9749,3.9749,3.971,3.971,3.971,3.971,3.971,3.971,3.971,3.971,3.971,3.9723,3.9723,3.9723,3.971,3.971,3.971,3.971,3.971,3.971,3.971,3.971,3.971,3.971,3.971,3.971,3.971,3.971,3.971,3.971,3.971,3.971,3.971,3.971,3.9749,3.9839,4.0045,4.0121,4.0249,4.0491,4.0896,4.1509,4.2407,4.2728,4.2899,4.2898,4.3063,4.3433,4.3851,4.4028,4.4122,4.4338,4.4399,4.449,4.466,4.4694,4.4706,4.4775,4.4718,4.4625,4.4523,4.459,4.4723,4.4877,4.5241,4.5697,4.6209,4.6358,4.659,4.7027,4.713,4.7338,4.7787,4.8033,4.8181,4.836,4.8488,4.8372,4.8155,4.8123,4.7816,4.7276,4.6975,4.673,4.6365,4.6183,4.6023,4.5659,4.5209,4.4718,4.4459,4.4262,4.3913,4.3599,4.3549,4.3297,4.3154,4.2951,4.2858,4.2608,4.2597,4.2539,4.2528,4.27,4.275,4.2928,4.3045,4.3071,4.3166,4.3249,4.3179,3.9826,3.9813,3.9723,3.971,3.971,3.971,3.971,3.971,3.971,3.971,3.971,3.971,3.971,3.971,3.971,3.971,3.971,3.971,3.971,3.971,3.971,3.971,3.971,3.971,3.971,3.971,3.971,3.971,3.971,3.971,3.971,3.971,3.971,3.971,3.971,3.971,3.971,3.971,3.971,3.9749,3.9826,3.9826,3.9878,3.9955,4.0211,4.0529,4.0845,4.1459,4.1769,4.182,4.1855,4.2138,4.264,4.3041,4.3257,4.3343,4.3369,4.3449,4.3624,4.3685,4.3743,4.3849,4.3766,4.3648,4.359,4.364,4.3867,4.4221,4.462,4.5049,4.5504,4.5633,4.6071,4.7109,4.7099,4.7016,4.73,4.7481,4.7888,4.849,4.8637,4.8633,4.8617,4.8472,4.7984,4.7228,4.7005,4.675,4.601,4.5605,4.5276,4.4817,4.4572,4.4382,4.4012,4.3765,4.3571,4.3379,4.3337,4.3295,4.3184,4.3115,4.303,4.3,4.3,4.3,4.3,4.3,4.3,4.3,4.3028,4.3028,4.3014,4.3,4.3,3.971,3.971,3.971,3.971,3.971,3.971,3.971,3.971,3.971,3.971,3.971,3.971,3.971,3.971,3.971,3.971,3.971,3.971,3.971,3.971,3.971,3.971,3.971,3.971,3.971,3.971,3.971,3.971,3.971,3.971,3.971,3.971,3.971,3.971,3.971,3.971,3.971,3.971,3.971,3.971,3.971,3.971,3.971,3.9736,3.9865,3.9955,3.9981,4.0453,4.0807,4.0959,4.1009,4.1235,4.1634,4.1968,4.2202,4.2301,4.2325,4.236,4.2493,4.2481,4.2554,4.2699,4.2675,4.2713,4.2773,4.2853,4.3184,4.3582,4.3891,4.4283,4.4761,4.4898,4.5409,4.6346,4.6486,4.6623,4.6824,4.7217,4.7645,4.8172,4.8293,4.8324,4.8305,4.8128,4.7734,4.6911,4.6665,4.6324,4.5422,4.4925,4.4518,4.4163,4.3944,4.3683,4.3352,4.324,4.3197,4.3162,4.3146,4.3127,4.3071,4.3044,4.3,4.3,4.3,4.3,4.3,4.3,4.3,4.3,4.3094,4.3,4.3,4.3,4.3,3.9798,3.9785,3.981,3.986,3.9873,3.9873,3.9923,3.9848,3.986,3.991,3.9873,3.9961,3.9885,3.9835,3.9973,3.9961,3.9836,3.9923,3.9898,3.9835,3.9798,3.9798,3.971,3.971,3.971,3.971,3.971,3.971,3.971,3.971,3.971,3.971,3.971,3.971,3.971,3.971,3.971,3.971,3.971,3.971,3.971,3.971,3.971,3.971,3.9736,3.9723,3.9762,3.9839,4.0019,4.0389,4.0504,4.0643,4.082,4.0883,4.1109,4.1309,4.1272,4.1309,4.1297,4.1384,4.1384,4.1421,4.1677,4.1785,4.2065,4.2363,4.2678,4.3009,4.3231,4.3585,4.4085,4.4256,4.456,4.4996,4.5519,4.6024,4.6631,4.7098,4.7285,4.7469,4.7579,4.749,4.7222,4.6963,4.6441,4.5821,4.5555,4.514,4.4586,4.4191,4.3958,4.3709,4.3461,4.335,4.3129,4.3101,4.3098,4.3136,4.3146,4.322,4.3166,4.3152,4.3189,4.3164,4.3226,4.3164,4.3214,4.3377,4.3389,4.3467,4.3387,4.312,4.3164,4.3353,4.3391,4.0876,4.0888,4.0888,4.0876,4.0862,4.0888,4.0863,4.0876,4.0863,4.08,4.0863,4.0876,4.08,4.0863,4.0851,4.0888,4.0813,4.0826,4.0625,4.0337,4.03,4.0049,3.9772,3.971,3.971,3.971,3.971,3.971,3.971,3.971,3.971,3.971,3.971,3.971,3.971,3.971,3.971,3.971,3.971,3.971,3.971,3.971,3.971,3.971,3.971,3.971,3.971,3.971,3.9749,3.989,4.0109,4.0224,4.0326,4.0478,4.0618,4.0681,4.0707,4.0719,4.0719,4.0732,4.0732,4.0745,4.1195,4.1441,4.1505,4.1943,4.242,4.2831,4.3052,4.3325,4.383,4.3945,4.4074,4.4221,4.4674,4.5143,4.5489,4.5675,4.5927,4.6323,4.6441,4.631,4.6112,4.5928,4.5569,4.4897,4.4613,4.4463,4.3903,4.3669,4.3558,4.3348,4.314,4.3098,4.303,4.3028,4.3039,4.3102,4.324,4.3493,4.344,4.3413,4.3526,4.3601,4.3865,4.3876,4.4052,4.424,4.4154,4.3934,4.399,4.3907,4.4075,4.4235,4.4157,4.1289,4.1289,4.1289,4.1289,4.1289,4.1289,4.1289,4.1289,4.1289,4.1289,4.1289,4.1289,4.1289,4.1289,4.1289,4.1289,4.1289,4.1289,4.1127,4.0864,4.06,4.0212,3.9823,3.971,3.971,3.971,3.971,3.971,3.971,3.971,3.971,3.971,3.971,3.971,3.971,3.971,3.971,3.971,3.971,3.971,3.971,3.971,3.971,3.971,3.971,3.971,3.971,3.971,3.971,3.9736,3.9839,3.9929,3.9942,4.0057,4.016,4.016,4.016,4.0172,4.0211,4.0363,4.0503,4.063,4.1076,4.1483,4.1724,4.2068,4.253,4.2904,4.2993,4.3183,4.3426,4.3514,4.3528,4.357,4.3792,4.4163,4.4559,4.4722,4.4911,4.5194,4.5274,4.5247,4.5059,4.4978,4.4586,4.4123,4.3944,4.3697,4.3365,4.3293,4.3351,4.3336,4.339,4.3492,4.3653,4.3689,4.3741,4.3729,4.3766,4.3942,4.4003,4.3966,4.4001,4.4202,4.4439,4.4627,4.4727,4.4717,4.449,4.4391,4.4569,4.4642,4.468,4.4834,4.4799,4.1477,4.1464,4.1464,4.1464,4.1528,4.1503,4.1603,4.1516,4.1591,4.1566,4.1578,4.1515,4.1641,4.1464,4.1691,4.1541,4.1541,4.1654,4.1516,4.1277,4.0901,4.0374,3.9923,3.9735,3.971,3.971,3.971,3.971,3.971,3.971,3.971,3.971,3.971,3.971,3.971,3.971,3.971,3.971,3.971,3.971,3.971,3.971,3.971,3.971,3.971,3.971,3.971,3.971,3.971,3.971,3.971,3.9723,3.9723,3.971,3.9723,3.9812,3.9875,3.9938,3.9924,4.0391,4.0627,4.0756,4.1344,4.185,4.2121,4.2418,4.2737,4.2975,4.3002,4.3034,4.3059,4.303,4.3084,4.3126,4.3085,4.3307,4.368,4.4024,4.4176,4.4217,4.4218,4.4217,4.4212,4.4087,4.3877,4.4224,4.3994,4.3893,4.371,4.3705,4.3789,4.3869,4.3966,4.4079,4.4278,4.4464,4.4529,4.4568,4.4568,4.4681,4.483,4.4805,4.4717,4.479,4.5093,4.5156,4.5091,4.4995,4.4872,4.4974,4.5221,4.5058,4.4906,4.5164,4.5253,4.2636,4.2636,4.2636,4.2635,4.2635,4.2636,4.2624,4.2611,4.2611,4.2534,4.2597,4.2597,4.2598,4.2611,4.2534,4.2635,4.2534,4.2509,4.2449,4.1933,4.1403,4.0851,4.0337,3.996,3.9735,3.9723,3.971,3.971,3.971,3.971,3.971,3.971,3.971,3.971,3.971,3.971,3.971,3.971,3.971,3.971,3.971,3.971,3.971,3.971,3.971,3.971,3.971,3.971,3.971,3.971,3.9722,3.976,3.976,3.9747,3.9772,3.9898,4.0149,4.035,4.0437,4.0814,4.1139,4.1203,4.1711,4.2115,4.2187,4.2642,4.2895,4.3,4.3,4.3,4.3,4.3,4.3,4.3,4.3014,4.3044,4.3169,4.3279,4.3433,4.3559,4.3652,4.378,4.4214,4.4263,4.4203,4.4274,4.4303,4.4299,4.4208,4.4104,4.4254,4.4365,4.448,4.4606,4.4842,4.5056,4.5144,4.5234,4.5271,4.5321,4.547,4.5482,4.5332,4.5457,4.5733,4.5708,4.557,4.5733,4.5711,4.5824,4.5836,4.5692,4.562,4.5744,4.5704,4.3,4.3,4.3,4.3,4.3,4.3,4.3,4.3,4.3,4.3,4.3,4.3,4.3,4.3,4.3,4.2988,4.3,4.3002,4.2851,4.2474,4.2008,4.1581,4.1166,4.045,3.9986,3.976,3.971,3.971,3.971,3.971,3.971,3.971,3.971,3.971,3.971,3.971,3.971,3.971,3.971,3.971,3.971,3.971,3.971,3.971,3.971,3.971,3.971,3.971,3.9848,3.9998,4.0061,4.0073,4.0086,4.0073,4.0187,4.0475,4.0662,4.0876,4.1001,4.1392,4.1718,4.1731,4.2248,4.2488,4.2601,4.2864,4.2963,4.3,4.3,4.3,4.3,4.3,4.3,4.3,4.3,4.3,4.3,4.3,4.303,4.3233,4.3465,4.3704,4.397,4.4341,4.4486,4.4549,4.4522,4.4532,4.447,4.4443,4.4719,4.4869,4.4982,4.5146,4.5409,4.5583,4.5696,4.5771,4.5834,4.5899,4.5999,4.5962,4.5889,4.5999,4.606,4.6135,4.6072,4.6286,4.6298,4.6173,4.6122,4.6248,4.6243,4.6062,4.6035,4.3,4.3,4.3,4.3,4.3,4.3,4.3,4.3,4.3,4.3,4.3,4.3,4.3,4.3,4.3,4.3,4.3,4.3,4.2939,4.2851,4.2512,4.2198,4.1871,4.1217,4.0475,3.9898,3.9735,3.971,3.971,3.971,3.971,3.971,3.971,3.971,3.971,3.971,3.971,3.971,3.971,3.971,3.971,3.971,3.971,3.971,3.971,3.9785,3.986,3.991,4.0086,4.0575,4.0638,4.0688,4.0738,4.0676,4.0789,4.1251,4.1327,4.1441,4.1554,4.1958,4.2311,4.2363,4.2688,4.2937,4.2963,4.2964,4.2988,4.3,4.3,4.3,4.3,4.3,4.3,4.3,4.3,4.3,4.3013,4.3038,4.319,4.324,4.3547,4.3852,4.4263,4.4655,4.4733,4.4815,4.4815,4.4815,4.4805,4.4893,4.5234,4.5434,4.556,4.561,4.5821,4.5871,4.6022,4.6072,4.6198,4.6235,4.6301,4.6213,4.6125,4.6185,4.6261,4.6298,4.6298,4.6298,4.6298,4.6298,4.6298,4.6298,4.6298,4.6298,4.6298,4.3,4.3,4.3,4.3,4.3,4.3,4.3,4.3,4.3,4.3,4.3,4.3,4.3,4.3,4.3,4.3,4.3,4.3,4.3,4.3,4.2812,4.265,4.2237,4.1896,4.128,4.045,4.0023,3.9835,3.9723,3.971,3.971,3.971,3.971,3.971,3.971,3.971,3.971,3.971,3.971,3.971,3.971,3.976,3.9785,3.9798,3.9848,4.0049,4.0287,4.0387,4.06,4.1088,4.1163,4.1429,4.1657,4.1455,4.134,4.1478,4.1831,4.2047,4.2109,4.2498,4.2813,4.2901,4.2937,4.2988,4.3,4.3,4.3,4.3,4.3,4.3,4.3,4.3,4.3,4.3,4.3,4.3,4.3077,4.3327,4.3601,4.3677,4.3865,4.4129,4.4644,4.5121,4.5372,4.552,4.5583,4.562,4.5633,4.5733,4.5934,4.606,4.6163,4.6175,4.6223,4.6185,4.6223,4.6198,4.6261,4.6261,4.6298,4.6298,4.6298,4.6298,4.6298,4.6298,4.6298,4.6298,4.6298,4.6298,4.6298,4.6298,4.6298,4.6298,4.6298,4.3,4.3,4.3,4.3,4.3,4.3,4.3,4.3,4.3,4.3,4.3,4.3,4.3,4.3,4.3,4.3,4.3,4.3,4.3,4.3,4.2975,4.2887,4.2549,4.2336,4.1921,4.1329,4.0827,4.0187,3.976,3.971,3.976,3.971,3.971,3.971,3.971,3.971,3.9722,3.9722,3.9735,3.9722,3.9785,3.9936,4.0098,4.0174,4.0374,4.0662,4.0826,4.0913,4.119,4.1657,4.1782,4.2097,4.2336,4.2372,4.2144,4.2195,4.2423,4.2614,4.2612,4.2889,4.2963,4.2988,4.3,4.3,4.3,4.3,4.3,4.3,4.3,4.3,4.3,4.3,4.3,4.3,4.3,4.3,4.3113,4.3501,4.3853,4.4192,4.4606,4.4907,4.5208,4.5635,4.5987,4.6173,4.6273,4.6298,4.6298,4.6298,4.6298,4.6298,4.6301,4.6298,4.6298,4.6298,4.6298,4.6298,4.6298,4.6298,4.6298,4.6298,4.6298,4.6298,4.6298,4.6298,4.6298,4.6298,4.6298,4.6298,4.6298,4.6298,4.6298,4.6298,4.6298,4.3,4.3,4.3,4.3,4.3,4.3,4.3,4.3,4.3,4.3,4.3,4.3,4.3,4.3,4.3,4.3,4.3,4.3,4.3,4.3,4.3,4.2975,4.2862,4.2626,4.2262,4.1972,4.1669,4.0964,4.0337,4.0162,4.0074,4.0162,4.0074,4.0036,4.0111,4.0199,4.0036,4.0023,4.0023,4.0023,4.0136,4.0412,4.065,4.0662,4.1076,4.1301,4.1466,4.1491,4.1794,4.2185,4.24,4.2551,4.2914,4.2988,4.2988,4.3,4.3,4.3,4.3002,4.2989,4.3,4.3,4.3,4.3,4.3,4.3,4.3,4.3,4.3,4.3,4.3,4.3,4.3,4.3,4.3,4.3038,4.3201,4.3551,4.414,4.4616,4.5246,4.5585,4.5773,4.5886,4.616,4.6198,4.6298,4.6298,4.6298,4.6298,4.6298,4.6298,4.6298,4.6298,4.6298,4.6298,4.6298,4.6298,4.6298,4.6298,4.6298,4.6298,4.6298,4.6298,4.6298,4.6298,4.6298,4.6298,4.6298,4.6298,4.6298,4.6298,4.6298,4.6298,4.6298,4.3,4.3,4.3,4.3,4.3,4.3,4.3,4.3,4.3,4.3,4.3,4.3,4.3,4.3,4.3,4.3,4.3,4.3,4.3,4.3,4.3,4.3,4.3,4.2964,4.2601,4.2362,4.2186,4.1744,4.1216,4.1051,4.1026,4.0989,4.0926,4.1051,4.0888,4.0863,4.1127,4.1076,4.1064,4.1038,4.1038,4.1139,4.1202,4.124,4.1378,4.1628,4.2021,4.211,4.2336,4.2749,4.2876,4.2939,4.3,4.3,4.3,4.3,4.3,4.3,4.3,4.3,4.3,4.3,4.3,4.3,4.3,4.3,4.3,4.3,4.3,4.3,4.3,4.3,4.3,4.3,4.3,4.3025,4.3164,4.3813,4.4403,4.493,4.551,4.5884,4.616,4.6223,4.6286,4.6298,4.6298,4.6298,4.6298,4.6298,4.6298,4.6298,4.6298,4.6298,4.6298,4.6298,4.6298,4.6298,4.6298,4.6298,4.6298,4.6298,4.6298,4.6298,4.6298,4.6298,4.6298,4.6298,4.6298,4.6298,4.6298,4.6298,4.6298,4.6298,4.6298,4.3,4.3,4.3,4.3,4.3,4.3,4.3,4.3,4.3,4.3,4.3,4.3,4.3,4.3,4.3,4.3,4.3,4.3,4.3,4.3,4.3,4.3,4.3,4.3002,4.2827,4.27,4.2625,4.2573,4.2145,4.1603,4.1289,4.1339,4.1314,4.1239,4.1414,4.1314,4.1276,4.1264,4.1276,4.1276,4.1378,4.1604,4.1807,4.182,4.207,4.236,4.2537,4.2663,4.2738,4.2988,4.3,4.3,4.3,4.3,4.3,4.3,4.3,4.3,4.3,4.3,4.3,4.3,4.3,4.3,4.3,4.3,4.3,4.3,4.3,4.3,4.3,4.3,4.3,4.3,4.3,4.3239,4.3478,4.4116,4.4729,4.5244,4.5708,4.6047,4.6298,4.6298,4.6298,4.6298,4.6298,4.6298,4.6298,4.6298,4.6298,4.6298,4.6298,4.6298,4.6298,4.6298,4.6298,4.6298,4.6298,4.6298,4.6298,4.6298,4.6298,4.6298,4.6298,4.6298,4.6298,4.6298,4.6298,4.6298,4.6298,4.6298,4.6298,4.6298,4.6298,4.3,4.3,4.3,4.3,4.3,4.3,4.3,4.3,4.3,4.3,4.3,4.3,4.3,4.3,4.3,4.3,4.3,4.3,4.3,4.3,4.3,4.3,4.3,4.3002,4.3002,4.3,4.2912,4.2887,4.2686,4.2283,4.1842,4.1716,4.1879,4.1817,4.1766,4.1843,4.188,4.1868,4.1855,4.1843,4.188,4.221,4.2362,4.2526,4.275,4.3,4.3,4.2975,4.2975,4.2988,4.3,4.3,4.3,4.3,4.3,4.3,4.3,4.3,4.3,4.3,4.3,4.3,4.3,4.3,4.3,4.3,4.3,4.3,4.3,4.3,4.3,4.3,4.3,4.3,4.3,4.3364,4.3752,4.429,4.4842,4.5359,4.5786,4.611,4.6298,4.6298,4.6298,4.6298,4.6298,4.6298,4.6298,4.6298,4.6298,4.6298,4.6298,4.6298,4.6298,4.6298,4.6298,4.6298,4.6298,4.6298,4.6298,4.6298,4.6298,4.6298,4.6298,4.6298,4.6298,4.6298,4.6298,4.6298,4.6298,4.6298,4.6298,4.6298,4.6298,4.3,4.3,4.3,4.3,4.3,4.3,4.3,4.3,4.3,4.3,4.3,4.3,4.3,4.3,4.3,4.3,4.3,4.3,4.3,4.3,4.3,4.3,4.3,4.3,4.3,4.3,4.3,4.3,4.2975,4.2824,4.2723,4.2862,4.2585,4.276,4.2735,4.2572,4.2624,4.261,4.2636,4.2686,4.2699,4.2824,4.2864,4.2889,4.295,4.3,4.3,4.3,4.3,4.3,4.3,4.3,4.3,4.3,4.3,4.3,4.3,4.3,4.3,4.3,4.3,4.3,4.3,4.3,4.3,4.3,4.3,4.3,4.3,4.3,4.3,4.3,4.3,4.3,4.3088,4.344,4.3827,4.429,4.4842,4.5422,4.5849,4.6185,4.6298,4.6298,4.6298,4.6298,4.6298,4.6298,4.6298,4.6298,4.6298,4.6298,4.6298,4.6298,4.6298,4.6298,4.6298,4.6298,4.6298,4.6298,4.6298,4.6298,4.6298,4.6298,4.6298,4.6298,4.6298,4.6298,4.6298,4.6298,4.6298,4.6298,4.6298,4.6298,4.6298,4.3,4.3,4.3,4.3,4.3,4.3,4.3,4.3,4.3,4.3,4.3,4.3,4.3,4.3,4.3,4.3,4.3,4.3,4.3,4.3,4.3,4.3,4.3,4.3,4.3,4.3,4.3,4.3,4.3,4.3,4.3,4.2988,4.3,4.2988,4.2988,4.3,4.3,4.3,4.3,4.3,4.3,4.3,4.3,4.3,4.3,4.3,4.3,4.3,4.3,4.3,4.3,4.3,4.3,4.3,4.3,4.3,4.3,4.3,4.3,4.3,4.3,4.3,4.3,4.3,4.3,4.3,4.3,4.3,4.3,4.3,4.3,4.3,4.3,4.3,4.3164,4.3478,4.3953,4.4416,4.5043,4.5711,4.5999,4.6261,4.6298,4.6298,4.6298,4.6298,4.6298,4.6298,4.6298,4.6298,4.6298,4.6298,4.6298,4.6298,4.6298,4.6298,4.6298,4.6298,4.6298,4.6298,4.6298,4.6298,4.6298,4.6298,4.6298,4.6298,4.6298,4.6298,4.6298,4.6298,4.6298,4.6298,4.6298,4.6298,4.6298,4.2763,4.2776,4.2939,4.3,4.3,4.3,4.3,4.3,4.3,4.3,4.3,4.3,4.3,4.3,4.3,4.3,4.3,4.3,4.3,4.3,4.3,4.3,4.3,4.3,4.3,4.3,4.3,4.3,4.3,4.3,4.3,4.3,4.3,4.3,4.3,4.3,4.3,4.3,4.3,4.3,4.3,4.3,4.3,4.3,4.3,4.3,4.3,4.3,4.3,4.3,4.3,4.3,4.3,4.3,4.3,4.3,4.3,4.3,4.3,4.3,4.3,4.3,4.3,4.3,4.3,4.3,4.3,4.3,4.3,4.3,4.3,4.3,4.3,4.3,4.3,4.3302,4.4039,4.4614,4.5332,4.6012,4.6185,4.6298,4.6298,4.6298,4.6298,4.6298,4.6298,4.6298,4.6298,4.6298,4.6298,4.6298,4.6298,4.6298,4.6298,4.6298,4.6298,4.6298,4.6298,4.6298,4.6298,4.6298,4.6298,4.6298,4.6298,4.6298,4.6298,4.6298,4.6298,4.6298,4.6298,4.6298,4.6298,4.6298,4.6298,4.2211,4.2287,4.2738,4.2937,4.2887,4.3002,4.3,4.3,4.3,4.3,4.3,4.3,4.3,4.3,4.3,4.3,4.3,4.3,4.3,4.3,4.3,4.3,4.3,4.3,4.3,4.3,4.3,4.3,4.3,4.3,4.3,4.3,4.3,4.3,4.3,4.3,4.3,4.3,4.3,4.3,4.3,4.3,4.3,4.3,4.3,4.3,4.3,4.3,4.3,4.3,4.3,4.3,4.3,4.3,4.3,4.3,4.3,4.3,4.3,4.3,4.3,4.3,4.3,4.3,4.3,4.3,4.3,4.3,4.3,4.3,4.3,4.3,4.3,4.3,4.3,4.3364,4.4114,4.4614,4.5269,4.601,4.621,4.6298,4.6298,4.6298,4.6298,4.6298,4.6298,4.6298,4.6298,4.6298,4.6298,4.6298,4.6298,4.6298,4.6298,4.6298,4.6298,4.6298,4.6298,4.6298,4.6298,4.6298,4.6298,4.6298,4.6298,4.6298,4.6298,4.6298,4.6298,4.6298,4.6298,4.6298,4.6298,4.6298,4.6298,4.1604,4.1617,4.1805,4.188,4.1981,4.2699,4.2988,4.3,4.3,4.2988,4.3,4.3,4.3,4.3,4.2975,4.2963,4.3,4.3,4.3,4.3,4.3,4.3,4.3,4.3,4.3,4.3,4.3,4.3,4.3,4.3,4.3,4.3,4.3,4.3,4.3,4.3,4.3,4.3,4.3,4.3,4.3,4.3,4.3,4.3,4.3,4.3,4.3,4.3,4.3,4.3,4.3,4.3,4.3,4.3,4.3,4.3,4.3,4.3,4.3,4.3,4.3,4.3,4.3,4.3,4.3,4.3,4.3,4.3,4.3,4.3,4.3,4.3,4.3,4.3,4.3126,4.3614,4.419,4.4491,4.5006,4.5846,4.6298,4.6298,4.6298,4.6298,4.6298,4.6298,4.6298,4.6298,4.6298,4.6298,4.6298,4.6298,4.6298,4.6298,4.6298,4.6298,4.6298,4.6298,4.6298,4.6298,4.6298,4.6298,4.6298,4.6298,4.6298,4.6298,4.6298,4.6298,4.6298,4.6298,4.6298,4.6298,4.6298,4.6298,4.6298,4.1013,4.1065,4.1226,4.1289,4.1402,4.2106,4.2409,4.2409,4.2409,4.2409,4.2396,4.2396,4.2523,4.265,4.2725,4.2901,4.2963,4.3,4.3,4.3,4.3,4.3,4.3,4.3,4.3,4.3,4.3,4.3,4.3,4.3,4.3,4.3,4.3,4.3,4.3,4.3,4.3,4.3,4.3,4.3,4.3,4.3,4.3,4.3,4.3,4.3,4.3,4.3,4.3,4.3,4.3,4.3,4.3,4.3,4.3,4.3,4.3,4.3,4.3,4.3,4.3,4.3,4.3,4.3,4.3,4.3,4.3,4.3,4.3,4.3,4.3,4.3,4.3,4.3,4.3151,4.3627,4.4215,4.4541,4.4978,4.5809,4.6286,4.6298,4.6298,4.6298,4.6298,4.6298,4.6298,4.6298,4.6298,4.6298,4.6298,4.6298,4.6298,4.6298,4.6298,4.6298,4.6298,4.6298,4.6298,4.6298,4.6298,4.6298,4.6298,4.6298,4.6298,4.6298,4.6298,4.6298,4.6298,4.6298,4.6298,4.6298,4.6298,4.6298,4.6298,4.0475,4.0563,4.1039,4.1201,4.124,4.124,4.1276,4.1339,4.1352,4.1377,4.1352,4.1439,4.1717,4.211,4.2174,4.245,4.2813,4.2901,4.295,4.2988,4.3,4.3,4.3,4.3,4.3,4.3,4.3,4.3,4.3,4.3,4.3,4.3,4.3,4.3,4.3,4.3,4.3,4.3,4.3,4.3,4.3,4.3,4.3,4.3,4.3,4.3,4.3,4.3,4.3,4.3,4.3,4.3,4.3,4.3,4.3,4.3,4.3,4.3,4.3,4.3,4.3,4.3,4.3,4.3,4.3,4.3,4.3,4.3,4.3,4.3,4.3,4.3,4.3,4.3,4.3,4.3565,4.4267,4.4729,4.5181,4.5706,4.6148,4.6286,4.6298,4.6298,4.6298,4.6298,4.6298,4.6298,4.6298,4.6298,4.6298,4.6298,4.6298,4.6298,4.6298,4.6298,4.6298,4.6298,4.6298,4.6298,4.6298,4.6298,4.6298,4.6298,4.6298,4.6298,4.6298,4.6298,4.6298,4.6298,4.6298,4.6298,4.6298,4.6298,4.6298,3.9936,3.9948,4.0099,4.0149,4.0174,4.0161,4.0588,4.1252,4.1289,4.1289,4.1289,4.1289,4.134,4.1554,4.1567,4.1933,4.2261,4.25,4.2725,4.2851,4.3,4.3,4.3,4.3,4.3,4.3,4.3,4.3,4.3,4.3,4.3,4.3,4.3,4.3,4.3,4.3,4.3,4.3,4.3,4.3,4.3,4.3,4.3,4.3,4.3,4.3,4.3,4.3,4.3,4.3,4.3,4.3,4.3,4.3,4.3,4.3,4.3,4.3,4.3,4.3,4.3,4.3,4.3,4.3,4.3,4.3,4.3,4.3,4.3,4.3,4.3,4.3,4.3,4.3,4.3038,4.3402,4.4079,4.4579,4.5056,4.5708,4.6122,4.6286,4.6298,4.6298,4.6298,4.6298,4.6298,4.6298,4.6298,4.6298,4.6298,4.6298,4.6298,4.6298,4.6298,4.6298,4.6298,4.6298,4.6298,4.6298,4.6298,4.6298,4.6298,4.6298,4.6298,4.6298,4.6298,4.6298,4.6298,4.6298,4.6298,4.6298,4.6298,4.6298,4.6298,3.971,3.971,3.971,3.971,3.971,3.971,4.0124,4.0625,4.0662,4.0688,4.0662,4.0625,4.0789,4.0989,4.1052,4.143,4.2199,4.2274,4.2499,4.2912,4.3,4.3,4.3,4.3,4.3,4.3,4.3,4.3,4.3,4.3,4.3,4.3,4.3,4.3,4.3,4.3,4.3,4.3,4.3,4.3,4.3,4.3,4.3,4.3,4.3,4.3,4.3,4.3,4.3,4.3,4.3,4.3,4.3,4.3,4.3,4.3,4.3,4.3,4.3,4.3,4.3,4.3,4.3,4.3,4.3,4.3,4.3,4.3,4.3,4.3,4.3,4.3,4.3,4.3,4.3126,4.3251,4.3765,4.4303,4.4982,4.5698,4.6062,4.6235,4.6298,4.6298,4.6298,4.6298,4.6298,4.6298,4.6298,4.6298,4.6298,4.6298,4.6298,4.6298,4.6298,4.6298,4.6298,4.6298,4.6298,4.6298,4.6298,4.6298,4.6298,4.6298,4.6298,4.6298,4.6298,4.6298,4.6298,4.6298,4.6298,4.6298,4.6298,4.6298,4.6298,3.971,3.971,3.971,3.971,3.971,3.971,3.9748,3.971,3.981,3.9735,3.9772,3.9735,4.0048,4.04,4.0462,4.099,4.162,4.1909,4.2261,4.2925,4.3002,4.3002,4.3,4.3,4.3,4.3,4.3,4.3,4.3,4.3,4.3,4.3,4.3,4.3,4.3,4.3,4.3,4.3,4.3,4.3,4.3,4.3,4.3,4.3,4.3,4.3,4.3,4.3,4.3,4.3,4.3,4.3,4.3,4.3,4.3,4.3,4.3,4.3,4.3,4.3,4.3,4.3,4.3,4.3,4.3,4.3,4.3,4.3,4.3,4.3,4.3,4.3,4.3,4.3,4.3063,4.3189,4.3476,4.4141,4.493,4.5623,4.6087,4.6235,4.6298,4.6298,4.6298,4.6298,4.6298,4.6298,4.6298,4.6298,4.6298,4.6298,4.6298,4.6298,4.6298,4.6298,4.6298,4.6298,4.6298,4.6298,4.6298,4.6298,4.6298,4.6298,4.6298,4.6298,4.6298,4.6298,4.6298,4.6298,4.6298,4.6298,4.6298,4.6298,4.6298,3.971,3.971,3.971,3.971,3.971,3.971,3.971,3.971,3.971,3.971,3.971,3.9723,3.9773,3.9936,3.9961,4.0413,4.0902,4.153,4.1896,4.2449,4.2802,4.3002,4.3,4.3,4.3,4.3,4.3,4.3,4.3,4.3,4.3,4.3,4.3,4.3,4.3,4.3,4.3,4.3,4.3,4.3,4.3,4.3,4.3,4.3,4.3,4.3,4.3,4.3,4.3,4.3,4.3,4.3,4.3,4.3,4.3,4.3,4.3,4.3,4.3,4.3,4.3,4.3,4.3,4.3,4.3,4.3,4.3,4.3,4.3,4.3,4.3,4.3,4.3,4.3,4.3013,4.3126,4.3264,4.4066,4.4905,4.547,4.6024,4.6225,4.6273,4.6298,4.6298,4.6298,4.6298,4.6298,4.6298,4.6298,4.6298,4.6298,4.6298,4.6298,4.6298,4.6298,4.6298,4.6298,4.6298,4.6298,4.6298,4.6298,4.6298,4.6298,4.6298,4.6298,4.6298,4.6298,4.6298,4.6298,4.6298,4.6298,4.6298,4.6298,4.6298,3.971,3.971,3.971,3.971,3.971,3.971,3.971,3.971,3.971,3.971,3.971,3.971,3.971,3.971,3.971,3.9973,4.0499,4.1063,4.1681,4.2235,4.2688,4.2939,4.3,4.3,4.3,4.3,4.3,4.3,4.3,4.3,4.3,4.3,4.3,4.3,4.3,4.3,4.3,4.3,4.3,4.3,4.3,4.3,4.3,4.3,4.3,4.3,4.3,4.3,4.3,4.3,4.3,4.3,4.3,4.3,4.3,4.3,4.3,4.3,4.3,4.3,4.3,4.3,4.3,4.3,4.3,4.3,4.3,4.3,4.3,4.3,4.3,4.3,4.3,4.3,4.3065,4.3152,4.354,4.4165,4.4867,4.5447,4.5924,4.6248,4.6298,4.6298,4.6298,4.6298,4.6298,4.6298,4.6298,4.6298,4.6298,4.6298,4.6298,4.6298,4.6298,4.6298,4.6298,4.6298,4.6298,4.6298,4.6298,4.6298,4.6298,4.6298,4.6298,4.6298,4.6298,4.6298,4.6298,4.6298,4.6298,4.6298,4.6298,4.6298,4.6298,3.971,3.971,3.971,3.971,3.971,3.971,3.971,3.971,3.971,3.971,3.971,3.971,3.971,3.971,3.9722,4.0036,4.0449,4.1,4.1605,4.2071,4.2713,4.2912,4.3,4.3,4.3,4.3,4.3,4.3,4.3,4.3,4.3,4.3,4.3,4.3,4.3,4.3,4.3,4.3,4.3,4.3,4.3,4.3,4.3,4.3,4.3,4.3,4.3,4.3,4.3,4.3,4.3,4.3,4.3,4.3,4.3,4.3,4.3,4.3,4.3,4.3,4.3,4.3,4.3,4.3,4.3,4.3,4.3,4.3,4.3,4.3,4.3,4.3,4.3,4.3,4.3077,4.3127,4.3641,4.414,4.4719,4.5311,4.5723,4.6097,4.6298,4.6298,4.6298,4.6298,4.6298,4.6298,4.6298,4.6298,4.6298,4.6298,4.6298,4.6298,4.6298,4.6298,4.6298,4.6298,4.6298,4.6298,4.6298,4.6298,4.6298,4.6298,4.6298,4.6298,4.6298,4.6298,4.6298,4.6298,4.6298,4.6298,4.6298,4.6298,4.6298,3.971,3.971,3.971,3.971,3.971,3.971,3.971,3.971,3.971,3.971,3.971,3.971,3.971,3.971,3.971,3.986,4.0061,4.0813,4.1214,4.1553,4.2573,4.2887,4.3,4.3,4.3,4.3,4.3,4.3,4.3,4.3,4.3,4.3,4.3,4.3,4.3,4.3,4.3,4.3,4.3,4.3,4.3,4.3,4.3,4.3,4.3,4.3,4.3,4.3,4.3,4.3,4.3,4.3,4.3,4.3,4.3,4.3,4.3,4.3,4.3,4.3,4.3,4.3,4.3,4.3,4.3,4.3,4.3,4.3,4.3,4.3,4.3,4.3,4.3,4.3,4.3052,4.3052,4.3289,4.3752,4.4254,4.4832,4.5359,4.5821,4.6298,4.6298,4.6298,4.6298,4.6298,4.6298,4.6298,4.6298,4.6298,4.6298,4.6298,4.6298,4.6298,4.6298,4.6298,4.6298,4.6298,4.6298,4.6298,4.6298,4.6298,4.6298,4.6298,4.6298,4.6298,4.6298,4.6298,4.6298,4.6298,4.6298,4.6298,4.6298,4.6298]},{"header":{"parameterUnit":"m.s-1","parameterCategory":1,"la1":31.0,"la2":29.5877,"lo1":-88.7671,"lo2":-86.6584,"dy":0.0162,"dx":0.0185,"nx":115,"ny":88,"refTime":"2023-05-21T12:00:00:Z","depth":0,"parameterNumber":3,"parameterNumberName":"V-component_of_WINDS"},"data":[0.0,0.0,0.0,0.0,0.0,0.0,0.0,0.0,0.0,0.0,0.0,0.0,0.0,0.0,0.0,0.0,0.0,0.0,0.0,0.0,0.0,0.0,0.0,0.0,0.0,0.0,0.0,0.0,0.0,0.0,0.0,0.0,0.0,0.0,0.0,0.0,0.0,0.0,0.0,0.0,0.0,0.0,0.0,0.0,0.0,0.0,0.0,0.0,0.0,0.0,0.0,0.0,0.0,0.0,0.0,0.0,0.0,0.0,0.0,0.0,0.0,0.0,0.0,0.0,0.0,0.0,0.0,0.0,0.0,0.0,0.0,0.0,0.0,0.0,0.0,0.0,0.0,0.0,0.0,0.0,0.0,0.0,0.0,0.0,0.0,0.0,0.0,0.0,0.0,0.0,0.0,0.0,0.0,0.0,0.0,0.0,0.0,0.0,0.0,0.0,0.0,0.0,0.0,0.0,0.0,0.0,0.0,0.0,0.0,0.0,0.0,0.0,0.0,0.0,0.0,0.0,0.0,0.0,0.0,0.0,0.0,0.0,0.0,0.0,0.0,0.0,0.0,0.0,0.0,0.0,0.0,0.0,0.0,0.0,0.0,0.0,0.0,0.0,0.0,0.0,0.0,0.0,0.0,0.0,0.0,0.0,0.0,0.0,0.0,0.0,0.0,0.0,0.0,0.0,0.0,0.0,0.0,0.0,0.0,0.0,0.0,0.0,0.0,0.0,0.0,0.0,0.0,0.0,0.0,0.0,0.0,0.0,0.0,0.0,0.0,0.0,0.0,0.0,0.0,0.0,0.0,0.0,0.0,0.0,0.0,0.0,0.0,0.0,0.0,0.0,0.0,0.0,0.0,0.0,0.0,0.0,0.0,0.0,0.0,0.0,0.0,0.0,0.0,0.0,0.0,0.0,0.0,0.0,0.0,0.0,0.0,0.0,0.0,0.0,0.0,0.0,0.0,0.0,0.0,0.0,0.0,0.0,0.0,0.0,0.0,0.0,0.0,0.0,0.0,0.0,0.0,0.0,0.0,0.0,0.0,0.0,0.0,0.0,0.0,0.0,0.0,0.0,0.0,0.0,0.0,0.0,0.0,0.0,0.0,0.0,0.0,0.0,0.0,0.0,0.0,0.0,0.0,0.0,0.0,0.0,0.0,0.0,0.0,0.0,0.0,0.0,0.0,0.0,0.0,0.0,0.0,0.0,0.0,0.0,0.0,0.0,0.0,0.0,0.0,0.0,0.0,0.0,0.0,0.0,0.0,0.0,0.0,0.0,0.0,0.0,0.0,0.0,0.0,0.0,0.0,0.0,0.0,0.0,0.0,0.0,0.0,0.0,0.0,0.0,0.0,0.0,0.0,0.0,0.0,0.0,0.0,0.0,0.0,0.0,0.0,0.0,0.0,0.0,0.0,0.0,0.0,0.0,0.0,0.0,0.0,0.0,0.0,0.0,0.0,0.0,0.0,0.0,0.0,0.0,0.0,0.0,0.0,0.0,0.0,0.0,0.0,0.0,0.0,0.0,0.0,0.0,0.0,0.0,0.0,0.0,0.0,0.0,0.0,0.0,0.0,0.0,0.0,0.0,0.0,0.0,0.0,0.0,0.0,0.0,0.0,0.0,0.0,0.0,0.0,0.0,0.0,0.0,0.0,0.0,0.0,0.0,0.0,0.0,0.0,0.0,0.0,0.0,0.0,0.0,0.0,0.0,0.0,0.0,0.0,0.0,0.0,0.0,0.0,0.0,0.0,0.0,0.0,0.0,0.0,0.0,0.0,0.0,0.0,0.0,0.0,0.0,0.0,0.0,0.0,0.0,0.0,0.0,0.0,0.0,0.0,0.0,0.0,0.0,0.0,0.0,0.0,0.0,0.0,0.0,0.0,0.0,0.0,0.0,0.0,0.0,0.0,0.0,0.0,0.0,0.0,0.0,0.0,0.0,0.0,0.0,0.0,0.0,0.0,0.0,0.0,0.0,0.0,0.0,0.0,0.0,0.0,0.0,0.0,0.0,0.0,0.0,0.0,0.0,0.0,0.0,0.0,0.0,0.0,0.0,0.0,0.0,0.0,0.0,0.0,0.0,0.0,0.0,0.0,0.0,0.0,0.0,0.0,0.0,0.0,0.0,0.0,0.0,0.0,0.0,0.0,0.0,0.0,0.0,0.0,0.0,0.0,0.0,0.0,0.0,0.0,0.0,0.0,0.0,0.0,0.0,0.0,0.0,0.0,0.0,0.0,0.0,0.0,0.0,0.0,0.0,0.0,0.0,0.0,0.0,0.0,0.0,0.0,0.0,0.0,0.0,0.0,0.0,0.0,0.0,0.0,0.0,0.0,0.0,0.0,0.0,0.0,0.0,0.0,0.0,0.0,0.0,0.0,0.0,0.0,0.0,0.0,0.0,0.0,0.0,0.0,0.0,0.0,0.0,0.0,0.0,0.0,0.0,0.0,0.0,0.0,0.0,0.0,0.0,0.0,0.0,0.0,0.0,0.0,0.0,0.0,0.0,0.0,0.0,0.0,0.0,0.0,0.0,0.0,0.0,0.0,0.0,0.0,0.0,0.0,0.0,0.0,0.0,0.0,0.0,0.0,0.0,0.0,0.0,0.0,0.0,0.0,0.0,0.0,0.0,0.0,0.0,0.0,0.0,0.0,0.0,0.0,0.0,0.0,0.0,0.0,0.0,0.0,0.0,0.0,0.0,0.0,0.0,0.0,0.0,0.0,0.0,0.0,0.0,0.0,0.0,0.0,0.0,0.0,0.0,0.0,0.0,0.0,0.0,0.0,0.0,0.0,0.0,0.0,0.0,0.0,0.0,0.0,0.0,0.0,0.0,0.0,0.0,0.0,0.0,0.0,0.0,0.0,0.0,0.0,0.0,0.0,0.0,0.0,0.0,0.0,0.0,0.0,0.0,0.0,0.0,0.0,0.0,0.0,0.0,0.0,0.0,0.0,0.0,0.0,0.0,0.0,0.0,0.0,0.0,0.0,0.0,0.0,0.0,0.0,0.0,0.0,0.0,0.0,0.0,0.0,0.0,0.0,0.0,0.0,0.0,0.0,0.0,0.0,0.0,0.0,0.0,0.0,0.0,0.0,0.0,0.0,0.0,0.0,0.0,0.0,0.0,0.0,0.0,0.0,0.0,0.0,0.0,0.0,0.0,0.0,0.0,0.0,0.0,0.0,0.0,0.0,0.0,0.0,0.0,0.0,0.0,0.0,0.0,0.0,0.0,0.0,0.0,0.0,0.0,0.0,0.0,0.0,0.0,0.0,0.0,0.0,0.0,0.0,0.0,0.0,0.0,0.0,0.0,0.0,0.0,0.0,0.0,0.0,0.0,0.0,0.0,0.0,0.0,0.0,0.0,0.0,0.0,0.0,0.0,0.0,0.0,0.0,0.0,0.0,0.0,0.0,0.0,0.0,0.0,0.0,0.0,0.0,0.0,0.0,0.0,0.0,0.0,0.0,0.0,0.0,0.0,0.0,0.0,0.0,0.0,0.0,0.0,0.0,0.0,0.0,0.0,0.0,0.0,0.0,0.0,0.0,0.0,0.0,0.0,0.0,0.0,0.0,0.0,0.0,0.0,0.0,0.0,0.0,0.0,0.0,0.0,0.0,0.0,0.0,0.0,0.0,0.0,0.0,0.0,0.0,0.0,0.0,0.0,0.0,0.0,0.0,0.0,0.0,0.0,0.0,0.0,0.0,0.0,0.0,0.0,0.0,0.0,0.0,0.0,0.0,0.0,0.0,0.0,0.0,0.0,0.0,0.0,0.0,0.0,0.0,0.0,0.0,0.0,0.0,0.0,0.0,0.0,0.0,0.0,0.0,0.0,0.0,0.0,0.0,0.0,0.0,0.0,0.0,0.0,0.0,0.0,0.0,0.0,0.0,0.0,0.0,0.0,0.0,0.0,0.0,0.0,0.0,0.0,0.0,0.0,0.0,0.0,0.0,0.0,0.0,0.0,0.0,0.0,0.0,0.0,0.0,0.0,0.0,0.0,0.0,0.0,0.0,0.0,0.0,0.0,0.0,0.0,0.0,0.0,0.0,0.0,0.0,0.0,0.0,0.0,0.0,0.0,0.0,0.0,0.0,0.0,0.0,0.0,0.0,0.0,0.0,0.0,0.0,0.0,0.0,0.0,0.0,0.0,0.0,0.0,0.0,0.0,0.0,0.0,0.0,0.0,0.0,0.0,0.0,0.0,0.0,0.0,0.0,0.0,0.0,0.0,0.0,0.0,0.0,0.0,0.0,0.0,0.0,0.0,0.0,0.0,0.8969,0.0,0.0,0.0,0.0,0.0,0.0,0.0,0.0,0.0,0.0,0.0,0.0,0.0,0.0,0.0,0.0,0.0,0.0,0.0,0.0,0.0,0.0,0.0,0.0,0.0,0.0,0.0,0.0,0.0,0.0,0.0,0.0,0.0,0.0,0.0,0.0,0.0,0.0,0.0,0.0,0.0,0.0,0.0,0.0,0.0,0.0,0.0,0.0,0.0,0.0,0.0,0.0,0.0,0.0,0.0,0.0,0.0,0.0,0.0,0.0,0.0,0.0,0.0,0.0,0.0,0.0,0.0,0.0,0.0,0.0,0.0,0.0,0.0,0.0,0.0,0.0,0.0,0.0,0.0,0.0,0.0,0.0,0.0,0.0,0.0,0.0,0.0,0.0,0.0,0.0,0.0,0.0,0.0,0.0,0.0,0.0,0.0,0.0,0.0,0.0,0.0,0.0,0.0,0.0,0.0,0.0,0.0,0.0,0.0,0.0,0.8785,0.8785,0.8785,0.8864,0.9009,0.0,0.0,0.0,0.0,0.0,0.0,0.0,0.0,0.0,0.0,0.0,0.0,0.0,0.0,0.0,0.0,0.0,0.0,0.0,0.0,0.0,0.0,0.0,0.0,0.0,0.0,0.0,0.0,0.0,0.0,0.0,0.0,0.0,0.0,0.0,0.0,0.0,0.0,0.0,0.0,0.0,0.0,0.0,0.0,0.0,0.0,0.0,0.0,0.0,0.0,0.0,0.0,0.0,0.0,0.0,0.0,0.0,0.0,0.0,0.0,0.0,0.0,0.0,0.0,0.0,0.0,0.0,0.0,0.0,0.0,0.0,0.0,0.0,0.0,0.0,0.0,0.0,0.0,0.0,0.0,0.0,0.0,0.0,0.0,0.0,0.0,0.0,0.0,0.0,0.0,0.0,0.0,0.0,0.0,0.0,0.0,0.0,0.0,0.0,0.0,0.0,0.0,0.0,0.0,0.0,0.0,0.0,0.0,0.0,0.0,0.0,0.0,0.9038,0.918,0.9482,0.0,0.0,0.0,0.0,0.0,0.0,0.0,0.0,0.0,0.0,0.0,0.0,0.0,0.0,0.0,0.0,0.0,0.0,0.0,0.0,0.0,0.0,0.0,0.0,0.0,0.0,0.0,0.0,0.0,0.0,0.0,0.0,0.0,0.0,0.0,0.0,0.0,0.0,0.0,0.0,0.0,0.0,0.0,0.0,0.0,0.0,0.0,0.0,0.0,0.0,0.0,0.0,0.0,0.0,0.0,0.0,0.0,0.0,0.0,0.0,0.0,0.0,0.0,0.0,0.0,0.0,0.0,0.0,0.0,0.0,0.0,0.0,0.0,0.0,0.0,0.0,0.0,0.0,0.0,0.0,0.0,0.0,0.0,0.0,0.0,0.0,0.0,0.0,0.0,0.0,0.0,0.0,0.0,0.0,0.0,0.0,0.0,0.0,0.0,0.0,0.0,0.0,0.0,0.0,0.0,0.0,0.0,0.0,0.0,0.0,0.9613,0.9628,0.9736,0.0,1.0874,0.0,0.0,0.0,0.0,0.0,0.0,0.0,0.0,0.0,0.0,0.0,0.0,0.0,0.0,0.0,0.0,0.0,0.0,0.0,0.0,0.0,0.0,0.0,0.0,0.0,0.0,0.0,0.0,0.0,0.0,0.0,0.0,0.0,0.0,0.0,0.0,0.0,0.0,0.0,0.0,0.0,0.0,0.0,0.0,0.0,0.0,0.0,0.0,0.0,0.0,0.0,0.0,0.0,0.0,0.0,0.0,0.0,0.0,0.0,0.0,0.0,0.0,0.0,0.0,0.0,0.0,0.0,0.0,0.0,0.0,0.0,0.0,0.0,0.0,0.0,0.0,0.0,0.0,0.0,0.0,0.0,0.0,0.0,0.0,0.0,0.0,0.0,0.0,0.0,0.0,0.0,0.0,0.0,0.0,0.0,0.0,0.0,0.0,0.0,0.0,0.0,0.0,0.0,0.0,0.0,0.0,0.0,0.0,0.0,0.0,0.9744,0.981,1.0149,1.0566,0.0,0.0,0.0,0.0,0.0,0.0,0.0,0.0,0.0,0.0,0.0,0.0,0.0,0.0,0.0,0.0,0.0,0.0,0.0,0.0,0.0,0.0,0.0,0.0,0.0,0.0,0.0,0.0,0.0,0.0,0.0,0.0,0.0,0.0,0.0,0.0,0.0,0.0,0.0,0.0,0.0,0.0,0.0,0.0,0.0,0.0,0.0,0.0,0.0,0.0,0.0,0.0,0.0,0.0,0.0,0.0,0.0,0.0,0.0,0.0,0.0,0.0,0.0,0.0,0.0,0.0,0.0,0.0,0.0,0.0,0.0,0.0,0.0,0.0,0.0,0.0,0.0,0.0,0.0,0.0,0.0,0.0,0.0,0.0,0.0,0.0,0.0,0.0,0.0,0.0,0.0,0.0,0.0,0.0,0.0,0.0,0.0,0.0,0.0,0.0,0.0,0.0,0.0,0.0,0.0,0.0,0.0,0.0,0.0,0.0,0.9949,1.0076,1.0372,1.0828,1.1274,1.1702,0.0,0.0,0.0,0.0,0.0,0.0,0.0,0.0,0.0,0.0,0.0,0.0,0.0,0.0,0.0,0.0,0.0,0.0,0.0,0.0,0.0,0.0,0.0,0.0,0.0,0.0,0.0,0.0,0.0,0.0,0.0,0.0,0.0,0.0,0.0,0.0,0.0,0.0,0.0,0.0,0.0,0.0,0.0,0.0,0.0,0.0,0.0,0.0,0.0,0.0,0.0,0.0,0.0,0.0,0.0,0.0,0.0,0.0,0.0,0.0,0.0,0.0,0.0,0.0,0.0,0.0,0.0,0.0,0.0,0.0,0.0,0.0,0.0,0.0,0.0,0.0,0.0,0.0,0.0,0.0,0.0,0.0,0.0,0.0,0.0,0.0,0.0,0.0,0.0,0.0,0.0,0.0,0.0,0.0,0.0,0.0,0.0,0.0,0.0,0.0,0.0,0.0,0.0,0.0,0.0,0.0,0.0,0.0,1.0547,1.0562,1.086,1.1478,1.1966,1.2534,0.0,0.0,0.0,0.0,0.0,0.0,0.0,0.0,0.0,0.0,0.0,0.0,0.0,0.0,0.0,0.0,0.0,0.0,0.0,0.0,0.0,0.0,0.0,0.0,0.0,0.0,0.0,0.0,0.0,0.0,0.0,0.0,0.0,0.0,0.0,0.0,0.0,0.0,0.0,0.0,0.0,0.0,0.0,0.0,0.0,0.0,0.0,0.0,0.0,0.0,0.0,0.0,0.0,0.0,0.0,0.0,0.0,0.0,0.0,0.0,0.0,0.0,0.0,0.0,0.0,0.0,0.0,0.0,0.0,0.0,0.0,0.0,0.0,0.0,0.0,0.0,0.0,0.0,0.0,0.0,0.0,0.0,0.0,0.0,0.0,0.0,0.0,0.0,0.0,0.0,0.0,0.0,0.0,0.0,0.0,0.0,0.0,0.0,0.0,0.0,0.0,0.0,0.0,0.0,0.0,0.0,0.0,0.0,0.0,1.0609,1.0894,1.1256,1.1724,1.2305,1.2873,0.0,0.0,0.0,0.0,0.0,0.0,0.0,0.0,0.0,0.0,0.0,0.0,0.0,0.0,0.0,0.0,0.0,0.0,0.0,0.0,0.0,0.0,0.0,0.0,0.0,0.0,0.0,0.0,0.0,0.0,0.0,0.0,0.0,0.0,0.0,0.0,0.0,0.0,0.0,0.0,0.0,0.0,0.0,0.0,0.0,0.0,0.0,0.0,0.0,0.0,0.0,0.0,0.0,0.0,0.0,0.0,0.0,0.0,0.0,0.0,0.0,0.0,0.0,0.0,0.0,0.0,0.0,0.0,0.0,0.0,0.0,0.0,0.0,0.0,0.0,0.0,0.0,0.0,0.0,0.0,0.0,0.0,0.0,0.0,0.0,0.0,0.0,0.0,0.0,0.0,0.0,0.0,0.0,0.0,0.0,0.0,0.0,0.0,0.0,0.0,0.0,0.0,0.0,0.0,0.0,0.0,0.0,0.0,0.0,1.0768,0.0,1.1654,1.212,1.2774,1.3346,0.0,0.0,0.0,0.0,0.0,0.0,0.0,0.0,0.0,0.0,0.0,0.0,0.0,0.0,0.0,0.0,0.0,0.0,0.0,0.0,0.0,0.0,0.0,0.0,0.0,0.0,0.0,0.0,0.0,0.0,0.0,0.0,0.0,0.0,0.0,0.0,0.0,0.0,0.0,0.0,0.0,0.0,0.0,0.0,0.0,0.0,0.0,0.0,0.0,0.0,0.0,0.0,0.0,0.0,0.0,0.0,0.0,0.0,0.0,0.0,0.0,0.0,0.0,0.0,0.0,0.0,0.0,0.0,0.0,0.0,0.0,0.0,0.0,0.0,0.0,0.0,0.0,0.0,0.0,0.0,0.0,0.0,0.0,0.0,0.0,0.0,0.0,0.0,0.0,0.0,0.0,0.0,0.0,0.0,0.0,0.0,0.0,0.0,0.0,0.0,0.0,0.0,0.0,0.0,0.0,0.0,0.0,0.0,1.0788,1.1128,1.1591,1.2158,1.2812,1.3494,1.4043,0.0,0.0,0.0,0.0,0.0,0.0,0.0,0.0,0.0,0.0,0.0,0.0,0.0,0.0,0.0,0.0,0.0,0.0,0.0,0.0,0.0,0.0,0.0,0.0,0.0,0.0,0.0,0.0,0.0,0.0,0.0,0.0,0.0,0.0,0.0,0.0,0.0,0.0,0.0,0.0,0.0,0.0,0.0,0.0,0.0,0.0,0.0,0.0,0.0,0.0,0.0,0.0,0.0,0.0,0.0,0.0,0.0,0.0,0.0,0.0,0.0,0.0,0.0,0.0,0.0,0.0,0.0,0.0,0.0,0.0,0.0,0.0,0.0,0.0,0.0,0.0,0.0,0.0,0.0,0.0,0.0,0.0,0.0,0.0,0.0,0.0,0.0,0.0,0.0,0.0,0.0,0.0,0.0,0.0,0.0,0.0,0.0,0.0,0.0,0.0,0.0,0.0,0.0,0.0,0.0,0.0,0.0,0.0,0.0,1.2008,1.2457,1.3148,1.4081,1.4664,1.5203,0.0,0.0,0.0,0.0,0.0,0.0,0.0,0.0,0.0,0.0,0.0,0.0,0.0,0.0,0.0,0.0,0.0,0.0,0.0,0.0,0.0,0.0,0.0,0.0,0.0,0.0,0.0,0.0,0.0,0.0,0.0,0.0,0.0,0.0,0.0,0.0,0.0,0.0,0.0,0.0,0.0,0.0,0.0,0.0,0.0,0.0,0.0,0.0,0.0,0.0,0.0,0.0,0.0,0.0,0.0,0.0,0.0,0.0,0.0,0.0,0.0,0.0,0.0,0.0,0.0,0.0,0.0,0.0,0.0,0.0,0.0,0.0,0.0,0.0,0.0,0.0,0.0,0.0,0.0,0.0,0.0,0.0,0.0,0.0,0.0,0.0,0.0,0.0,0.0,0.0,0.0,0.0,0.0,0.0,0.0,0.0,0.0,0.0,0.0,0.0,0.0,0.0,0.0,0.0,0.0,0.0,0.0,0.0,0.0,1.3474,1.3615,1.411,1.4967,1.5494,1.5936,1.6289,0.0,0.0,0.0,0.0,0.0,0.0,0.0,0.0,0.0,0.0,0.0,0.0,0.0,0.0,0.0,0.0,0.0,0.0,0.0,0.0,0.0,0.0,0.0,0.0,0.0,0.0,0.0,0.0,0.0,0.0,0.0,0.0,0.0,0.0,0.0,0.0,0.0,0.0,0.0,0.0,0.0,0.0,0.0,0.0,0.0,0.0,0.0,0.0,0.0,0.0,0.0,0.0,0.0,0.0,0.0,0.0,0.0,0.0,0.0,0.0,0.0,0.0,0.0,0.0,0.0,0.0,0.0,0.0,0.0,0.0,0.0,0.0,0.0,0.0,0.0,0.0,0.0,0.0,0.0,0.0,0.0,0.0,0.0,0.0,0.0,0.0,0.0,0.0,0.0,0.0,0.0,0.0,0.0,0.0,0.0,0.0,0.0,0.0,0.0,0.0,0.0,0.0,0.0,0.0,0.0,0.0,0.0,0.0,1.5402,1.5073,1.5121,1.5592,1.6052,1.6372,0.0,0.0,0.0,0.0,0.0,0.0,0.0,0.0,0.0,0.0,0.0,0.0,0.0,0.0,0.0,0.0,0.0,0.0,0.0,0.0,0.0,0.0,0.0,0.0,0.0,0.0,0.0,0.0,0.0,0.0,0.0,0.0,0.0,0.0,0.0,0.0,0.0,0.0,0.0,0.0,0.0,0.0,0.0,0.0,0.0,0.0,0.0,0.0,0.0,0.0,0.0,0.0,0.0,0.0,0.0,0.0,0.0,0.0,0.0,0.0,0.0,0.0,0.0,0.0,0.0,0.0,0.0,0.0,0.0,0.0,0.0,0.0,0.0,0.0,0.0,0.0,0.0,0.0,0.0,0.0,0.0,0.0,0.0,0.0,0.0,0.0,0.0,0.0,0.0,0.0,0.0,0.0,0.0,0.0,0.0,0.0,0.0,0.0,0.0,0.0,0.0,0.0,0.0,0.0,0.0,0.0,0.0,0.0,0.0,1.6723,1.7065,1.7149,1.6988,1.7187,1.7405,0.0,0.0,0.0,0.0,0.0,0.0,0.0,0.0,0.0,0.0,0.0,0.0,0.0,0.0,0.0,0.0,0.0,0.0,0.0,0.0,0.0,0.0,0.0,0.0,0.0,0.0,0.0,0.0,0.0,0.0,0.0,0.0,0.0,0.0,0.0,0.0,0.0,0.0,0.0,0.0,0.0,0.0,0.0,0.0,0.0,0.0,0.0,0.0,0.0,0.0,0.0,0.0,0.0,0.0,0.0,0.0,0.0,0.0,0.0,0.0,0.0,0.0,0.0,0.0,0.0,0.0,0.0,0.0,0.0,0.0,0.0,0.0,0.0,0.0,0.0,0.0,0.0,0.0,0.0,0.0,0.0,0.0,0.0,0.0,0.0,0.0,0.0,0.0,0.0,0.0,0.0,0.0,0.0,0.0,0.0,0.0,0.0,0.0,0.0,0.0,0.0,0.0,0.0,0.0,0.0,0.0,0.0,0.0,1.6571,1.7495,1.8139,1.8407,1.8256,1.8151,1.8045,0.0,0.0,0.0,0.0,0.0,0.0,0.0,0.0,0.0,0.0,0.0,0.0,0.0,0.0,0.0,0.0,0.0,0.0,0.0,0.0,0.0,0.0,0.0,0.0,0.0,0.0,0.0,0.0,0.0,0.0,0.0,0.0,0.0,0.0,0.0,0.0,0.0,0.0,0.0,0.0,0.0,0.0,0.0,0.0,0.0,0.0,0.0,0.0,0.0,0.0,0.0,0.0,0.0,0.0,0.0,0.0,0.0,0.0,0.0,0.0,0.0,0.0,0.0,0.0,0.0,0.0,0.0,0.0,0.0,0.0,0.0,0.0,0.0,0.0,0.0,0.0,0.0,0.0,0.0,0.0,0.0,0.0,0.0,0.0,0.0,0.0,0.0,0.0,0.0,0.0,0.0,0.0,0.0,0.0,0.0,0.0,0.0,0.0,0.0,0.0,0.0,0.0,0.0,0.0,0.0,0.0,0.0,0.0,1.737,1.7992,1.8705,1.9181,1.9346,1.8869,1.8431,0.0,0.0,0.0,0.0,0.0,0.0,0.0,0.0,0.0,0.0,0.0,0.0,0.0,0.0,0.0,0.0,0.0,0.0,0.0,0.0,0.0,0.0,0.0,0.0,0.0,0.0,0.0,0.0,0.0,0.0,0.0,0.0,0.0,0.0,0.0,0.0,0.0,0.0,0.0,0.0,0.0,0.0,0.0,0.0,0.0,0.0,0.0,0.0,0.0,0.0,0.0,0.0,0.0,0.0,0.0,0.0,0.0,0.0,0.0,0.0,0.0,0.0,0.0,0.0,0.0,0.0,0.0,0.0,0.0,0.0,0.0,0.0,0.0,0.0,0.0,0.0,0.0,0.0,0.0,0.0,0.0,0.0,0.0,0.0,0.0,0.0,0.0,0.0,0.0,0.0,0.0,0.0,0.0,0.0,0.0,0.0,0.0,0.0,0.0,0.0,0.0,0.0,0.0,0.0,0.0,0.0,0.0,0.0,1.8026,1.9276,1.9569,1.9729,1.9757,1.9015,1.8559,0.0,0.0,0.0,0.0,0.0,0.0,0.0,0.0,0.0,0.0,0.0,0.0,0.0,0.0,0.0,0.0,0.0,0.0,0.0,0.0,0.0,0.0,0.0,0.0,0.0,0.0,0.0,0.0,0.0,0.0,0.0,0.0,0.0,0.0,0.0,0.0,0.0,0.0,0.0,0.0,0.0,0.0,0.0,0.0,0.0,0.0,0.0,0.0,1.8471,0.0,0.0,0.0,0.0,0.0,0.0,0.0,0.0,0.0,0.0,0.0,0.0,0.0,0.0,0.0,0.0,0.0,0.0,0.0,0.0,0.0,0.0,0.0,0.0,0.0,0.0,0.0,0.0,0.0,0.0,0.0,0.0,0.0,0.0,0.0,0.0,0.0,0.0,0.0,0.0,0.0,0.0,0.0,0.0,0.0,0.0,0.0,0.0,0.0,0.0,0.0,0.0,0.0,0.0,0.0,0.0,0.0,0.0,0.0,1.8807,1.9677,2.0051,2.0225,2.0214,1.9581,1.9016,0.0,0.0,0.0,0.0,0.0,0.0,0.0,0.0,0.0,0.0,0.0,0.0,0.0,0.0,0.0,0.0,0.0,0.0,0.0,0.0,0.0,0.0,0.0,0.0,0.0,0.0,0.0,0.0,0.0,0.0,0.0,0.0,0.0,0.0,0.0,0.0,0.0,0.0,0.0,0.0,0.0,0.0,0.0,0.0,0.0,0.0,0.0,0.0,0.0,0.0,0.0,0.0,0.0,0.0,0.0,0.0,0.0,0.0,0.0,0.0,0.0,0.0,0.0,0.0,0.0,0.0,0.0,0.0,0.0,0.0,0.0,0.0,0.0,0.0,0.0,0.0,0.0,0.0,0.0,0.0,0.0,0.0,0.0,0.0,0.0,0.0,0.0,0.0,0.0,0.0,0.0,0.0,0.0,0.0,0.0,0.0,0.0,0.0,0.0,0.0,0.0,0.0,0.0,0.0,0.0,0.0,0.0,1.8958,1.9669,1.9937,2.0508,2.0762,2.0684,2.0303,1.9689,1.8831,0.0,0.0,0.0,0.0,0.0,0.0,0.0,0.0,0.0,0.0,0.0,0.0,0.0,0.0,0.0,0.0,0.0,0.0,0.0,0.0,0.0,0.0,0.0,0.0,0.0,0.0,0.0,0.0,0.0,0.0,0.0,0.0,0.0,0.0,0.0,0.0,0.0,0.0,1.8194,1.8497,0.0,0.0,0.0,0.0,0.0,0.0,0.0,0.0,1.9462,0.0,0.0,0.0,0.0,0.0,0.0,0.0,0.0,0.0,0.0,0.0,0.0,0.0,0.0,0.0,0.0,0.0,0.0,0.0,0.0,0.0,0.0,0.0,0.0,0.0,0.0,0.0,0.0,0.0,0.0,0.0,0.0,0.0,0.0,0.0,0.0,0.0,0.0,0.0,0.0,0.0,0.0,0.0,0.0,0.0,0.0,0.0,0.0,0.0,0.0,0.0,0.0,0.0,0.0,0.0,0.0,1.9343,1.988,2.041,2.0946,2.1435,2.1504,2.1103,2.1015,2.0586,1.9718,0.0,0.0,0.0,0.0,0.0,0.0,0.0,0.0,0.0,0.0,0.0,0.0,0.0,0.0,0.0,0.0,0.0,0.0,0.0,0.0,0.0,0.0,0.0,0.0,0.0,0.0,0.0,0.0,0.0,0.0,0.0,0.0,0.0,0.0,0.0,0.0,0.0,0.0,0.0,1.9131,1.9227,0.0,0.0,0.0,0.0,0.0,0.0,0.0,0.0,2.0215,0.0,0.0,0.0,0.0,0.0,0.0,0.0,0.0,0.0,0.0,0.0,0.0,0.0,0.0,0.0,0.0,0.0,0.0,0.0,0.0,0.0,0.0,0.0,0.0,0.0,0.0,0.0,0.0,0.0,0.0,0.0,0.0,0.0,0.0,0.0,0.0,0.0,0.0,0.0,0.0,0.0,0.0,0.0,0.0,0.0,0.0,0.0,0.0,0.0,0.0,0.0,0.0,0.0,0.0,0.0,1.9985,2.0507,2.1023,2.1542,2.1777,2.168,2.121,2.121,2.0898,0.0,0.0,0.0,0.0,0.0,0.0,0.0,0.0,0.0,0.0,0.0,0.0,0.0,0.0,0.0,0.0,0.0,0.0,0.0,0.0,0.0,0.0,0.0,0.0,0.0,0.0,0.0,0.0,0.0,0.0,0.0,0.0,0.0,0.0,0.0,0.0,0.0,0.0,0.0,0.0,1.96,1.9687,1.9941,0.0,0.0,0.0,0.0,0.0,0.0,2.0757,2.0798,0.0,0.0,0.0,0.0,0.0,0.0,0.0,0.0,0.0,0.0,0.0,0.0,0.0,0.0,0.0,0.0,0.0,0.0,0.0,0.0,0.0,0.0,0.0,0.0,0.0,0.0,0.0,0.0,0.0,0.0,0.0,0.0,0.0,0.0,0.0,0.0,0.0,0.0,0.0,0.0,0.0,0.0,0.0,0.0,0.0,0.0,0.0,0.0,0.0,0.0,0.0,0.0,0.0,0.0,0.0,2.0478,2.1043,2.1593,2.2075,2.2183,2.2027,2.1625,2.1527,2.1282,0.0,0.0,0.0,0.0,0.0,0.0,0.0,0.0,0.0,0.0,0.0,0.0,0.0,0.0,0.0,0.0,0.0,0.0,0.0,0.0,0.0,0.0,0.0,0.0,0.0,0.0,0.0,0.0,0.0,0.0,0.0,0.0,0.0,0.0,0.0,0.0,0.0,0.0,0.0,0.0,0.0,2.0185,2.0546,2.0634,0.0,0.0,0.0,0.0,2.1384,2.1433,0.0,0.0,0.0,0.0,0.0,0.0,0.0,0.0,0.0,0.0,0.0,0.0,0.0,0.0,0.0,0.0,0.0,0.0,0.0,0.0,0.0,0.0,0.0,0.0,0.0,0.0,0.0,0.0,0.0,0.0,0.0,0.0,0.0,0.0,0.0,0.0,0.0,0.0,0.0,0.0,0.0,0.0,0.0,0.0,0.0,0.0,0.0,0.0,0.0,0.0,0.0,0.0,0.0,0.0,0.0,0.0,2.1063,2.1572,2.2125,2.2779,2.3135,2.32,2.2972,2.2571,2.216,0.0,0.0,0.0,0.0,0.0,0.0,0.0,0.0,0.0,0.0,0.0,0.0,0.0,0.0,0.0,0.0,0.0,0.0,0.0,0.0,0.0,0.0,0.0,0.0,0.0,0.0,0.0,0.0,0.0,0.0,0.0,0.0,0.0,0.0,0.0,0.0,0.0,0.0,0.0,0.0,0.0,2.0546,2.0595,2.0751,2.0877,0.0,0.0,2.2073,2.2083,2.223,0.0,0.0,0.0,0.0,0.0,0.0,0.0,0.0,0.0,0.0,0.0,0.0,0.0,0.0,0.0,0.0,0.0,0.0,0.0,0.0,0.0,0.0,0.0,0.0,0.0,0.0,0.0,0.0,0.0,0.0,0.0,0.0,0.0,0.0,0.0,0.0,0.0,0.0,0.0,0.0,0.0,0.0,0.0,0.0,0.0,0.0,0.0,0.0,0.0,0.0,0.0,0.0,0.0,0.0,0.0,2.0897,2.1582,2.2177,2.2769,2.3388,2.3827,2.3972,2.3784,2.3411,2.2986,0.0,0.0,0.0,0.0,0.0,0.0,0.0,0.0,0.0,0.0,0.0,0.0,0.0,0.0,0.0,0.0,0.0,0.0,0.0,0.0,0.0,0.0,0.0,0.0,0.0,0.0,0.0,0.0,0.0,0.0,0.0,0.0,0.0,0.0,0.0,0.0,0.0,0.0,0.0,0.0,0.0,0.0,2.1439,2.1577,0.0,0.0,0.0,2.3279,2.3614,0.0,0.0,0.0,0.0,0.0,0.0,0.0,0.0,0.0,0.0,0.0,0.0,0.0,0.0,0.0,0.0,0.0,0.0,0.0,0.0,0.0,0.0,0.0,0.0,0.0,0.0,0.0,0.0,0.0,0.0,0.0,0.0,0.0,0.0,0.0,0.0,0.0,0.0,0.0,0.0,0.0,0.0,0.0,0.0,0.0,0.0,0.0,0.0,0.0,0.0,0.0,0.0,0.0,0.0,0.0,0.0,0.0,2.1978,2.2683,2.3377,2.4069,2.4519,2.4746,2.4699,2.4444,0.0,0.0,0.0,0.0,0.0,0.0,0.0,0.0,0.0,0.0,0.0,0.0,0.0,0.0,0.0,0.0,0.0,0.0,0.0,0.0,0.0,0.0,0.0,0.0,0.0,0.0,0.0,1.9619,0.0,0.0,0.0,0.0,0.0,0.0,0.0,0.0,0.0,0.0,0.0,0.0,0.0,0.0,2.1555,2.2261,2.2602,2.3065,0.0,0.0,2.4657,2.5137,2.469,2.4272,0.0,0.0,0.0,0.0,0.0,0.0,0.0,0.0,0.0,0.0,0.0,0.0,0.0,0.0,0.0,0.0,0.0,0.0,0.0,0.0,0.0,0.0,0.0,0.0,0.0,0.0,0.0,0.0,0.0,0.0,0.0,0.0,0.0,0.0,0.0,0.0,0.0,0.0,0.0,0.0,0.0,0.0,0.0,0.0,0.0,0.0,0.0,0.0,0.0,0.0,0.0,0.0,0.0,0.0,0.0,2.2185,2.3039,2.3917,2.4797,2.5211,2.5642,2.6047,2.5797,2.5407,0.0,0.0,0.0,0.0,0.0,0.0,0.0,0.0,0.0,0.0,0.0,0.0,0.0,0.0,0.0,0.0,0.0,0.0,0.0,0.0,0.0,0.0,0.0,0.0,0.0,0.0,0.0,0.0,0.0,0.0,0.0,0.0,0.0,0.0,0.0,0.0,0.0,0.0,0.0,0.0,0.0,2.2486,2.2722,2.3681,2.4376,0.0,0.0,2.6125,2.635,2.5929,2.556,2.5576,0.0,0.0,0.0,0.0,0.0,0.0,0.0,0.0,0.0,0.0,0.0,0.0,0.0,0.0,0.0,0.0,0.0,0.0,0.0,0.0,0.0,0.0,0.0,0.0,0.0,0.0,0.0,0.0,0.0,0.0,0.0,0.0,0.0,0.0,0.0,0.0,0.0,0.0,0.0,0.0,0.0,0.0,0.0,0.0,0.0,0.0,0.0,0.0,0.0,0.0,0.0,0.0,0.0,2.2554,2.2819,2.395,2.4925,2.5684,2.6247,2.6764,2.7161,2.7047,2.6825,0.0,0.0,0.0,0.0,0.0,0.0,0.0,0.0,0.0,0.0,0.0,0.0,0.0,0.0,0.0,0.0,0.0,0.0,0.0,0.0,0.0,0.0,0.0,0.0,0.0,0.0,0.0,0.0,2.0605,2.0605,2.0605,0.0,0.0,0.0,0.0,0.0,0.0,0.0,0.0,0.0,0.0,2.3374,2.4104,2.5074,0.0,0.0,2.7041,2.7552,2.7856,2.7087,2.6425,2.6444,2.5136,0.0,0.0,0.0,0.0,0.0,0.0,0.0,0.0,0.0,0.0,0.0,0.0,0.0,0.0,0.0,0.0,0.0,0.0,0.0,0.0,0.0,0.0,0.0,0.0,0.0,0.0,0.0,0.0,0.0,0.0,0.0,0.0,0.0,0.0,0.0,0.0,0.0,0.0,0.0,0.0,0.0,0.0,0.0,0.0,0.0,0.0,0.0,0.0,0.0,0.0,0.0,0.0,2.3214,2.3495,2.4877,2.5915,2.6569,2.7185,2.7703,2.8081,2.8111,2.7985,0.0,0.0,0.0,0.0,0.0,0.0,0.0,0.0,0.0,0.0,0.0,0.0,0.0,0.0,0.0,0.0,0.0,0.0,0.0,0.0,0.0,0.0,0.0,0.0,0.0,0.0,0.0,0.0,2.0634,2.0634,2.0673,0.0,0.0,0.0,0.0,0.0,0.0,0.0,0.0,0.0,0.0,2.4532,2.5347,2.6438,2.7411,2.8002,2.8305,2.8586,2.8932,2.8057,2.7354,2.7411,0.0,0.0,0.0,0.0,0.0,0.0,0.0,0.0,0.0,0.0,0.0,0.0,0.0,0.0,0.0,0.0,0.0,0.0,0.0,0.0,0.0,0.0,0.0,0.0,0.0,0.0,0.0,0.0,0.0,0.0,1.7745,0.0,0.0,0.0,0.0,0.0,0.0,0.0,0.0,0.0,0.0,0.0,0.0,0.0,0.0,0.0,0.0,0.0,0.0,0.0,0.0,0.0,0.0,2.3715,2.4196,2.5698,2.6796,2.746,2.7936,2.8367,2.8762,2.8969,2.8821,2.8284,0.0,0.0,0.0,0.0,0.0,0.0,0.0,0.0,0.0,0.0,0.0,0.0,0.0,0.0,0.0,0.0,0.0,0.0,0.0,0.0,0.0,0.0,0.0,0.0,0.0,0.0,2.0926,2.0722,2.0683,0.0,0.0,0.0,0.0,0.0,0.0,0.0,0.0,0.0,0.0,2.4831,2.6023,2.626,2.7692,2.8718,2.8771,2.8941,2.9138,2.935,2.8745,2.8364,0.0,0.0,0.0,0.0,0.0,0.0,0.0,0.0,0.0,0.0,0.0,0.0,0.0,0.0,0.0,0.0,0.0,0.0,0.0,0.0,0.0,0.0,0.0,0.0,0.0,0.0,0.0,1.9577,1.9475,0.0,0.0,0.0,0.0,0.0,0.0,0.0,0.0,0.0,0.0,0.0,2.3655,2.4127,0.0,0.0,0.0,0.0,0.0,0.0,0.0,0.0,0.0,0.0,0.0,0.0,2.4708,2.5065,2.6555,2.762,2.8159,2.8576,2.8922,2.9204,2.9446,2.9246,2.8572,0.0,0.0,0.0,0.0,0.0,0.0,0.0,0.0,0.0,0.0,0.0,0.0,0.0,0.0,0.0,0.0,0.0,0.0,0.0,0.0,0.0,0.0,0.0,0.0,0.0,2.1512,0.0,0.0,0.0,0.0,0.0,0.0,0.0,0.0,0.0,0.0,0.0,2.4174,2.4576,2.6106,2.7279,2.7459,2.848,2.9204,0.0,0.0,0.0,0.0,0.0,0.0,0.0,0.0,0.0,0.0,0.0,0.0,0.0,0.0,2.6207,2.5316,2.5108,2.4682,2.3417,0.0,0.0,0.0,0.0,0.0,0.0,0.0,0.0,0.0,0.0,0.0,0.0,0.0,0.0,2.0963,0.0,2.0665,0.0,0.0,0.0,0.0,0.0,0.0,0.0,0.0,2.4,2.4812,2.555,2.5862,2.6096,0.0,2.6086,2.5213,0.0,0.0,0.0,0.0,0.0,0.0,0.0,0.0,2.5636,2.614,2.7631,2.866,2.9127,2.957,2.9809,2.9818,2.9811,2.9568,2.9109,2.8881,2.8378,0.0,0.0,0.0,0.0,0.0,0.0,0.0,0.0,0.0,0.0,0.0,0.0,0.0,0.0,0.0,0.0,0.0,0.0,0.0,0.0,0.0,0.0,0.0,2.2284,0.0,0.0,0.0,0.0,0.0,0.0,0.0,0.0,0.0,2.3587,2.4591,2.5541,2.5926,2.7227,2.816,2.8284,0.0,0.0,0.0,0.0,0.0,0.0,0.0,2.948,2.9384,2.9193,2.8998,2.888,2.8864,2.8852,2.8852,0.0,0.0,2.7105,2.6889,2.6455,2.4838,2.4536,2.5206,2.7423,2.8108,2.8123,0.0,0.0,0.0,0.0,0.0,0.0,0.0,0.0,2.3025,2.2952,0.0,2.2168,0.0,0.0,0.0,0.0,0.0,2.3335,0.0,0.0,2.5737,2.6258,2.6505,2.6889,2.7059,2.7065,2.7071,2.6952,2.6645,2.5239,0.0,0.0,0.0,0.0,0.0,0.0,2.6514,2.7441,2.8865,2.9839,3.0291,3.0818,3.0934,3.0638,3.0131,2.9864,2.9814,2.9283,2.8925,2.8875,2.8191,0.0,0.0,0.0,0.0,0.0,0.0,0.0,0.0,0.0,0.0,0.0,0.0,0.0,0.0,0.0,0.0,0.0,0.0,0.0,0.0,2.3471,0.0,0.0,0.0,0.0,0.0,0.0,0.0,0.0,0.0,0.0,2.527,2.6078,2.6898,2.7278,0.0,0.0,0.0,0.0,2.9817,2.9826,2.9839,2.9867,2.9867,3.0294,3.0623,3.0603,0.0,0.0,3.1371,3.1381,3.1311,3.1381,3.1303,3.075,2.8667,2.8504,2.8207,2.6807,2.6516,2.747,3.006,3.0731,3.0572,2.5701,0.0,0.0,0.0,0.0,2.37,2.3821,2.392,2.4081,2.4049,2.3919,2.382,0.0,0.0,0.0,0.0,0.0,0.0,2.5543,2.6255,2.6982,2.7613,2.8115,2.8373,2.8499,2.8511,2.8489,2.8275,2.783,2.7396,2.6638,2.5625,0.0,0.0,0.0,0.0,2.7818,2.8477,2.9545,3.0361,3.0857,3.116,3.1272,3.1183,3.1032,3.0748,3.0384,3.0199,2.9725,2.8947,2.8709,0.0,0.0,0.0,0.0,0.0,0.0,0.0,0.0,0.0,0.0,0.0,0.0,0.0,0.0,0.0,0.0,0.0,0.0,0.0,2.5098,2.4971,2.4876,0.0,0.0,0.0,0.0,0.0,0.0,0.0,0.0,0.0,2.7939,2.7942,2.8001,0.0,0.0,2.9473,2.9495,3.0011,3.0372,3.0382,0.0,0.0,0.0,3.1072,3.1173,3.1183,3.1308,3.1406,3.1406,3.1406,3.1406,3.1419,3.1723,3.1751,3.1196,3.0656,3.0196,2.9624,2.9507,3.0129,3.1937,3.2434,3.2097,2.8413,2.6965,2.5804,2.5242,2.514,2.5255,2.5294,2.5306,2.5495,2.5462,2.5295,2.5284,2.5182,2.5023,2.5099,0.0,0.0,0.0,2.6936,2.7611,2.8181,2.8785,2.9376,2.9611,2.9811,3.0007,2.9997,2.9846,2.9524,2.9524,2.9145,2.8346,0.0,0.0,2.7338,2.8221,2.8912,2.9475,3.0504,3.1215,3.1529,3.1653,3.1725,3.1723,3.1499,3.1246,3.0924,3.0922,3.051,2.9612,2.9562,2.9211,0.0,0.0,0.0,0.0,0.0,0.0,0.0,0.0,0.0,0.0,0.0,2.5084,0.0,0.0,0.0,0.0,2.6077,2.6518,2.6847,2.6564,0.0,0.0,0.0,0.0,0.0,0.0,0.0,2.7645,2.8535,2.9324,2.986,2.9744,2.9632,2.9761,3.0157,3.0432,3.0429,0.0,3.0922,3.0922,3.1185,3.1484,3.1687,3.1911,3.2223,3.2641,3.2694,3.2706,3.2694,3.2717,3.2717,3.2754,3.2959,3.3208,3.3185,3.2825,3.2331,3.1816,3.1706,3.2043,3.2946,3.3447,3.3426,3.079,3.0333,2.7646,2.6493,2.643,2.6686,2.6785,2.6818,2.7258,2.7156,2.6738,2.6716,2.6469,2.6022,2.623,0.0,2.7594,2.7873,2.8348,2.8994,2.9379,2.9848,3.0386,3.0581,3.0922,3.1394,3.1406,3.1406,3.1371,3.1384,3.1406,3.1333,2.9005,2.8066,2.8564,2.9283,2.9913,3.045,3.1597,3.2217,3.2277,3.2267,3.2256,3.2256,3.1788,3.1522,3.1472,3.1459,3.122,3.0688,3.0623,3.0124,2.911,0.0,0.0,0.0,0.0,0.0,0.0,0.0,0.0,0.0,0.0,0.0,0.0,0.0,0.0,0.0,2.7575,0.0,2.8642,2.8252,0.0,0.0,0.0,2.7413,2.773,2.8547,2.9264,2.9758,0.0,0.0,3.1249,3.1461,3.161,3.166,3.1537,3.1459,3.1472,3.1549,3.1587,3.166,3.1662,3.1873,3.2432,3.2903,3.3495,3.4314,3.4692,3.4577,3.4565,3.4577,3.4641,3.4565,3.4679,3.4641,3.4679,3.4554,3.44,3.3359,3.3115,3.3092,3.33,3.3998,3.4418,3.1599,3.1126,3.0257,2.961,2.9171,2.9218,2.9247,2.9259,2.9357,2.9117,2.8642,2.8641,2.8356,2.786,2.8052,2.8499,2.9084,2.9509,3.0004,3.0551,3.0805,3.1001,3.1137,3.119,3.1271,3.1396,3.1406,3.1406,3.1406,3.1406,3.1406,3.1371,3.0778,3.0531,3.0656,3.0854,3.1202,3.173,3.2047,3.2418,3.2866,3.2878,3.2889,3.2878,3.2753,3.2476,3.2028,3.2014,3.1763,3.1223,3.0814,3.0475,3.0211,2.9361,0.0,0.0,0.0,0.0,0.0,0.0,0.0,0.0,0.0,2.6902,2.7158,0.0,2.8002,0.0,2.888,2.9662,3.0208,3.0145,0.0,0.0,2.9939,2.9924,3.0019,3.0347,3.0636,3.076,3.146,3.2106,3.2553,3.3022,3.3458,3.3836,3.2807,3.2003,3.2026,3.278,3.3307,3.3319,3.3585,3.3961,3.4025,3.4201,3.4426,3.4641,3.4704,3.4692,3.4704,3.4692,3.4692,3.4692,3.4692,3.4692,3.4728,3.4692,3.464,3.4317,3.3671,3.337,3.4151,3.4554,3.4667,3.3135,3.2869,3.2752,3.2345,3.174,3.0805,3.0415,3.0405,3.0415,3.0245,2.9965,2.9967,2.9849,2.9677,2.9773,3.0034,3.0416,3.0672,3.0948,3.1235,3.1335,3.1512,3.175,3.175,3.1899,3.215,3.216,3.216,3.2162,3.2139,3.2148,3.2162,3.216,3.216,3.2148,3.1899,3.1903,3.2192,3.2466,3.2754,3.309,3.3113,3.3113,3.3113,3.3113,3.2928,3.2614,3.2604,3.234,3.1788,3.1476,3.12,3.0949,3.0359,3.0018,0.0,0.0,0.0,0.0,0.0,0.0,0.0,0.0,0.0,0.0,0.0,2.9419,2.9653,3.0266,3.075,3.1044,3.1071,3.1058,3.1071,3.1282,3.1531,3.1777,3.2144,3.2446,3.2662,3.3057,3.3447,3.3784,3.406,3.4363,3.4677,3.4102,3.3586,3.3386,3.3875,3.425,3.4286,3.4515,3.4803,3.5005,3.5279,3.5465,3.5465,3.5454,3.5454,3.5465,3.5454,3.5454,3.5441,3.5465,3.5453,3.5454,3.5465,3.5465,3.537,3.499,3.4827,3.5323,3.546,3.5412,3.4692,3.4692,3.4692,3.4438,3.3864,3.207,3.1231,3.1106,3.1085,3.1056,3.0972,3.091,3.0956,3.1135,3.1145,3.1285,3.1509,3.1497,3.1547,3.1622,3.1685,3.1976,3.2418,3.2482,3.2805,3.3293,3.3293,3.3303,3.3293,3.3293,3.3305,3.3293,3.3316,3.3293,3.328,3.2792,3.2482,3.2418,3.2941,3.3228,3.3305,3.3305,3.3316,3.3293,3.3241,3.3214,3.3203,3.314,3.2864,3.2342,3.2252,3.1991,3.1547,3.1434,3.1406,0.0,3.0969,0.0,0.0,0.0,0.0,0.0,0.0,0.0,0.0,3.0432,3.0934,3.1459,3.1562,3.1635,3.17,3.1773,3.1836,3.1848,3.2229,3.2742,3.3253,3.3721,3.4186,3.4641,3.4754,3.4803,3.4791,3.4865,3.4916,3.5128,3.5431,3.5518,3.5217,3.5029,3.4965,3.4916,3.499,3.5404,3.5833,3.6295,3.6607,3.6595,3.6595,3.6594,3.6595,3.6607,3.6607,3.6595,3.6607,3.6607,3.6607,3.6595,3.6534,3.6364,3.6243,3.6244,3.6297,3.631,3.6256,3.4692,3.4692,3.4692,3.4628,3.4504,3.4123,3.3463,3.2659,3.2648,3.2396,3.1889,3.1484,3.1315,3.1348,3.1348,3.1617,3.2041,3.2041,3.2315,3.2788,3.323,3.3483,3.3608,3.4013,3.4288,3.4388,3.4389,3.4389,3.4389,3.4389,3.44,3.44,3.44,3.44,3.44,0.0,0.0,0.0,3.3673,3.3949,3.4388,3.4389,3.4389,3.4388,3.3961,0.0,3.3734,3.3341,3.3052,3.2927,3.2466,0.0,0.0,0.0,0.0,0.0,0.0,0.0,0.0,0.0,0.0,0.0,3.1047,3.0962,3.1105,3.1198,3.1461,3.1991,3.2478,3.2964,3.3395,3.3834,3.4087,3.4076,3.4162,3.4288,3.4389,3.4501,3.459,3.469,3.508,3.5369,3.5408,3.5768,3.623,3.6595,3.6797,3.701,3.7287,3.657,3.6092,3.6104,3.6382,3.6885,3.7438,3.7588,3.7588,3.7701,3.7701,3.7663,3.7626,3.7651,3.7676,3.7663,3.7688,3.7663,3.7675,3.7701,3.7391,3.6591,3.6431,3.6417,3.6403,3.642,3.6477,3.5553,0.0,3.5529,3.5367,0.0,3.5104,3.4628,3.3884,3.3884,3.371,3.3422,3.3156,3.3043,3.3043,3.3032,3.3171,3.3434,3.3436,3.3608,3.3908,3.4308,3.4478,3.4491,3.4912,3.5097,3.5084,3.5084,3.5084,3.5095,3.5095,3.5095,3.5095,3.5185,3.5196,3.5084,3.5084,3.4845,3.4288,3.4288,3.4427,3.469,3.4692,3.4692,3.469,0.0,0.0,0.0,0.0,0.0,0.0,0.0,0.0,0.0,0.0,0.0,3.2629,3.288,3.302,3.302,3.3031,3.302,3.3031,3.302,3.2794,3.2286,3.2717,3.3133,3.3409,3.371,3.401,3.4262,3.4529,3.4692,3.4704,3.493,3.5093,3.5118,3.5354,3.5642,3.5906,3.6158,3.6421,3.6686,3.6973,3.7274,3.755,3.76,3.7688,3.7902,3.755,3.721,3.721,3.7387,3.7663,3.7915,3.8002,3.8015,3.8002,3.8002,3.8002,3.8002,3.8002,3.8002,3.8002,3.8002,3.8002,3.8002,3.8002,3.7816,3.7357,3.7208,3.7418,3.7828,3.7591,3.7273,3.6417,3.6417,3.6417,3.6106,3.5645,3.5704,3.5521,3.5172,0.0,0.0,0.0,3.4827,3.485,3.4838,3.485,3.4837,3.4837,3.4861,3.4848,3.4906,3.5244,3.5395,3.5451,3.5764,3.5924,3.597,3.597,3.5981,3.5981,3.5969,3.5994,3.6004,3.6135,3.6169,3.6024,3.5991,3.5736,3.525,3.5038,3.4948,3.5003,3.5003,3.5003,3.4992,3.4891,3.4841,3.4841,3.4741,3.449,3.4073,3.4048,3.3834,3.3418,3.3796,3.4059,3.4062,3.4463,3.4692,3.4692,3.4692,3.4692,3.4692,3.4779,3.4438,3.3456,3.4187,3.4692,3.4692,3.4778,3.483,3.4853,3.4953,3.5029,3.5128,3.5532,3.5846,3.5958,3.6358,3.6846,3.7248,3.7299,3.7487,3.7864,3.7927,3.8065,3.8128,3.8165,3.8228,3.8241,3.8115,3.7964,3.809,3.8153,3.8203,3.8304,3.8366,3.8304,3.8391,3.8354,3.8304,3.8316,3.8341,3.8378,3.8491,3.8415,3.8503,3.8465,3.8553,3.8403,3.8315,3.829,3.859,3.9468,3.9091,3.8415,3.6417,3.6417,3.6417,3.6355,3.6279,3.6467,3.6756,3.6975,3.5653,3.5055,3.5053,3.5287,3.5374,3.5374,3.5385,3.5398,3.5385,3.5396,3.5485,3.5664,3.6223,3.6567,3.6756,3.7236,3.7598,3.7804,3.7815,3.7815,3.7826,3.7802,3.7815,3.7826,3.7849,3.7949,3.8045,3.7926,3.7666,3.7368,3.6285,3.5873,3.6154,3.6167,3.6167,3.613,3.5656,3.5382,3.5382,3.4966,3.4677,3.459,3.459,3.454,3.4477,3.4527,3.459,3.4579,3.4665,3.4692,3.4704,3.4692,3.4692,3.4728,3.5131,3.5131,3.4552,3.4626,3.4692,3.4728,3.5143,3.5382,3.5408,3.5855,3.6331,3.6734,3.6909,3.7123,3.7488,3.7651,3.7751,3.7877,3.7889,3.7914,3.8065,3.8078,3.8278,3.8642,3.8768,3.8906,3.9107,3.8617,3.8303,3.863,3.8768,3.8969,3.9233,3.9459,3.9358,3.9446,3.9383,3.9371,3.9359,3.955,3.969,3.9779,3.988,4.0032,4.0057,4.0147,3.9892,3.955,3.9424,3.9664,4.0273,4.0197,3.9816,3.7695,3.7707,3.7707,3.7707,3.7731,3.81,3.8492,3.8818,3.8388,3.757,3.6602,3.6701,3.6758,3.6733,3.6745,3.6758,3.6745,3.6893,3.7017,3.7144,3.764,3.795,3.8073,3.8548,3.885,3.8964,3.9111,3.9338,3.9645,3.9672,3.9846,4.018,4.0205,4.0305,4.047,4.0171,3.9851,3.9558,3.7726,3.6689,3.6569,3.6557,3.6511,3.6417,3.6118,3.5994,3.5981,3.5742,3.5467,3.5155,3.5143,3.4993,3.4728,3.4979,3.5143,3.5143,3.543,3.5604,3.564,3.5616,3.5617,3.5628,3.583,3.6019,3.6056,3.5792,3.5628,3.5641,3.6119,3.6433,3.6434,3.6935,3.7374,3.7588,3.7626,3.7751,3.7927,3.8002,3.8128,3.8416,3.8492,3.8605,3.8894,3.8919,3.8994,3.9296,3.9333,3.9421,3.9659,3.927,3.8981,3.927,3.9346,3.9408,3.966,3.971,3.971,3.971,3.9826,3.9903,3.9955,4.0236,4.0516,4.0554,4.0757,4.0908,4.0959,4.0933,4.0806,4.0653,4.0297,4.0437,4.0946,4.1086,4.0654,3.898,3.8981,3.8981,3.9077,3.927,3.975,4.014,4.0541,4.0912,4.0285,3.899,3.8648,3.8546,3.8535,3.8546,3.8579,3.8672,3.8832,3.9005,3.9128,3.9465,3.9689,3.9823,4.0178,4.0399,4.0519,4.0722,4.1058,4.146,4.1513,4.1775,4.2245,4.2346,4.2444,4.2586,4.214,4.178,4.1398,3.953,3.8111,3.7385,3.729,3.7138,3.6865,3.6853,3.683,3.6782,3.677,3.6482,3.5932,3.5895,3.5632,3.5152,3.548,3.5707,3.5744,3.6131,3.6456,3.6569,3.6695,3.6758,3.6757,3.6758,3.6934,3.7286,3.7009,3.6782,3.6808,3.7135,3.7374,3.7387,3.7713,3.8052,3.8165,3.8203,3.8291,3.8366,3.8379,3.8542,3.8994,3.9082,3.9245,3.9584,3.971,3.9659,3.9647,3.971,3.971,3.971,3.971,3.971,3.971,3.971,3.9724,3.9762,3.9788,3.9826,3.9839,4.0109,4.0262,4.0389,4.077,4.1159,4.1271,4.1558,4.1805,4.1818,4.1855,4.1854,4.1776,4.1345,4.1233,4.2227,4.2148,4.1546,3.9562,3.9536,3.9612,3.9952,4.0654,4.0906,4.1404,4.1984,4.2058,4.2144,4.2021,4.1203,4.0798,4.0802,4.0759,4.0873,4.108,4.118,4.1388,4.1732,4.1878,4.2113,4.2403,4.2545,4.2812,4.313,4.3167,4.3181,4.33,4.335,4.3401,4.3451,4.3694,4.3817,4.3802,4.3391,4.3021,4.2745,4.193,4.08,3.9402,3.909,3.8729,3.8232,3.822,3.811,3.7826,3.7852,3.76,3.711,3.7022,3.6796,3.633,3.6305,3.633,3.6343,3.6393,3.6595,3.7085,3.7575,3.7814,3.7852,3.7801,3.7826,3.7927,3.7877,3.7852,3.7877,3.7902,3.7927,3.7939,3.8015,3.8304,3.8768,3.8818,3.9007,3.9371,3.9534,3.9584,3.9622,3.9572,3.9634,3.9685,3.971,3.971,3.971,3.971,3.9723,3.9736,3.9749,3.9774,3.9749,3.9723,3.9839,3.9993,4.0057,4.0185,4.0377,4.0656,4.0845,4.1059,4.1533,4.2053,4.2356,4.266,4.3038,4.3266,4.3386,4.3324,4.3249,4.2846,4.2495,4.3666,4.3781,4.3023,4.1554,4.1553,4.1658,4.2158,4.2838,4.3115,4.3593,4.4132,4.4279,4.4377,4.4436,4.4038,4.3191,4.201,4.2106,4.223,4.2354,4.262,4.2839,4.3024,4.3195,4.3374,4.3552,4.3679,4.3852,4.4,4.4168,4.4422,4.4802,4.5182,4.5361,4.5387,4.5486,4.5533,4.5515,4.5193,4.4957,4.4828,4.4157,4.3412,4.2496,4.0686,3.9487,3.9139,3.8812,3.8592,3.8482,3.8482,3.838,3.8151,3.7993,3.7807,3.7604,3.7434,3.7349,3.7337,3.7361,3.7449,3.7675,3.7889,3.8002,3.8002,3.8002,3.814,3.8492,3.8529,3.8642,3.8906,3.8718,3.8542,3.8555,3.8818,3.912,3.9333,3.9371,3.9446,3.9659,3.971,3.971,3.971,3.971,3.971,3.971,3.971,3.971,3.971,3.971,3.9774,3.9903,3.9929,4.0006,4.016,4.03,4.0287,4.0224,4.0415,4.0681,4.0971,4.1335,4.1645,4.2117,4.2541,4.3098,4.3479,4.393,4.4249,4.4408,4.452,4.4537,4.4682,4.5166,4.5156,4.6212,4.5753,4.4927,4.3357,4.3425,4.3721,4.4165,4.4733,4.4998,4.537,4.5787,4.5964,4.6005,4.6028,4.6005,4.5161,4.3838,4.3702,4.3735,4.3846,4.4152,4.4349,4.444,4.4621,4.473,4.4795,4.4957,4.506,4.515,4.5348,4.5649,4.6093,4.6537,4.6793,4.6793,4.6793,4.6807,4.6771,4.6535,4.6403,4.6318,4.5727,4.5267,4.4697,4.2574,4.0998,4.0402,3.9932,3.9641,3.9481,3.9494,3.9416,3.9262,3.9018,3.8782,3.8605,3.8372,3.8212,3.8249,3.8376,3.8439,3.8377,3.8504,3.8567,3.8567,3.8567,3.8793,3.9196,3.9285,3.9398,3.9687,3.9397,3.912,3.917,3.9471,3.9685,3.971,3.971,3.971,3.971,3.971,3.971,3.971,3.971,3.971,3.9723,3.9762,3.9814,3.9826,3.9903,4.012,4.0466,4.0619,4.076,4.1221,4.1566,4.1384,4.0771,4.1254,4.1618,4.2196,4.2771,4.3538,4.3742,4.4253,4.4768,4.5501,4.5556,4.5794,4.6247,4.6244,4.6103,4.6624,4.6993,4.7444,4.8301,4.7607,4.7052,4.4443,4.4685,4.5181,4.5486,4.5732,4.6005,4.6291,4.6528,4.6561,4.6561,4.6561,4.6561,4.6506,4.6267,4.5764,4.5788,4.5978,4.5975,4.6105,4.6307,4.6395,4.6564,4.6777,4.6798,4.6878,4.6889,4.6906,4.7039,4.7144,4.7225,4.7262,4.7255,4.7233,4.7255,4.7212,4.6964,4.6851,4.6785,4.6377,4.6046,4.5764,4.4904,4.3662,4.2435,4.2043,4.161,4.1253,4.118,4.0957,4.0448,4.02,3.9819,3.9265,3.8946,3.8839,3.8877,3.9338,3.9508,3.9359,3.9677,3.9931,3.9969,3.988,4.0109,4.0262,4.0135,4.0045,4.0096,3.984,3.9661,3.9661,3.9686,3.971,3.971,3.971,3.971,3.971,3.971,3.971,3.971,3.9735,3.9861,3.9798,3.9929,4.0184,4.0274,4.0377,4.0824,4.1582,4.175,4.2214,4.3004,4.3378,4.3268,4.2127,4.2547,4.3387,4.3985,4.4783,4.5896,4.6308,4.6687,4.7097,4.7442,4.7483,4.7714,4.8234,4.8376,4.8217,4.8376,4.8438,4.8957,4.9701,4.9135,4.8629,4.5441,4.5668,4.5863,4.6154,4.651,4.6609,4.68,4.7059,4.7059,4.7044,4.7044,4.7044,4.7044,4.7044,4.6844,4.6723,4.6664,4.6822,4.6972,4.7044,4.7044,4.7088,4.7138,4.7153,4.7182,4.7287,4.7298,4.7298,4.7298,4.7298,4.7298,4.7298,4.7298,4.7298,4.7287,4.7222,4.7138,4.7131,4.6822,4.6598,4.6476,4.596,4.5298,4.4582,4.3394,4.2712,4.2516,4.2396,4.2244,4.2043,4.1783,4.1457,4.1076,4.0645,4.0398,4.0424,4.0605,4.061,4.0398,4.0515,4.0529,4.0389,4.0529,4.0668,4.0719,4.0681,4.0605,4.0554,4.0364,4.0224,4.0134,3.9916,3.971,3.971,3.971,3.9761,3.971,3.971,3.971,3.9747,3.996,4.039,4.089,4.1134,4.1332,4.1633,4.1776,4.2216,4.2926,4.33,4.3686,4.4378,4.4885,4.5148,4.5096,4.4667,4.4958,4.5635,4.6383,4.6959,4.7428,4.7739,4.8097,4.845,4.8745,4.8893,4.9125,4.9411,4.9425,4.9263,4.9375,4.995,5.0804,5.0057,4.9813,4.6266,4.6421,4.6535,4.6719,4.7008,4.7015,4.7117,4.7298,4.7298,4.7298,4.7298,4.7298,4.7298,4.7298,4.7298,4.7197,4.7077,4.7233,4.7298,4.7298,4.7298,4.7298,4.7298,4.7298,4.7298,4.7298,4.7298,4.7298,4.7298,4.7298,4.7298,4.7298,4.7298,4.7298,4.7298,4.7298,4.7298,4.7251,4.7121,4.6997,4.6862,4.6602,4.6299,4.5927,4.4816,4.3989,4.3721,4.3485,4.3393,4.3343,4.3137,4.2808,4.2457,4.2113,4.188,4.1844,4.1819,4.1682,4.1459,4.1422,4.1347,4.1198,4.1297,4.1434,4.1522,4.1471,4.1421,4.136,4.1097,4.0922,4.1066,4.0862,4.0568,4.0439,4.0388,4.0451,4.0616,4.0667,4.0641,4.0678,4.0879,4.1364,4.1908,4.2091,4.2421,4.2932,4.3075,4.3529,4.4473,4.4858,4.5384,4.6149,4.6671,4.7195,4.7421,4.7385,4.6987,4.7479,4.8,4.842,4.8621,4.8884,4.9108,4.9453,4.9643,4.9742,4.9952,5.0267,5.0215,4.9964,5.0207,5.0696,5.0973,5.0923,5.0615,4.6887,4.6905,4.7186,4.7255,4.7266,4.7266,4.7298,4.7298,4.7298,4.7298,4.7298,4.7298,4.7298,4.7298,4.7298,4.7287,4.7262,4.7287,4.7298,4.7298,4.7298,4.7298,4.7298,4.7298,4.7298,4.7298,4.7298,4.7298,4.7298,4.7298,4.7298,4.7298,4.7298,4.7298,4.7298,4.7298,4.7298,4.7298,4.7266,4.7164,4.6938,4.6898,4.6789,4.6605,4.6199,4.5622,4.4761,4.4537,4.4399,4.4373,4.4158,4.3766,4.3375,4.3196,4.31,4.2934,4.2899,4.2776,4.2543,4.2506,4.2494,4.2421,4.2482,4.2579,4.2714,4.2616,4.2533,4.254,4.2211,4.2035,4.2575,4.2643,4.2389,4.1904,4.1789,4.1996,4.2372,4.2566,4.2487,4.2224,4.2196,4.2328,4.2604,4.3022,4.348,4.4038,4.4359,4.4955,4.6138,4.6486,4.7192,4.8246,4.864,4.8801,4.9458,5.0001,4.958,4.9388,4.9822,5.0221,5.0138,5.0261,5.0263,5.0526,5.0485,5.0584,5.0543,5.0832,5.0892,5.0793,5.1129,5.1132,5.1103,5.1059,5.1118,4.7175,4.7186,4.7262,4.7298,4.7298,4.7298,4.7298,4.7298,4.7298,4.7298,4.7298,4.7298,4.7298,4.7298,4.7298,4.7298,4.7298,4.7298,4.7298,4.7298,4.7298,4.7298,4.7298,4.7298,4.7298,4.7298,4.7298,4.7298,4.7298,4.7298,4.7298,4.7298,4.7298,4.7298,4.7298,4.7298,4.7298,4.7298,4.7298,4.724,4.7175,4.7175,4.7131,4.7066,4.6822,4.6495,4.6218,4.5668,4.5384,4.5364,4.5278,4.5015,4.4567,4.4207,4.3995,4.3938,4.394,4.3806,4.3576,4.3543,4.3457,4.335,4.3433,4.3553,4.3638,4.3616,4.3748,4.4029,4.3848,4.3884,4.4425,4.46,4.4176,4.3096,4.3135,4.3342,4.3581,4.3413,4.3284,4.3374,4.3386,4.3741,4.4428,4.4758,4.5139,4.5957,4.6242,4.6776,4.7775,4.8162,4.8632,4.9556,4.9829,4.9999,5.0325,5.054,5.0372,5.015,5.0573,5.0917,5.1011,5.107,5.1167,5.1217,5.1217,5.1217,5.1217,5.1217,5.1217,5.1217,5.1194,5.1194,5.1206,5.1217,5.1217,4.7298,4.7298,4.7298,4.7298,4.7298,4.7298,4.7298,4.7298,4.7298,4.7298,4.7298,4.7298,4.7298,4.7298,4.7298,4.7298,4.7298,4.7298,4.7298,4.7298,4.7298,4.7298,4.7298,4.7298,4.7298,4.7298,4.7298,4.7298,4.7298,4.7298,4.7298,4.7298,4.7298,4.7298,4.7298,4.7298,4.7298,4.7298,4.7298,4.7298,4.7298,4.7298,4.7298,4.7277,4.7142,4.7066,4.7019,4.6587,4.6277,4.6143,4.6098,4.5896,4.5535,4.5227,4.5009,4.4943,4.4919,4.4833,4.468,4.4692,4.4622,4.4483,4.4506,4.474,4.4926,4.4985,4.5209,4.5801,4.5749,4.5832,4.6402,4.6569,4.6234,4.5769,4.5236,4.5122,4.5168,4.4955,4.4844,4.4995,4.5009,4.5434,4.5965,4.6376,4.6781,4.7633,4.7903,4.8232,4.9056,4.9432,4.9851,5.0192,5.0385,5.0585,5.0843,5.0964,5.1026,5.0928,5.0967,5.1085,5.1132,5.1155,5.1217,5.1217,5.1217,5.1217,5.1217,5.1217,5.1217,5.1217,5.1215,5.1217,5.1217,5.1217,5.1217,4.7429,4.7414,4.7418,4.7504,4.7519,4.7519,4.7578,4.7489,4.7504,4.7563,4.7519,4.7623,4.7534,4.7474,4.7638,4.7623,4.7448,4.7578,4.7549,4.7474,4.7429,4.7429,4.7324,4.7298,4.7298,4.7298,4.7298,4.7298,4.7298,4.7298,4.7298,4.7298,4.7298,4.7298,4.7298,4.7298,4.7298,4.7298,4.7298,4.7298,4.7298,4.7298,4.7298,4.7298,4.7277,4.7262,4.7255,4.7164,4.7012,4.6694,4.6594,4.6447,4.6266,4.621,4.6009,4.5803,4.5837,4.5803,4.5814,4.5735,4.5735,4.5702,4.5707,4.5926,4.6488,4.6587,4.6882,4.7636,4.7567,4.7721,4.8216,4.8403,4.8602,4.897,4.7758,4.7245,4.7608,4.7201,4.6875,4.68,4.6883,4.7001,4.7325,4.7556,4.8065,4.8683,4.8932,4.9316,4.979,5.0141,5.0346,5.0588,5.0802,5.0896,5.1058,5.1082,5.1135,5.118,5.1248,5.1365,5.1358,5.137,5.1442,5.1412,5.1487,5.1412,5.1472,5.1666,5.1452,5.1232,5.1223,5.1218,5.1412,5.1609,5.1654,4.8768,4.8783,4.8783,4.8768,4.8779,4.8783,4.8753,4.8768,4.8753,4.8678,4.8753,4.8768,4.8678,4.8753,4.8738,4.8783,4.8693,4.8708,4.8468,4.8098,4.8027,4.7728,4.7399,4.7298,4.7298,4.7298,4.7298,4.7298,4.7298,4.7298,4.7298,4.7298,4.7298,4.7298,4.7298,4.7298,4.7298,4.7298,4.7298,4.7298,4.7298,4.7298,4.7298,4.7298,4.7298,4.7298,4.7298,4.7298,4.7266,4.7121,4.6909,4.6785,4.6697,4.6591,4.6469,4.6414,4.6391,4.638,4.638,4.6421,4.6395,4.6435,4.6794,4.715,4.7354,4.7801,4.8318,4.8893,4.8984,4.9186,4.9731,4.989,5.0036,5.0037,4.9344,4.8835,4.8807,4.874,4.8503,4.8152,4.8065,4.8191,4.838,4.8583,4.8893,4.9537,4.9793,4.9926,5.0394,5.0597,5.0719,5.0923,5.11,5.1135,5.1167,5.1194,5.1236,5.131,5.1475,5.1747,5.1741,5.1738,5.1872,5.1962,5.2276,5.2318,5.2528,5.2752,5.2186,5.1553,5.1762,5.2037,5.2381,5.2629,5.2567,4.9288,4.9288,4.9288,4.9288,4.9288,4.9288,4.9288,4.9288,4.9288,4.9288,4.9288,4.9288,4.9288,4.9288,4.9288,4.9288,4.9288,4.9288,4.9067,4.8727,4.8412,4.7923,4.7433,4.7298,4.7298,4.7298,4.7298,4.7298,4.7298,4.7298,4.7298,4.7298,4.7298,4.7298,4.7298,4.7298,4.7298,4.7298,4.7298,4.7298,4.7298,4.7298,4.7298,4.7298,4.7298,4.7298,4.7298,4.7298,4.7298,4.7251,4.7138,4.7062,4.7051,4.6979,4.6891,4.6891,4.6891,4.688,4.6951,4.7129,4.7318,4.7414,4.7855,4.8303,4.8637,4.9011,4.9413,5.0096,5.0199,5.0422,5.0677,5.0808,5.0796,5.0733,5.0516,5.0192,4.9841,4.9669,4.9498,4.9266,4.9192,4.9217,4.9389,4.949,4.9817,5.0202,5.0358,5.0573,5.0858,5.097,5.1152,5.1446,5.1681,5.1774,5.1995,5.2067,5.21,5.2085,5.213,5.2339,5.2441,5.2396,5.2468,5.2707,5.3019,5.3243,5.3363,5.3321,5.2874,5.2523,5.2705,5.3026,5.3454,5.3579,5.3507,4.9513,4.9498,4.9498,4.9498,4.9546,4.9516,4.9636,4.9531,4.9621,4.9591,4.9606,4.9557,4.9681,4.9498,4.9741,4.9561,4.9561,4.9696,4.9531,4.9247,4.8798,4.8143,4.7578,4.7354,4.7324,4.7298,4.7298,4.7298,4.7298,4.7298,4.7298,4.7298,4.7298,4.7298,4.7298,4.7298,4.7298,4.7298,4.7298,4.7298,4.7298,4.7298,4.7298,4.7298,4.7298,4.7298,4.7298,4.7298,4.7298,4.7298,4.7298,4.7262,4.7287,4.7273,4.7262,4.7315,4.7338,4.7413,4.7527,4.7976,4.8364,4.841,4.8756,4.9326,4.9838,4.9996,5.0315,5.0933,5.1191,5.1087,5.1117,5.1167,5.1147,5.1112,5.112,5.0958,5.0665,5.0366,5.0207,5.0171,5.0144,5.0171,5.0331,5.0493,5.0753,5.1382,5.1425,5.1563,5.1718,5.1798,5.1983,5.2223,5.2396,5.2531,5.2797,5.3049,5.3097,5.3114,5.3114,5.3249,5.3456,5.3426,5.3321,5.3438,5.377,5.3845,5.3797,5.3623,5.3446,5.3539,5.3714,5.4207,5.4687,5.4576,5.4502,5.0784,5.0784,5.0784,5.081,5.081,5.0784,5.0769,5.0754,5.0754,5.069,5.0765,5.0765,5.0739,5.0754,5.069,5.081,5.069,5.0661,5.0533,4.9946,4.9396,4.8738,4.8098,4.7649,4.7328,4.7313,4.7298,4.7298,4.7298,4.7298,4.7298,4.7298,4.7298,4.7298,4.7298,4.7298,4.7298,4.7298,4.7298,4.7298,4.7298,4.7298,4.7298,4.7298,4.7298,4.7298,4.7298,4.7298,4.7298,4.7298,4.7339,4.7384,4.7384,4.7369,4.7399,4.7549,4.7874,4.8087,4.8218,4.8667,4.9082,4.9131,4.9571,4.9997,5.0166,5.0651,5.0923,5.1217,5.1217,5.1217,5.1217,5.1217,5.1217,5.1217,5.1206,5.1155,5.105,5.0982,5.0825,5.0692,5.0689,5.0837,5.1313,5.1426,5.1812,5.2443,5.2623,5.2677,5.2626,5.2561,5.274,5.2902,5.301,5.3159,5.3471,5.3725,5.383,5.3907,5.3952,5.4012,5.4219,5.4234,5.4054,5.4204,5.4533,5.4503,5.4339,5.4533,5.4476,5.461,5.4625,5.4848,5.5035,5.5185,5.5168,5.1217,5.1217,5.1217,5.1217,5.1217,5.1217,5.1217,5.1217,5.1217,5.1217,5.1217,5.1217,5.1217,5.1217,5.1217,5.1202,5.1217,5.1191,5.1011,5.0563,5.0036,4.9527,4.906,4.8233,4.7653,4.7384,4.7298,4.7298,4.7298,4.7298,4.7298,4.7298,4.7298,4.7298,4.7298,4.7298,4.7298,4.7298,4.7298,4.7298,4.7298,4.7298,4.7298,4.7298,4.7298,4.7298,4.7298,4.7298,4.7489,4.7668,4.7769,4.7784,4.7773,4.7784,4.7893,4.8263,4.8513,4.8768,4.8917,4.9329,4.9718,4.9733,5.0293,5.0551,5.0686,5.1026,5.1173,5.1217,5.1217,5.1217,5.1217,5.1217,5.1217,5.1217,5.1217,5.1217,5.1217,5.1217,5.1167,5.1098,5.1286,5.1569,5.1882,5.2233,5.252,5.3003,5.3,5.3042,5.2968,5.2965,5.3294,5.3473,5.3608,5.3803,5.4117,5.4354,5.4488,5.4578,5.4653,5.47,5.482,5.4775,5.4658,5.482,5.4922,5.5012,5.4937,5.5192,5.5207,5.5057,5.4997,5.5147,5.5202,5.52,5.5198,5.1217,5.1217,5.1217,5.1217,5.1217,5.1217,5.1217,5.1217,5.1217,5.1217,5.1217,5.1217,5.1217,5.1217,5.1217,5.1217,5.1217,5.1217,5.1116,5.1011,5.0607,5.0234,4.9845,4.9093,4.8263,4.7523,4.7354,4.7324,4.7298,4.7298,4.7298,4.7298,4.7298,4.7298,4.7298,4.7298,4.7298,4.7298,4.7298,4.7298,4.7298,4.7298,4.7298,4.7298,4.7298,4.7414,4.7504,4.7589,4.7773,4.8382,4.8457,4.8517,4.8577,4.8502,4.8637,4.9243,4.9307,4.9415,4.955,4.9976,5.0368,5.0375,5.0817,5.1143,5.1173,5.1146,5.1202,5.1217,5.1217,5.1217,5.1217,5.1217,5.1217,5.1217,5.1217,5.1217,5.1232,5.1262,5.1415,5.1475,5.1753,5.2058,5.2605,5.3041,5.3282,5.3468,5.3468,5.3468,5.3426,5.353,5.3907,5.4147,5.4296,5.4356,5.4638,5.4698,5.4877,5.4937,5.5087,5.5132,5.5179,5.5074,5.497,5.5072,5.5162,5.5207,5.5207,5.5207,5.5207,5.5207,5.5207,5.5207,5.5207,5.5207,5.5207,5.1217,5.1217,5.1217,5.1217,5.1217,5.1217,5.1217,5.1217,5.1217,5.1217,5.1217,5.1217,5.1217,5.1217,5.1217,5.1217,5.1217,5.1217,5.1217,5.1217,5.0993,5.0772,5.0252,4.9875,4.9168,4.8233,4.7724,4.7474,4.7313,4.7298,4.7298,4.7298,4.7298,4.7298,4.7298,4.7298,4.7298,4.7298,4.7298,4.7298,4.7298,4.7384,4.7414,4.7429,4.7489,4.7728,4.8038,4.8158,4.8438,4.9048,4.9138,4.94,4.9617,4.9404,4.9322,4.9486,4.9853,5.0054,5.0155,5.0619,5.0966,5.1071,5.1143,5.1202,5.1217,5.1217,5.1217,5.1217,5.1217,5.1217,5.1217,5.1217,5.1217,5.1217,5.1217,5.1217,5.128,5.1606,5.1962,5.2052,5.2276,5.2591,5.3204,5.3773,5.4072,5.4279,5.4354,5.4398,5.4413,5.4533,5.4773,5.4922,5.5014,5.5029,5.5117,5.5072,5.5117,5.5087,5.5162,5.5162,5.5207,5.5207,5.5207,5.5207,5.5207,5.5207,5.5207,5.5207,5.5207,5.5207,5.5207,5.5207,5.5207,5.5207,5.5207,5.1217,5.1217,5.1217,5.1217,5.1217,5.1217,5.1217,5.1217,5.1217,5.1217,5.1217,5.1217,5.1217,5.1217,5.1217,5.1217,5.1217,5.1217,5.1217,5.1217,5.1187,5.1083,5.0652,5.0398,4.9905,4.9254,4.8656,4.7893,4.7358,4.7298,4.7358,4.7298,4.7298,4.7298,4.7298,4.7298,4.7339,4.7339,4.7354,4.7339,4.7388,4.7593,4.7814,4.7878,4.8143,4.8513,4.8708,4.8813,4.9116,4.9617,4.9766,5.0114,5.0398,5.0469,5.0253,5.0287,5.0529,5.0701,5.0727,5.1056,5.1173,5.1202,5.1217,5.1217,5.1217,5.1217,5.1217,5.1217,5.1217,5.1217,5.1217,5.1217,5.1217,5.1217,5.1217,5.1217,5.1352,5.1843,5.2261,5.2665,5.3159,5.3518,5.3877,5.4386,5.4805,5.5057,5.5177,5.5207,5.5207,5.5207,5.5207,5.5207,5.5179,5.5207,5.5207,5.5207,5.5207,5.5207,5.5207,5.5207,5.5207,5.5207,5.5207,5.5207,5.5207,5.5207,5.5207,5.5207,5.5207,5.5207,5.5207,5.5207,5.5207,5.5207,5.5207,5.1217,5.1217,5.1217,5.1217,5.1217,5.1217,5.1217,5.1217,5.1217,5.1217,5.1217,5.1217,5.1217,5.1217,5.1217,5.1217,5.1217,5.1217,5.1217,5.1217,5.1217,5.1187,5.1053,5.0715,5.0282,4.9964,4.9632,4.8846,4.8072,4.7863,4.7758,4.7863,4.7758,4.7713,4.7803,4.7934,4.7713,4.7698,4.7698,4.7698,4.7833,4.8188,4.8498,4.8513,4.9033,4.9303,4.9445,4.9475,4.9808,5.0219,5.0446,5.0626,5.1086,5.1202,5.1202,5.1217,5.1217,5.1217,5.1191,5.1176,5.1217,5.1217,5.1217,5.1217,5.1217,5.1217,5.1217,5.1217,5.1217,5.1217,5.1217,5.1217,5.1217,5.1217,5.1217,5.1262,5.1457,5.1902,5.2633,5.3201,5.3922,5.4326,5.4551,5.4685,5.5042,5.5087,5.5207,5.5207,5.5207,5.5207,5.5207,5.5207,5.5207,5.5207,5.5207,5.5207,5.5207,5.5207,5.5207,5.5207,5.5207,5.5207,5.5207,5.5207,5.5207,5.5207,5.5207,5.5207,5.5207,5.5207,5.5207,5.5207,5.5207,5.5207,5.5207,5.1217,5.1217,5.1217,5.1217,5.1217,5.1217,5.1217,5.1217,5.1217,5.1217,5.1217,5.1217,5.1217,5.1217,5.1217,5.1217,5.1217,5.1217,5.1217,5.1217,5.1217,5.1217,5.1217,5.1146,5.0686,5.0401,5.0192,4.9722,4.9119,4.8977,4.8947,4.8902,4.8828,4.9003,4.8783,4.8753,4.9067,4.9007,4.8992,4.8989,4.8989,4.9082,4.9157,4.9202,4.9366,4.9666,5.0051,5.0129,5.0398,5.0918,5.1041,5.1116,5.1217,5.1217,5.1217,5.1217,5.1217,5.1217,5.1217,5.1217,5.1217,5.1217,5.1217,5.1217,5.1217,5.1217,5.1217,5.1217,5.1217,5.1217,5.1217,5.1217,5.1217,5.1217,5.1217,5.1247,5.1412,5.2243,5.2947,5.3575,5.4236,5.4713,5.5042,5.5117,5.5192,5.5207,5.5207,5.5207,5.5207,5.5207,5.5207,5.5207,5.5207,5.5207,5.5207,5.5207,5.5207,5.5207,5.5207,5.5207,5.5207,5.5207,5.5207,5.5207,5.5207,5.5207,5.5207,5.5207,5.5207,5.5207,5.5207,5.5207,5.5207,5.5207,5.5207,5.1217,5.1217,5.1217,5.1217,5.1217,5.1217,5.1217,5.1217,5.1217,5.1217,5.1217,5.1217,5.1217,5.1217,5.1217,5.1217,5.1217,5.1217,5.1217,5.1217,5.1217,5.1217,5.1217,5.1191,5.0955,5.0832,5.0742,5.0709,5.0227,4.9636,4.9288,4.9348,4.9318,4.9228,4.9438,4.9318,4.9273,4.9258,4.9273,4.9273,4.9366,4.961,4.9796,4.9811,5.0137,5.0455,5.0637,5.0787,5.0877,5.1202,5.1217,5.1217,5.1217,5.1217,5.1217,5.1217,5.1217,5.1217,5.1217,5.1217,5.1217,5.1217,5.1217,5.1217,5.1217,5.1217,5.1217,5.1217,5.1217,5.1217,5.1217,5.1217,5.1217,5.1217,5.1217,5.1502,5.1786,5.2576,5.3336,5.395,5.4503,5.4907,5.5207,5.5207,5.5207,5.5207,5.5207,5.5207,5.5207,5.5207,5.5207,5.5207,5.5207,5.5207,5.5207,5.5207,5.5207,5.5207,5.5207,5.5207,5.5207,5.5207,5.5207,5.5207,5.5207,5.5207,5.5207,5.5207,5.5207,5.5207,5.5207,5.5207,5.5207,5.5207,5.5207,5.1217,5.1217,5.1217,5.1217,5.1217,5.1217,5.1217,5.1217,5.1217,5.1217,5.1217,5.1217,5.1217,5.1217,5.1217,5.1217,5.1217,5.1217,5.1217,5.1217,5.1217,5.1217,5.1217,5.1191,5.1191,5.1217,5.1113,5.1083,5.0843,5.0391,4.992,4.9771,4.9965,4.989,4.9831,4.9894,4.9939,4.9924,4.9909,4.9894,4.9939,5.0249,5.0401,5.0596,5.0892,5.1217,5.1217,5.1187,5.1187,5.1202,5.1217,5.1217,5.1217,5.1217,5.1217,5.1217,5.1217,5.1217,5.1217,5.1217,5.1217,5.1217,5.1217,5.1217,5.1217,5.1217,5.1217,5.1217,5.1217,5.1217,5.1217,5.1217,5.1217,5.1217,5.1217,5.1651,5.2142,5.2812,5.3471,5.4057,5.4566,5.4982,5.5207,5.5207,5.5207,5.5207,5.5207,5.5207,5.5207,5.5207,5.5207,5.5207,5.5207,5.5207,5.5207,5.5207,5.5207,5.5207,5.5207,5.5207,5.5207,5.5207,5.5207,5.5207,5.5207,5.5207,5.5207,5.5207,5.5207,5.5207,5.5207,5.5207,5.5207,5.5207,5.5207,5.1217,5.1217,5.1217,5.1217,5.1217,5.1217,5.1217,5.1217,5.1217,5.1217,5.1217,5.1217,5.1217,5.1217,5.1217,5.1217,5.1217,5.1217,5.1217,5.1217,5.1217,5.1217,5.1217,5.1217,5.1217,5.1217,5.1217,5.1217,5.1187,5.1008,5.0915,5.1053,5.075,5.096,5.093,5.0735,5.0769,5.078,5.0784,5.0843,5.0858,5.1008,5.1026,5.1056,5.1158,5.1217,5.1217,5.1217,5.1217,5.1217,5.1217,5.1217,5.1217,5.1217,5.1217,5.1217,5.1217,5.1217,5.1217,5.1217,5.1217,5.1217,5.1217,5.1217,5.1217,5.1217,5.1217,5.1217,5.1217,5.1217,5.1217,5.1217,5.1217,5.1217,5.1322,5.1741,5.2232,5.2812,5.3471,5.4132,5.464,5.5072,5.5207,5.5207,5.5207,5.5207,5.5207,5.5207,5.5207,5.5207,5.5207,5.5207,5.5207,5.5207,5.5207,5.5207,5.5207,5.5207,5.5207,5.5207,5.5207,5.5207,5.5207,5.5207,5.5207,5.5207,5.5207,5.5207,5.5207,5.5207,5.5207,5.5207,5.5207,5.5207,5.5207,5.1217,5.1217,5.1217,5.1217,5.1217,5.1217,5.1217,5.1217,5.1217,5.1217,5.1217,5.1217,5.1217,5.1217,5.1217,5.1217,5.1217,5.1217,5.1217,5.1217,5.1217,5.1217,5.1217,5.1217,5.1217,5.1217,5.1217,5.1217,5.1217,5.1217,5.1217,5.1202,5.1217,5.1202,5.1202,5.1217,5.1217,5.1217,5.1217,5.1217,5.1217,5.1217,5.1217,5.1217,5.1217,5.1217,5.1217,5.1217,5.1217,5.1217,5.1217,5.1217,5.1217,5.1217,5.1217,5.1217,5.1217,5.1217,5.1217,5.1217,5.1217,5.1217,5.1217,5.1217,5.1217,5.1217,5.1217,5.1217,5.1217,5.1217,5.1217,5.1217,5.1217,5.1217,5.1412,5.1786,5.2381,5.2962,5.371,5.4476,5.482,5.5162,5.5207,5.5207,5.5207,5.5207,5.5207,5.5207,5.5207,5.5207,5.5207,5.5207,5.5207,5.5207,5.5207,5.5207,5.5207,5.5207,5.5207,5.5207,5.5207,5.5207,5.5207,5.5207,5.5207,5.5207,5.5207,5.5207,5.5207,5.5207,5.5207,5.5207,5.5207,5.5207,5.5207,5.0907,5.0922,5.1116,5.1217,5.1217,5.1217,5.1217,5.1217,5.1217,5.1217,5.1217,5.1217,5.1217,5.1217,5.1217,5.1217,5.1217,5.1217,5.1217,5.1217,5.1217,5.1217,5.1217,5.1217,5.1217,5.1217,5.1217,5.1217,5.1217,5.1217,5.1217,5.1217,5.1217,5.1217,5.1217,5.1217,5.1217,5.1217,5.1217,5.1217,5.1217,5.1217,5.1217,5.1217,5.1217,5.1217,5.1217,5.1217,5.1217,5.1217,5.1217,5.1217,5.1217,5.1217,5.1217,5.1217,5.1217,5.1217,5.1217,5.1217,5.1217,5.1217,5.1217,5.1217,5.1217,5.1217,5.1217,5.1217,5.1217,5.1217,5.1217,5.1217,5.1217,5.1217,5.1217,5.1576,5.2513,5.3228,5.4054,5.4835,5.5072,5.5207,5.5207,5.5207,5.5207,5.5207,5.5207,5.5207,5.5207,5.5207,5.5207,5.5207,5.5207,5.5207,5.5207,5.5207,5.5207,5.5207,5.5207,5.5207,5.5207,5.5207,5.5207,5.5207,5.5207,5.5207,5.5207,5.5207,5.5207,5.5207,5.5207,5.5207,5.5207,5.5207,5.5207,5.0222,5.0312,5.0877,5.1143,5.1083,5.1191,5.1217,5.1217,5.1217,5.1217,5.1217,5.1217,5.1217,5.1217,5.1217,5.1217,5.1217,5.1217,5.1217,5.1217,5.1217,5.1217,5.1217,5.1217,5.1217,5.1217,5.1217,5.1217,5.1217,5.1217,5.1217,5.1217,5.1217,5.1217,5.1217,5.1217,5.1217,5.1217,5.1217,5.1217,5.1217,5.1217,5.1217,5.1217,5.1217,5.1217,5.1217,5.1217,5.1217,5.1217,5.1217,5.1217,5.1217,5.1217,5.1217,5.1217,5.1217,5.1217,5.1217,5.1217,5.1217,5.1217,5.1217,5.1217,5.1217,5.1217,5.1217,5.1217,5.1217,5.1217,5.1217,5.1217,5.1217,5.1217,5.1217,5.1651,5.2603,5.3228,5.3979,5.4862,5.5102,5.5207,5.5207,5.5207,5.5207,5.5207,5.5207,5.5207,5.5207,5.5207,5.5207,5.5207,5.5207,5.5207,5.5207,5.5207,5.5207,5.5207,5.5207,5.5207,5.5207,5.5207,5.5207,5.5207,5.5207,5.5207,5.5207,5.5207,5.5207,5.5207,5.5207,5.5207,5.5207,5.5207,5.5207,4.961,4.9625,4.9849,4.9939,5.0059,5.0858,5.1202,5.1217,5.1217,5.1202,5.1217,5.1217,5.1217,5.1217,5.1187,5.1173,5.1217,5.1217,5.1217,5.1217,5.1217,5.1217,5.1217,5.1217,5.1217,5.1217,5.1217,5.1217,5.1217,5.1217,5.1217,5.1217,5.1217,5.1217,5.1217,5.1217,5.1217,5.1217,5.1217,5.1217,5.1217,5.1217,5.1217,5.1217,5.1217,5.1217,5.1217,5.1217,5.1217,5.1217,5.1217,5.1217,5.1217,5.1217,5.1217,5.1217,5.1217,5.1217,5.1217,5.1217,5.1217,5.1217,5.1217,5.1217,5.1217,5.1217,5.1217,5.1217,5.1217,5.1217,5.1217,5.1217,5.1217,5.1217,5.1367,5.1977,5.2692,5.3052,5.3665,5.4668,5.5207,5.5207,5.5207,5.5207,5.5207,5.5207,5.5207,5.5207,5.5207,5.5207,5.5207,5.5207,5.5207,5.5207,5.5207,5.5207,5.5207,5.5207,5.5207,5.5207,5.5207,5.5207,5.5207,5.5207,5.5207,5.5207,5.5207,5.5207,5.5207,5.5207,5.5207,5.5207,5.5207,5.5207,5.5207,4.8959,4.8966,4.9213,4.9288,4.9423,5.0208,5.0541,5.0541,5.0541,5.0541,5.0526,5.0526,5.0649,5.0772,5.0862,5.1071,5.1173,5.1217,5.1217,5.1217,5.1217,5.1217,5.1217,5.1217,5.1217,5.1217,5.1217,5.1217,5.1217,5.1217,5.1217,5.1217,5.1217,5.1217,5.1217,5.1217,5.1217,5.1217,5.1217,5.1217,5.1217,5.1217,5.1217,5.1217,5.1217,5.1217,5.1217,5.1217,5.1217,5.1217,5.1217,5.1217,5.1217,5.1217,5.1217,5.1217,5.1217,5.1217,5.1217,5.1217,5.1217,5.1217,5.1217,5.1217,5.1217,5.1217,5.1217,5.1217,5.1217,5.1217,5.1217,5.1217,5.1217,5.1217,5.1397,5.1992,5.2722,5.3111,5.3662,5.4623,5.5192,5.5207,5.5207,5.5207,5.5207,5.5207,5.5207,5.5207,5.5207,5.5207,5.5207,5.5207,5.5207,5.5207,5.5207,5.5207,5.5207,5.5207,5.5207,5.5207,5.5207,5.5207,5.5207,5.5207,5.5207,5.5207,5.5207,5.5207,5.5207,5.5207,5.5207,5.5207,5.5207,5.5207,5.5207,4.8263,4.8368,4.8962,4.9183,4.9202,4.9202,4.9273,4.9348,4.9363,4.9393,4.9363,4.9468,4.9744,5.0129,5.0177,5.0506,5.0966,5.1071,5.1158,5.1202,5.1217,5.1217,5.1217,5.1217,5.1217,5.1217,5.1217,5.1217,5.1217,5.1217,5.1217,5.1217,5.1217,5.1217,5.1217,5.1217,5.1217,5.1217,5.1217,5.1217,5.1217,5.1217,5.1217,5.1217,5.1217,5.1217,5.1217,5.1217,5.1217,5.1217,5.1217,5.1217,5.1217,5.1217,5.1217,5.1217,5.1217,5.1217,5.1217,5.1217,5.1217,5.1217,5.1217,5.1217,5.1217,5.1217,5.1217,5.1217,5.1217,5.1217,5.1217,5.1217,5.1217,5.1217,5.1217,5.1891,5.2755,5.3336,5.3875,5.4531,5.5027,5.5192,5.5207,5.5207,5.5207,5.5207,5.5207,5.5207,5.5207,5.5207,5.5207,5.5207,5.5207,5.5207,5.5207,5.5207,5.5207,5.5207,5.5207,5.5207,5.5207,5.5207,5.5207,5.5207,5.5207,5.5207,5.5207,5.5207,5.5207,5.5207,5.5207,5.5207,5.5207,5.5207,5.5207,4.7593,4.7608,4.7788,4.7874,4.7878,4.7889,4.8397,4.9217,4.9288,4.9288,4.9288,4.9288,4.9322,4.955,4.9565,4.9946,5.0308,5.0566,5.0862,5.1011,5.1217,5.1217,5.1217,5.1217,5.1217,5.1217,5.1217,5.1217,5.1217,5.1217,5.1217,5.1217,5.1217,5.1217,5.1217,5.1217,5.1217,5.1217,5.1217,5.1217,5.1217,5.1217,5.1217,5.1217,5.1217,5.1217,5.1217,5.1217,5.1217,5.1217,5.1217,5.1217,5.1217,5.1217,5.1217,5.1217,5.1217,5.1217,5.1217,5.1217,5.1217,5.1217,5.1217,5.1217,5.1217,5.1217,5.1217,5.1217,5.1217,5.1217,5.1217,5.1217,5.1217,5.1217,5.1262,5.1696,5.2531,5.3156,5.3725,5.4503,5.4997,5.5192,5.5207,5.5207,5.5207,5.5207,5.5207,5.5207,5.5207,5.5207,5.5207,5.5207,5.5207,5.5207,5.5207,5.5207,5.5207,5.5207,5.5207,5.5207,5.5207,5.5207,5.5207,5.5207,5.5207,5.5207,5.5207,5.5207,5.5207,5.5207,5.5207,5.5207,5.5207,5.5207,5.5207,4.7298,4.7298,4.7298,4.7298,4.7298,4.7298,4.7818,4.8442,4.8513,4.8517,4.8513,4.8468,4.8637,4.8876,4.8951,4.9374,5.0207,5.0297,5.0592,5.1113,5.1217,5.1217,5.1217,5.1217,5.1217,5.1217,5.1217,5.1217,5.1217,5.1217,5.1217,5.1217,5.1217,5.1217,5.1217,5.1217,5.1217,5.1217,5.1217,5.1217,5.1217,5.1217,5.1217,5.1217,5.1217,5.1217,5.1217,5.1217,5.1217,5.1217,5.1217,5.1217,5.1217,5.1217,5.1217,5.1217,5.1217,5.1217,5.1217,5.1217,5.1217,5.1217,5.1217,5.1217,5.1217,5.1217,5.1217,5.1217,5.1217,5.1217,5.1217,5.1217,5.1217,5.1217,5.1367,5.1517,5.2157,5.2827,5.3608,5.4461,5.4895,5.5132,5.5207,5.5207,5.5207,5.5207,5.5207,5.5207,5.5207,5.5207,5.5207,5.5207,5.5207,5.5207,5.5207,5.5207,5.5207,5.5207,5.5207,5.5207,5.5207,5.5207,5.5207,5.5207,5.5207,5.5207,5.5207,5.5207,5.5207,5.5207,5.5207,5.5207,5.5207,5.5207,5.5207,4.7298,4.7298,4.7298,4.7298,4.7298,4.7298,4.7343,4.7298,4.7418,4.7328,4.7399,4.7354,4.7754,4.8173,4.8248,4.885,4.9546,4.989,5.0308,5.1128,5.1191,5.1191,5.1217,5.1217,5.1217,5.1217,5.1217,5.1217,5.1217,5.1217,5.1217,5.1217,5.1217,5.1217,5.1217,5.1217,5.1217,5.1217,5.1217,5.1217,5.1217,5.1217,5.1217,5.1217,5.1217,5.1217,5.1217,5.1217,5.1217,5.1217,5.1217,5.1217,5.1217,5.1217,5.1217,5.1217,5.1217,5.1217,5.1217,5.1217,5.1217,5.1217,5.1217,5.1217,5.1217,5.1217,5.1217,5.1217,5.1217,5.1217,5.1217,5.1217,5.1217,5.1217,5.1292,5.1442,5.1813,5.2606,5.3575,5.4371,5.4925,5.5132,5.5207,5.5207,5.5207,5.5207,5.5207,5.5207,5.5207,5.5207,5.5207,5.5207,5.5207,5.5207,5.5207,5.5207,5.5207,5.5207,5.5207,5.5207,5.5207,5.5207,5.5207,5.5207,5.5207,5.5207,5.5207,5.5207,5.5207,5.5207,5.5207,5.5207,5.5207,5.5207,5.5207,4.7298,4.7298,4.7298,4.7298,4.7298,4.7298,4.7298,4.7298,4.7298,4.7298,4.7298,4.7313,4.7373,4.7593,4.7623,4.8162,4.8772,4.9494,4.9875,5.0533,5.0925,5.1191,5.1217,5.1217,5.1217,5.1217,5.1217,5.1217,5.1217,5.1217,5.1217,5.1217,5.1217,5.1217,5.1217,5.1217,5.1217,5.1217,5.1217,5.1217,5.1217,5.1217,5.1217,5.1217,5.1217,5.1217,5.1217,5.1217,5.1217,5.1217,5.1217,5.1217,5.1217,5.1217,5.1217,5.1217,5.1217,5.1217,5.1217,5.1217,5.1217,5.1217,5.1217,5.1217,5.1217,5.1217,5.1217,5.1217,5.1217,5.1217,5.1217,5.1217,5.1217,5.1217,5.1232,5.1367,5.1532,5.2516,5.3545,5.4219,5.485,5.5089,5.5177,5.5207,5.5207,5.5207,5.5207,5.5207,5.5207,5.5207,5.5207,5.5207,5.5207,5.5207,5.5207,5.5207,5.5207,5.5207,5.5207,5.5207,5.5207,5.5207,5.5207,5.5207,5.5207,5.5207,5.5207,5.5207,5.5207,5.5207,5.5207,5.5207,5.5207,5.5207,5.5207,4.7298,4.7298,4.7298,4.7298,4.7298,4.7298,4.7298,4.7298,4.7298,4.7298,4.7298,4.7298,4.7298,4.7298,4.7298,4.7638,4.8319,4.9018,4.9673,5.0278,5.0817,5.1116,5.1217,5.1217,5.1217,5.1217,5.1217,5.1217,5.1217,5.1217,5.1217,5.1217,5.1217,5.1217,5.1217,5.1217,5.1217,5.1217,5.1217,5.1217,5.1217,5.1217,5.1217,5.1217,5.1217,5.1217,5.1217,5.1217,5.1217,5.1217,5.1217,5.1217,5.1217,5.1217,5.1217,5.1217,5.1217,5.1217,5.1217,5.1217,5.1217,5.1217,5.1217,5.1217,5.1217,5.1217,5.1217,5.1217,5.1217,5.1217,5.1217,5.1217,5.1217,5.1217,5.1265,5.137,5.1861,5.2663,5.3501,5.4162,5.473,5.5147,5.5207,5.5207,5.5207,5.5207,5.5207,5.5207,5.5207,5.5207,5.5207,5.5207,5.5207,5.5207,5.5207,5.5207,5.5207,5.5207,5.5207,5.5207,5.5207,5.5207,5.5207,5.5207,5.5207,5.5207,5.5207,5.5207,5.5207,5.5207,5.5207,5.5207,5.5207,5.5207,5.5207,4.7298,4.7298,4.7298,4.7298,4.7298,4.7298,4.7298,4.7298,4.7298,4.7298,4.7298,4.7298,4.7298,4.7298,4.7339,4.7739,4.8259,4.8944,4.9583,5.011,5.0847,5.1113,5.1217,5.1217,5.1217,5.1217,5.1217,5.1217,5.1217,5.1217,5.1217,5.1217,5.1217,5.1217,5.1217,5.1217,5.1217,5.1217,5.1217,5.1217,5.1217,5.1217,5.1217,5.1217,5.1217,5.1217,5.1217,5.1217,5.1217,5.1217,5.1217,5.1217,5.1217,5.1217,5.1217,5.1217,5.1217,5.1217,5.1217,5.1217,5.1217,5.1217,5.1217,5.1217,5.1217,5.1217,5.1217,5.1217,5.1217,5.1217,5.1217,5.1217,5.1217,5.1217,5.128,5.134,5.198,5.2633,5.3294,5.397,5.4491,5.4967,5.5207,5.5207,5.5207,5.5207,5.5207,5.5207,5.5207,5.5207,5.5207,5.5207,5.5207,5.5207,5.5207,5.5207,5.5207,5.5207,5.5207,5.5207,5.5207,5.5207,5.5207,5.5207,5.5207,5.5207,5.5207,5.5207,5.5207,5.5207,5.5207,5.5207,5.5207,5.5207,5.5207,4.7298,4.7298,4.7298,4.7298,4.7298,4.7298,4.7298,4.7298,4.7298,4.7298,4.7298,4.7298,4.7298,4.7298,4.7298,4.7504,4.7769,4.8693,4.9198,4.9576,5.0709,5.1083,5.1217,5.1217,5.1217,5.1217,5.1217,5.1217,5.1217,5.1217,5.1217,5.1217,5.1217,5.1217,5.1217,5.1217,5.1217,5.1217,5.1217,5.1217,5.1217,5.1217,5.1217,5.1217,5.1217,5.1217,5.1217,5.1217,5.1217,5.1217,5.1217,5.1217,5.1217,5.1217,5.1217,5.1217,5.1217,5.1217,5.1217,5.1217,5.1217,5.1217,5.1217,5.1217,5.1217,5.1217,5.1217,5.1217,5.1217,5.1217,5.1217,5.1217,5.1217,5.1217,5.1251,5.1251,5.1561,5.2142,5.274,5.3428,5.4057,5.4638,5.5207,5.5207,5.5207,5.5207,5.5207,5.5207,5.5207,5.5207,5.5207,5.5207,5.5207,5.5207,5.5207,5.5207,5.5207,5.5207,5.5207,5.5207,5.5207,5.5207,5.5207,5.5207,5.5207,5.5207,5.5207,5.5207,5.5207,5.5207,5.5207,5.5207,5.5207,5.5207,5.5207]}]]